[[{"header":{"parameterUnit":"m.s-1","parameterCategory":1,"la1":30.6,"la2":28.766,"lo1":-90.7593,"lo2":-88.6598,"dy":0.0162,"dx":0.0183,"nx":116,"ny":114,"refTime":"2024-06-08T12:00:00:Z","depth":0,"parameterNumber":2,"parameterNumberName":"U-component_of_WINDS"},"data":[0.0,0.0,0.0,0.0,0.0,0.0,0.0,0.0,0.0,0.0,0.0,0.0,0.0,0.0,0.0,0.0,0.0,0.0,0.0,0.0,0.0,0.0,0.0,0.0,0.0,0.0,0.0,0.0,0.0,0.0,0.0,0.0,0.0,0.0,0.0,0.0,0.0,0.0,0.0,0.0,0.0,0.0,0.0,0.0,0.0,0.0,0.0,0.0,0.0,0.0,0.0,0.0,0.0,0.0,0.0,0.0,0.0,0.0,0.0,0.0,0.0,0.0,0.0,0.0,0.0,0.0,0.0,0.0,0.0,0.0,0.0,0.0,0.0,0.0,0.0,0.0,0.0,0.0,0.0,0.0,0.0,0.0,0.0,0.0,0.0,0.0,0.0,0.0,0.0,0.0,0.0,0.0,0.0,0.0,0.0,0.0,0.0,0.0,0.0,0.0,0.0,0.0,0.0,0.0,0.0,0.0,0.0,0.0,0.0,0.0,0.0,0.0,0.0,0.0,0.0,0.0,0.0,0.0,0.0,0.0,0.0,0.0,0.0,0.0,0.0,0.0,0.0,0.0,0.0,0.0,0.0,0.0,0.0,0.0,0.0,0.0,0.0,0.0,0.0,0.0,0.0,0.0,0.0,0.0,0.0,0.0,0.0,0.0,0.0,0.0,0.0,0.0,0.0,0.0,0.0,0.0,0.0,0.0,0.0,0.0,0.0,0.0,0.0,0.0,0.0,0.0,0.0,0.0,0.0,0.0,0.0,0.0,0.0,0.0,0.0,0.0,0.0,0.0,0.0,0.0,0.0,0.0,0.0,0.0,0.0,0.0,0.0,0.0,0.0,0.0,0.0,0.0,0.0,0.0,0.0,0.0,0.0,0.0,0.0,0.0,0.0,0.0,0.0,0.0,0.0,0.0,0.0,0.0,0.0,0.0,0.0,0.0,0.0,0.0,0.0,0.0,0.0,0.0,0.0,0.0,0.0,0.0,0.0,0.0,0.0,0.0,0.0,0.0,0.0,0.0,0.0,0.0,0.0,0.0,0.0,0.0,0.0,0.0,0.0,0.0,0.0,0.0,0.0,0.0,0.0,0.0,0.0,0.0,0.0,0.0,0.0,0.0,0.0,0.0,0.0,0.0,0.0,0.0,0.0,0.0,0.0,0.0,0.0,0.0,0.0,0.0,0.0,0.0,0.0,0.0,0.0,0.0,0.0,0.0,0.0,0.0,0.0,0.0,0.0,0.0,0.0,0.0,0.0,0.0,0.0,0.0,0.0,0.0,0.0,0.0,0.0,0.0,0.0,0.0,0.0,0.0,0.0,0.0,0.0,0.0,0.0,0.0,0.0,0.0,0.0,0.0,0.0,0.0,0.0,0.0,0.0,0.0,0.0,0.0,0.0,0.0,0.0,0.0,0.0,0.0,0.0,0.0,0.0,0.0,0.0,0.0,0.0,0.0,0.0,0.0,0.0,0.0,0.0,0.0,0.0,0.0,0.0,0.0,0.0,0.0,0.0,0.0,0.0,0.0,0.0,0.0,0.0,0.0,0.0,0.0,0.0,0.0,0.0,0.0,0.0,0.0,0.0,0.0,0.0,0.0,0.0,0.0,0.0,0.0,0.0,0.0,0.0,0.0,0.0,0.0,0.0,0.0,0.0,0.0,0.0,0.0,0.0,0.0,0.0,0.0,0.0,0.0,0.0,0.0,0.0,0.0,0.0,0.0,0.0,0.0,0.0,0.0,0.0,0.0,0.0,0.0,0.0,0.0,0.0,0.0,0.0,0.0,0.0,0.0,0.0,0.0,0.0,0.0,0.0,0.0,0.0,0.0,0.0,0.0,0.0,0.0,0.0,0.0,0.0,0.0,0.0,0.0,0.0,0.0,0.0,0.0,0.0,0.0,0.0,0.0,0.0,0.0,0.0,0.0,0.0,0.0,0.0,0.0,0.0,0.0,0.0,0.0,0.0,0.0,0.0,0.0,0.0,0.0,0.0,0.0,0.0,0.0,0.0,0.0,0.0,0.0,0.0,0.0,0.0,0.0,0.0,0.0,0.0,0.0,0.0,0.0,0.0,0.0,0.0,0.0,0.0,0.0,0.0,0.0,0.0,0.0,0.0,0.0,0.0,0.0,0.0,0.0,0.0,0.0,0.0,0.0,0.0,0.0,0.0,0.0,0.0,0.0,0.0,0.0,0.0,0.0,0.0,0.0,0.0,0.0,0.0,0.0,0.0,0.0,0.0,0.0,0.0,0.0,0.0,0.0,0.0,0.0,0.0,0.0,0.0,0.0,0.0,0.0,0.0,0.0,0.0,0.0,0.0,0.0,0.0,0.0,0.0,0.0,0.0,0.0,0.0,0.0,0.0,0.0,0.0,0.0,0.0,0.0,0.0,0.0,0.0,0.0,0.0,0.0,0.0,0.0,0.0,0.0,0.0,0.0,0.0,0.0,0.0,0.0,0.0,0.0,0.0,0.0,0.0,0.0,0.0,0.0,0.0,0.0,0.0,0.0,0.0,0.0,0.0,0.0,0.0,0.0,0.0,0.0,0.0,0.0,0.0,0.0,0.0,0.0,0.0,0.0,0.0,0.0,0.0,0.0,0.0,0.0,0.0,0.0,0.0,0.0,0.0,0.0,0.0,0.0,0.0,0.0,0.0,0.0,0.0,0.0,0.0,0.0,0.0,0.0,0.0,0.0,0.0,0.0,0.0,0.0,0.0,0.0,0.0,0.0,0.0,0.0,0.0,0.0,0.0,0.0,0.0,0.0,0.0,0.0,0.0,0.0,0.0,0.0,0.0,0.0,0.0,0.0,0.0,0.0,0.0,0.0,0.0,0.0,0.0,0.0,0.0,0.0,0.0,0.0,0.0,0.0,0.0,0.0,0.0,0.0,0.0,0.0,0.0,0.0,0.0,0.0,0.0,0.0,0.0,0.0,0.0,0.0,0.0,0.0,0.0,0.0,0.0,0.0,0.0,0.0,0.0,0.0,0.0,0.0,0.0,0.0,0.0,0.0,0.0,0.0,0.0,0.0,0.0,0.0,0.0,0.0,0.0,0.0,0.0,0.0,0.0,0.0,0.0,0.0,0.0,0.0,0.0,0.0,0.0,0.0,0.0,0.0,0.0,0.0,0.0,0.0,0.0,0.0,0.0,0.0,0.0,0.0,0.0,0.0,0.0,0.0,0.0,0.0,0.0,0.0,0.0,0.0,0.0,0.0,0.0,0.0,0.0,0.0,0.0,0.0,0.0,0.0,0.0,0.0,0.0,0.0,0.0,0.0,0.0,0.0,0.0,0.0,0.0,0.0,0.0,0.0,0.0,0.0,0.0,0.0,0.0,0.0,0.0,0.0,0.0,0.0,0.0,0.0,0.0,0.0,0.0,0.0,0.0,0.0,0.0,0.0,0.0,0.0,0.0,0.0,0.0,0.0,0.0,0.0,0.0,0.0,0.0,0.0,0.0,0.0,0.0,0.0,0.0,0.0,0.0,0.0,0.0,0.0,0.0,0.0,0.0,0.0,0.0,0.0,0.0,0.0,0.0,0.0,0.0,0.0,0.0,0.0,0.0,0.0,0.0,0.0,0.0,0.0,0.0,0.0,0.0,0.0,0.0,0.0,0.0,0.0,0.0,0.0,0.0,0.0,0.0,0.0,0.0,0.0,0.0,0.0,0.0,0.0,0.0,0.0,0.0,0.0,0.0,0.0,0.0,0.0,0.0,0.0,0.0,0.0,0.0,0.0,0.0,0.0,0.0,0.0,0.0,0.0,0.0,0.0,0.0,0.0,0.0,0.0,0.0,0.0,0.0,0.0,0.0,0.0,0.0,0.0,0.0,0.0,0.0,0.0,0.0,0.0,0.0,0.0,0.0,0.0,0.0,0.0,0.0,0.0,0.0,0.0,0.0,0.0,0.0,0.0,0.0,0.0,0.0,0.0,0.0,0.0,0.0,0.0,0.0,0.0,0.0,0.0,0.0,0.0,0.0,0.0,0.0,0.0,0.0,0.0,0.0,0.0,0.0,0.0,0.0,0.0,0.0,0.0,0.0,0.0,0.0,0.0,0.0,0.0,0.0,0.0,0.0,0.0,0.0,0.0,0.0,0.0,0.0,0.0,0.0,0.0,0.0,0.0,0.0,0.0,0.0,0.0,0.0,0.0,0.0,0.0,0.0,0.0,0.0,0.0,0.0,0.0,0.0,0.0,0.0,0.0,0.0,0.0,0.0,0.0,0.0,0.0,0.0,0.0,0.0,0.0,0.0,0.0,0.0,0.0,0.0,0.0,0.0,0.0,0.0,0.0,0.0,0.0,0.0,0.0,0.0,0.0,0.0,0.0,0.0,0.0,0.0,0.0,0.0,0.0,0.0,0.0,0.0,0.0,0.0,0.0,0.0,0.0,0.0,0.0,0.0,0.0,0.0,0.0,0.0,0.0,0.0,0.0,0.0,0.0,0.0,0.0,0.0,0.0,0.0,0.0,0.0,0.0,0.0,0.0,0.0,0.0,0.0,0.0,0.0,0.0,0.0,0.0,0.0,0.0,0.0,0.0,0.0,0.0,0.0,0.0,0.0,0.0,0.0,0.0,0.0,0.0,0.0,0.0,0.0,0.0,0.0,0.0,0.0,0.0,0.0,0.0,0.0,0.0,0.0,0.0,0.0,0.0,0.0,0.0,0.0,0.0,0.0,0.0,0.0,0.0,0.0,0.0,0.0,0.0,0.0,0.0,0.0,0.0,0.0,0.0,0.0,0.0,0.0,0.0,0.0,0.0,0.0,0.0,0.0,0.0,0.0,0.0,0.0,0.0,0.0,0.0,0.0,0.0,0.0,0.0,0.0,0.0,0.0,0.0,0.0,0.0,0.0,0.0,0.0,0.0,0.0,0.0,0.0,0.0,0.0,0.0,0.0,0.0,0.0,0.0,0.0,0.0,0.0,0.0,0.0,0.0,0.0,0.0,0.0,0.0,0.0,0.0,0.0,0.0,0.0,0.0,0.0,0.0,0.0,0.0,0.0,0.0,0.0,0.0,0.0,0.0,0.0,0.0,0.0,0.0,0.0,0.0,0.0,0.0,0.0,0.0,0.0,0.0,0.0,0.0,0.0,0.0,0.0,0.0,0.0,0.0,0.0,0.0,0.0,0.0,0.0,0.0,0.0,0.0,0.0,0.0,0.0,0.0,0.0,0.0,0.0,0.0,0.0,0.0,0.0,0.0,0.0,0.0,0.0,0.0,0.0,0.0,0.0,0.0,0.0,0.0,0.0,0.0,0.0,0.0,0.0,0.0,0.0,0.0,0.0,0.0,0.0,0.0,0.0,0.0,0.0,0.0,0.0,0.0,0.0,0.0,0.0,0.0,0.0,0.0,0.0,0.0,0.0,0.0,0.0,0.0,0.0,0.0,0.0,0.0,0.0,0.0,0.0,0.0,0.0,0.0,0.0,0.0,0.0,0.0,0.0,0.0,0.0,0.0,0.0,0.0,0.0,0.0,0.0,0.0,0.0,0.0,0.0,0.0,0.0,0.0,0.0,0.0,0.0,0.0,0.0,0.0,0.0,0.0,0.0,0.0,0.0,0.0,0.0,0.0,0.0,0.0,0.0,0.0,0.0,0.0,0.0,0.0,0.0,0.0,0.0,0.0,0.0,0.0,0.0,0.0,0.0,0.0,0.0,0.0,0.0,0.0,0.0,0.0,0.0,0.0,0.0,0.0,0.0,0.0,0.0,0.0,0.0,0.0,0.0,0.0,0.0,0.0,0.0,0.0,0.0,0.0,0.0,0.0,0.0,0.0,0.0,0.0,0.0,0.0,0.0,0.0,0.0,0.0,0.0,0.0,0.0,0.0,0.0,0.0,0.0,0.0,0.0,0.0,0.0,0.0,0.0,0.0,0.0,0.0,0.0,0.0,0.0,0.0,0.0,0.0,0.0,0.0,0.0,0.0,0.0,0.0,0.0,0.0,0.0,0.0,0.0,0.0,0.0,0.0,0.0,0.0,0.0,0.0,0.0,0.0,0.0,0.0,0.0,0.0,0.0,0.0,0.0,0.0,0.0,0.0,0.0,0.0,0.0,0.0,0.0,0.0,0.0,0.0,0.0,0.0,0.0,0.0,0.0,0.0,-1.4452,0.0,0.0,0.0,0.0,0.0,0.0,0.0,0.0,0.0,0.0,0.0,0.0,0.0,0.0,0.0,0.0,0.0,0.0,0.0,0.0,0.0,0.0,0.0,0.0,-0.7899,-0.7899,-0.7899,-0.782,-0.765,-0.7417,0.0,0.0,0.0,0.0,0.0,-0.674,-0.6651,-0.6912,-0.7566,-0.7748,-0.8538,-0.988,-0.983,-0.9529,-0.9064,0.0,0.0,0.0,0.0,0.0,0.0,0.0,0.0,0.0,0.0,0.0,0.0,0.0,0.0,0.0,0.0,0.0,0.0,0.0,0.0,0.0,0.0,0.0,0.0,0.0,0.0,0.0,0.0,0.0,0.0,0.0,0.0,0.0,0.0,0.0,0.0,0.0,0.0,0.0,0.0,0.0,0.0,0.0,0.0,0.0,0.0,0.0,0.0,0.0,0.0,0.0,0.0,0.0,0.0,0.0,0.0,0.0,0.0,0.0,0.0,0.0,0.0,0.0,0.0,0.0,0.0,0.0,0.0,0.0,0.0,0.0,-1.6548,0.0,0.0,0.0,0.0,0.0,0.0,0.0,0.0,0.0,0.0,0.0,0.0,0.0,0.0,0.0,0.0,0.0,0.0,0.0,0.0,0.0,-0.7899,-0.7899,-0.7899,-0.7944,-0.8064,-0.7863,-0.7641,-0.7385,-0.7168,0.0,0.0,0.0,-0.6723,-0.6984,-0.6926,-0.7532,-0.882,-0.9044,-1.0144,-1.2043,-1.258,-1.2137,-1.0899,-1.0607,0.0,0.0,0.0,0.0,0.0,0.0,0.0,0.0,0.0,0.0,0.0,0.0,0.0,0.0,0.0,0.0,0.0,0.0,0.0,0.0,0.0,0.0,0.0,0.0,0.0,0.0,0.0,0.0,0.0,0.0,0.0,0.0,0.0,0.0,0.0,0.0,0.0,0.0,0.0,0.0,0.0,0.0,0.0,0.0,0.0,0.0,0.0,0.0,0.0,0.0,0.0,0.0,0.0,0.0,0.0,0.0,0.0,0.0,0.0,0.0,0.0,0.0,0.0,-2.2518,-2.3257,-2.2742,-2.3302,-2.3541,-2.3422,-2.1201,-1.9929,-1.9346,0.0,0.0,0.0,0.0,0.0,0.0,0.0,0.0,0.0,0.0,0.0,0.0,0.0,0.0,0.0,0.0,0.0,0.0,0.0,0.0,-0.7899,-0.7899,-0.7899,-0.8132,-0.8725,-0.8472,-0.8237,-0.8076,-0.7834,0.0,0.0,-0.6599,-0.6833,-0.7329,-0.7821,-0.8624,-0.973,-1.1625,-1.2981,-1.3788,-1.4324,-1.4692,-1.4867,-1.3406,-1.2734,-1.259,0.0,0.0,0.0,0.0,0.0,0.0,0.0,0.0,0.0,0.0,0.0,0.0,0.0,0.0,0.0,0.0,0.0,0.0,0.0,0.0,0.0,0.0,0.0,0.0,0.0,0.0,0.0,0.0,0.0,0.0,0.0,0.0,0.0,0.0,0.0,0.0,0.0,0.0,0.0,0.0,0.0,-1.0991,-1.1633,0.0,0.0,0.0,0.0,0.0,0.0,0.0,0.0,0.0,0.0,0.0,0.0,0.0,-2.0718,-2.1849,-2.3827,-2.4799,-2.4768,-2.6258,-2.6911,-2.6821,-2.6911,-2.6941,-2.6926,-2.6581,0.0,-2.2089,-2.0827,0.0,0.0,0.0,0.0,0.0,0.0,0.0,0.0,0.0,0.0,0.0,0.0,0.0,0.0,0.0,0.0,0.0,0.0,0.0,0.0,0.0,-0.8799,-0.9285,-0.9905,-1.0069,-0.9956,-0.9518,-0.881,-0.8146,-0.753,-0.7036,-0.7084,-0.7785,-0.8529,-0.9856,-1.1745,-1.3667,-1.4902,-1.5462,-1.6381,-1.7096,-1.7595,-1.7167,-1.6069,-1.4467,-1.3207,0.0,0.0,0.0,0.0,0.0,0.0,0.0,0.0,0.0,0.0,0.0,0.0,0.0,0.0,0.0,0.0,0.0,0.0,0.0,0.0,0.0,0.0,0.0,0.0,0.0,0.0,0.0,0.0,0.0,0.0,0.0,0.0,0.0,0.0,0.0,0.0,0.0,0.0,0.0,-1.0803,-1.2421,-1.4027,-1.4242,-1.4412,0.0,0.0,0.0,0.0,0.0,0.0,0.0,0.0,0.0,-2.1829,-2.2906,-2.3924,-2.4889,-2.6482,-2.729,-2.7305,-2.8248,-2.8723,-2.8723,-2.8723,-2.8723,-2.8723,-2.8723,-2.7705,-2.5869,-2.4163,-2.2458,-2.0887,0.0,0.0,0.0,0.0,-2.0079,-2.021,0.0,0.0,0.0,0.0,0.0,0.0,0.0,0.0,0.0,0.0,0.0,0.0,-0.9077,-0.9734,-1.0458,-1.1241,-1.1549,-1.1511,-1.1045,-0.9866,-0.8955,-0.8484,-0.7666,-0.7619,-0.841,-0.9854,-1.1678,-1.3842,-1.5546,-1.6561,-1.6982,-1.8195,-1.9057,-1.9573,-1.9976,-1.8884,-1.6623,-1.5351,-1.427,-1.3286,0.0,0.0,0.0,0.0,0.0,0.0,0.0,0.0,0.0,0.0,0.0,0.0,0.0,0.0,0.0,0.0,0.0,0.0,0.0,0.0,0.0,0.0,0.0,0.0,0.0,0.0,0.0,0.0,0.0,0.0,0.0,0.0,0.0,0.0,0.0,0.0,0.0,-1.2258,-1.403,-1.6094,-1.6545,-1.6858,0.0,0.0,0.0,0.0,0.0,0.0,-2.1126,-2.2308,-2.355,-2.4837,-2.5854,-2.6692,-2.7375,-2.8682,-2.9355,-2.9355,-3.0013,-3.0328,-3.0355,-3.0163,-3.0088,-3.0088,-3.0088,-2.9699,-2.8936,-2.6931,-2.5151,-2.3676,-2.3511,-2.3131,-2.2772,-2.3452,-2.3691,-2.3871,0.0,0.0,0.0,0.0,0.0,0.0,0.0,0.0,0.0,0.0,0.0,-0.9107,-0.9779,-1.0389,-1.1271,-1.2579,-1.2428,-1.2311,-1.2395,-1.0863,-0.9713,-0.9169,-0.8498,-0.8516,-0.9318,-1.2313,-1.4443,-1.5567,-1.7321,-1.8176,-1.8251,-1.9439,-2.0295,-2.0822,-2.0835,-2.0417,-1.9589,-1.8116,-1.7113,-1.6263,-1.3707,0.0,0.0,0.0,0.0,0.0,0.0,0.0,0.0,0.0,0.0,0.0,0.0,0.0,0.0,0.0,0.0,0.0,0.0,0.0,0.0,0.0,0.0,0.0,0.0,0.0,0.0,0.0,0.0,0.0,0.0,0.0,0.0,0.0,0.0,0.0,0.0,0.0,0.0,-1.7103,-1.8674,0.0,0.0,0.0,0.0,-2.1395,-2.2592,-2.3894,-2.5241,-2.5974,-2.6961,-2.8308,-2.8412,-2.8771,-2.9457,-3.0731,-3.1346,-3.1361,-3.2019,-3.2362,-3.2318,-3.169,-3.1406,-3.1406,-3.1406,-3.1017,-3.0253,-2.8304,-2.7076,-2.6333,-2.5704,-2.5435,-2.5495,-2.6153,-2.6393,-2.6497,0.0,0.0,0.0,0.0,0.0,-0.7899,-0.7899,-0.7899,-0.7899,-0.7899,-0.8859,-0.9779,-1.0404,-1.1824,-1.3107,-1.4017,-1.4373,-1.4393,-1.4005,-1.2488,-1.1765,-1.2144,-1.0973,-1.1209,-1.3084,-1.4109,-1.5516,-1.7374,-1.7993,-1.8881,-1.9992,-2.0867,-2.1556,-2.2061,-2.2056,-2.1928,-2.1573,-1.9752,-1.8612,-1.7833,-1.6039,-1.4425,0.0,0.0,0.0,0.0,0.0,0.0,0.0,0.0,0.0,0.0,0.0,0.0,0.0,0.0,0.0,0.0,0.0,0.0,0.0,0.0,0.0,0.0,0.0,0.0,0.0,0.0,0.0,0.0,0.0,0.0,0.0,0.0,0.0,0.0,0.0,0.0,0.0,-2.009,-2.1462,0.0,0.0,-2.2712,-2.3483,-2.4163,-2.5031,-2.6123,-2.747,-2.7754,-2.8682,-3.0404,-3.0464,-3.1016,-3.2093,-3.2572,-3.2796,-3.2796,-3.3036,-3.314,-3.314,-3.2901,-3.2796,-3.2796,-3.2796,-3.2662,-3.2377,-3.1674,-3.0253,-2.8513,-2.8263,-2.8158,-2.8188,-2.8427,-2.8543,-2.8547,0.0,0.0,0.0,0.0,-0.7899,-0.7899,-0.7899,-0.7899,-0.7974,-0.8207,-0.939,-1.0533,-1.1375,-1.3077,-1.4408,-1.508,-1.5544,-1.5619,-1.517,-1.3769,-1.3198,-1.3782,-1.2731,-1.3291,-1.5759,-1.5792,-1.6699,-1.857,-1.9193,-2.0105,-2.126,-2.2084,-2.2659,-2.2995,-2.299,-2.3002,-2.2912,-2.137,-2.0183,-1.9253,-1.7906,-1.6458,-1.4963,0.0,0.0,0.0,0.0,0.0,0.0,0.0,0.0,0.0,0.0,0.0,0.0,0.0,0.0,0.0,0.0,0.0,0.0,0.0,0.0,0.0,0.0,0.0,0.0,0.0,0.0,0.0,0.0,0.0,0.0,0.0,0.0,0.0,0.0,0.0,-2.0816,-2.2593,-2.3874,-2.4612,-2.4612,-2.5435,-2.6129,-2.6587,-2.7425,-2.8397,-2.9535,-2.9804,-3.0627,-3.2123,-3.2168,-3.2617,-3.3484,-3.3709,-3.3829,-3.3829,-3.3829,-3.3829,-3.3814,-3.3589,-3.3499,-3.3499,-3.3499,-3.3499,-3.3499,-3.3499,-3.2467,-3.0881,-3.0657,-3.0432,-3.0238,-3.0238,-3.0238,-3.0208,0.0,0.0,0.0,-0.792,-0.7899,-0.7899,-0.7899,-0.7899,-0.8147,-0.8815,-1.0024,-1.1331,-1.2666,-1.4017,-1.5095,-1.5739,-1.5799,-1.5799,-1.5799,-1.4558,-1.3842,-1.3887,-1.3685,-1.4684,-1.7038,-1.7397,-1.8102,-1.9189,-2.1016,-2.1924,-2.1989,-2.3081,-2.3595,-2.3595,-2.3595,-2.3595,-2.3565,-2.2987,-2.1964,-2.0643,-1.9331,-1.8371,-1.7489,0.0,0.0,0.0,0.0,0.0,0.0,0.0,0.0,0.0,0.0,0.0,0.0,0.0,0.0,0.0,0.0,0.0,0.0,0.0,0.0,0.0,0.0,0.0,0.0,0.0,0.0,0.0,0.0,0.0,0.0,0.0,0.0,0.0,-1.8503,-2.06,-2.2775,-2.4485,-2.5884,-2.6677,-2.6677,-2.7889,-2.8667,-2.8697,-2.9864,-3.0866,-3.1525,-3.2168,-3.2841,-3.3499,-3.3529,-3.3529,-3.3559,-3.4219,-3.4533,-3.4533,-3.4533,-3.4533,-3.4518,-3.3844,-3.3559,-3.3559,-3.3559,-3.3559,-3.3559,-3.3559,-3.3544,-3.3455,-3.2796,-3.2123,-3.157,-3.154,-3.1525,-3.1406,0.0,0.0,-0.8056,-0.792,-0.7899,-0.7899,-0.7899,-0.7899,-0.8147,-0.8815,-1.0423,-1.185,-1.2699,-1.4435,-1.5604,-1.5784,-1.5799,-1.5799,-1.5799,-1.5005,-1.4947,-1.586,-1.6859,-1.7925,-1.9091,-1.8808,-1.9468,-2.1124,-2.165,-2.233,-2.3132,-2.344,-2.3595,-2.3595,-2.3595,-2.3595,-2.3595,-2.3415,-2.2877,-2.2089,-2.1216,-2.0183,-1.9016,0.0,0.0,0.0,0.0,0.0,0.0,0.0,0.0,0.0,0.0,0.0,0.0,0.0,0.0,0.0,0.0,0.0,0.0,0.0,0.0,0.0,0.0,0.0,0.0,0.0,0.0,0.0,0.0,0.0,0.0,0.0,0.0,-2.1,-2.1,-2.351,-2.5676,-2.6662,-2.7974,-2.8783,-2.8783,-2.9505,-3.0193,-3.0658,-3.1466,-3.2243,-3.2916,-3.3125,-3.3529,-3.4219,-3.4234,-3.4442,-3.4951,-3.513,-3.522,-3.522,-3.522,-3.522,-3.522,-3.504,-3.4951,-3.4951,-3.4951,-3.4951,-3.4951,-3.4951,-3.4651,-3.4174,-3.3484,-3.311,-3.2901,-3.2392,-3.1914,-3.1481,0.0,-0.7598,-0.8153,-0.7942,-0.7899,-0.7899,-0.7899,-0.7899,-0.8244,-0.9188,-1.0518,-1.185,-1.3077,-1.4272,-1.508,-1.535,-1.5379,-1.526,-1.4975,-1.5125,-1.5904,-1.7458,-1.8141,-1.9032,-2.0212,-1.9967,-2.0635,-2.225,-2.2491,-2.2942,-2.3595,-2.3595,-2.3595,-2.3595,-2.3595,-2.3595,-2.3595,-2.3595,-2.3385,-2.3047,-2.2652,-2.1695,-2.0423,-1.948,-1.8642,-1.7833,-1.6922,-1.6174,-1.5591,-1.5591,0.0,0.0,0.0,0.0,0.0,0.0,0.0,0.0,0.0,0.0,0.0,0.0,0.0,0.0,0.0,0.0,0.0,0.0,0.0,0.0,0.0,0.0,0.0,0.0,-2.1975,-2.3762,-2.4286,-2.5899,-2.748,-2.8678,-2.949,-3.0088,-3.0372,-3.0971,-3.1509,-3.1884,-3.2557,-3.3215,-3.3873,-3.3903,-3.4249,-3.4891,-3.4906,-3.51,-3.5504,-3.5504,-3.5504,-3.5504,-3.5504,-3.5504,-3.5504,-3.5504,-3.5504,0.0,-3.5504,-3.5504,-3.5504,-3.5504,-3.5265,0.0,0.0,0.0,0.0,0.0,-3.2677,-3.2288,0.0,-0.7446,-0.8298,-0.7964,-0.7899,-0.7899,-0.7899,-0.7899,-0.8364,-0.9629,-1.0374,-1.151,-1.3364,-1.3707,-1.4066,-1.4751,-1.4811,-1.4603,-1.4156,-1.532,-1.6817,-1.8627,-1.8314,-1.8945,-2.0777,-2.0932,-2.1591,-2.2785,-2.3334,-2.3595,-2.3595,-2.3595,-2.3595,-2.3595,-2.3595,-2.3595,-2.3595,-2.3595,-2.3595,-2.3595,-2.3595,-2.2877,-2.168,-2.0501,-1.9947,-1.9645,-1.8461,-1.7608,-1.704,-1.704,0.0,0.0,0.0,0.0,0.0,0.0,0.0,0.0,0.0,0.0,0.0,0.0,0.0,0.0,0.0,0.0,0.0,0.0,0.0,0.0,0.0,0.0,0.0,0.0,-2.4478,-2.6457,-2.7759,-2.7929,-2.8573,-3.0298,-3.0567,-3.0896,-3.1555,-3.2138,-3.2572,-3.2721,-3.3275,-3.3903,-3.4593,0.0,0.0,0.0,0.0,-3.5504,-3.5504,-3.5504,-3.5504,-3.5504,-3.5504,-3.5504,-3.5504,-3.5504,-3.5504,-3.5504,-3.5504,-3.5504,-3.5504,-3.5504,-3.5504,-3.5444,-3.4863,-3.4188,-3.3604,-3.3604,-3.3559,-3.341,0.0,-0.7794,-0.8298,-0.7964,-0.7899,-0.7899,-0.7899,-0.7899,-0.8184,-0.8987,-1.0084,-1.1141,-1.2089,-1.3139,-1.4066,-1.4751,-1.4811,-1.5186,-1.6084,-1.6876,-1.7728,-1.8672,-1.9108,-2.002,-2.1475,-2.154,-2.2164,-2.3421,-2.3551,-2.3595,-2.3595,-2.3595,-2.3595,-2.3595,-2.3595,-2.3595,-2.3595,-2.3595,-2.3595,-2.3595,-2.3595,-2.3146,-2.2478,-2.2224,-2.144,-2.0464,-2.021,-1.9705,-1.9121,-1.9121,-1.8238,-1.7116,-1.6996,-1.6144,0.0,0.0,0.0,0.0,0.0,0.0,0.0,0.0,0.0,0.0,0.0,0.0,0.0,0.0,0.0,0.0,0.0,0.0,0.0,-2.5227,-2.6594,-2.7887,-2.9699,-2.9939,-3.0073,-3.0462,-3.0972,-3.157,-3.2228,-3.2407,-3.2961,-3.4023,-3.4249,-3.4608,-3.5265,-3.531,0.0,-3.5504,-3.5504,-3.5504,-3.5504,-3.5504,-3.5504,-3.5504,0.0,0.0,-3.5504,-3.5504,-3.5504,-3.5504,-3.5504,-3.5504,-3.5504,-3.5504,-3.5504,-3.5489,-3.5355,-3.4891,-3.4324,-3.4324,-3.3948,-3.3484,-0.7745,-0.8062,-0.8174,-0.7949,-0.7899,-0.7899,-0.7899,-0.7899,-0.8147,-0.8815,-0.9458,-1.0219,-1.1196,-1.164,-1.2104,-1.2747,-1.3107,-1.426,-1.6547,-1.701,-1.7803,-1.9136,-1.9528,-2.0337,-2.1665,-2.1695,-2.2323,-2.3595,-2.3595,-2.3595,-2.3595,-2.3595,-2.3595,-2.3595,-2.3595,-2.3595,-2.3595,-2.3595,-2.3595,-2.3595,-2.3595,-2.3415,-2.3122,-2.2808,-2.2283,-2.1605,-2.0946,-2.0479,-2.0154,-1.9813,-1.9241,-1.8642,-1.8313,-1.776,-1.6937,0.0,0.0,0.0,0.0,0.0,0.0,0.0,0.0,0.0,0.0,0.0,0.0,0.0,0.0,-2.0724,0.0,0.0,-2.5031,-2.7235,-2.8412,-2.9385,-3.0357,-3.0806,-3.0987,-3.0987,-3.1301,-3.1765,-3.2422,-3.2811,-3.341,-3.4429,-3.4801,-3.5145,-3.5489,-3.5504,-3.5504,-3.5504,-3.5504,-3.5504,-3.5504,-3.5504,-3.5504,-3.5504,-3.5504,-3.5504,-3.5504,-3.5504,-3.5504,-3.5504,-3.5504,-3.5504,-3.5504,-3.5504,-3.5504,-3.5504,-3.5504,-3.5295,-3.4996,-3.4996,-3.4786,-3.4457,-0.8315,-0.824,-0.8056,-0.792,-0.7899,-0.7899,-0.7899,-0.7899,-0.8094,-0.8634,-0.8815,-0.9287,-1.0314,-1.0114,-1.0204,-1.0927,-1.173,-1.3468,-1.6502,-1.6816,-1.7727,-1.9618,-1.9708,-2.0337,-2.1665,-2.1695,-2.2323,-2.3595,-2.3595,-2.3595,-2.3595,-2.3595,-2.3595,-2.3595,-2.3595,-2.3595,-2.3595,-2.3595,-2.3595,-2.3595,-2.3595,-2.3595,-2.3535,-2.2927,-2.2628,-2.2358,-2.1291,-2.0737,-2.0423,-1.9887,-1.9708,-1.9618,-1.9061,-1.8897,-1.8553,-1.6862,-1.6623,0.0,0.0,0.0,0.0,0.0,0.0,0.0,0.0,0.0,-2.0034,-2.1376,-2.2607,-2.3991,-2.5674,-2.6542,-2.741,-2.8757,-2.9834,-3.0552,-3.0687,-3.1152,-3.1511,-3.1511,-3.1511,-3.1809,-3.2632,-3.3185,-3.3829,-3.4622,-3.519,-3.5504,-3.5504,-3.5504,-3.5504,-3.5504,-3.5504,-3.5504,-3.5504,-3.5504,-3.5504,-3.5504,-3.5504,-3.5504,-3.5504,-3.5504,-3.5504,-3.5504,-3.5504,-3.5504,-3.5504,-3.5504,-3.5504,-3.5504,-3.5504,-3.5504,-3.5504,-3.5504,-3.5504,-3.5429,0.0,-0.824,-0.8056,-0.792,-0.7899,-0.7899,-0.7899,-0.7899,-0.7929,-0.8004,-0.8522,-0.895,-0.9092,-0.9593,-1.0383,-1.158,-1.2852,-1.447,-1.6562,-1.7264,-1.8222,-1.9648,-1.9708,-2.0337,-2.1665,-2.1695,-2.2323,-2.3595,-2.3595,-2.3595,-2.3595,-2.3595,-2.3595,-2.3595,-2.3595,-2.3595,-2.3595,-2.3595,-2.3595,-2.3595,-2.3595,-2.3595,-2.3535,-2.2927,-2.2328,-2.1784,-2.1635,-2.0812,-1.9813,-1.9738,-1.9708,-1.9693,-1.9618,-1.9588,-1.9438,-1.8612,0.0,-1.7564,-1.7414,-1.7429,-1.7773,-1.8974,-1.9318,-2.0124,0.0,0.0,-2.343,-2.4792,-2.5644,-2.6417,-2.7225,-2.7919,-2.8801,-3.0088,-3.0417,-3.0717,-3.1301,-3.1451,-3.1511,-3.1511,-3.1511,-3.1989,-3.326,-3.3455,-3.4023,-3.5295,-3.5459,-3.5504,-3.5504,-3.5504,-3.5504,-3.5504,-3.5504,-3.5504,-3.5504,-3.5504,-3.5504,-3.5504,-3.5504,-3.5504,-3.5504,-3.5504,-3.5504,-3.5504,-3.5504,-3.5504,-3.5504,-3.5504,-3.5504,-3.5504,-3.5504,-3.5504,-3.5504,-3.5504,-3.5504,-3.5489,0.0,-0.8335,-0.822,-0.8044,-0.7956,-0.7899,-0.7899,-0.7899,-0.7899,-0.7899,-0.8147,-0.8312,-0.8312,-0.8574,-0.927,-1.0578,-1.188,-1.3645,-1.6024,-1.713,-1.8296,-1.9648,-1.9708,-2.0139,-2.1111,-2.15,-2.2143,-2.3077,-2.343,-2.3595,-2.3595,-2.3595,-2.3595,-2.3595,-2.3595,-2.3595,-2.3595,-2.3595,-2.3595,-2.3595,-2.3595,-2.3385,-2.3062,-2.2808,-2.2044,-2.1126,-2.1126,-2.0767,0.0,-1.9842,-1.9708,-1.9708,-1.9708,-1.942,-1.9061,-1.8792,-1.8777,0.0,-1.9824,-2.0318,0.0,0.0,-2.1994,-2.29,-2.4291,-2.4679,-2.5031,-2.5989,-2.6992,-2.7795,-2.8115,-2.902,-2.9867,0.0,-3.0836,-3.1182,-3.1466,-3.1511,-3.1361,-3.0957,-3.1256,-3.1869,-3.2841,-3.3275,-3.3888,-3.4846,-3.528,-3.5504,-3.5504,-3.5504,-3.5504,-3.5504,-3.5504,-3.5504,-3.5504,-3.5504,-3.5504,-3.5504,-3.5504,-3.5504,-3.5504,-3.5504,-3.5504,-3.5504,-3.5504,-3.5504,-3.5504,-3.5504,-3.5504,-3.5504,-3.5504,-3.5504,-3.5504,-3.5504,-3.5504,-3.5504,0.0,-0.8441,-0.8354,-0.8205,-0.8051,-0.7963,-0.7963,-0.792,-0.7899,-0.7899,-0.7899,-0.7899,-0.7899,-0.7899,-0.8431,-0.9785,-1.0907,-1.2658,-1.5349,-1.6712,-1.8027,-1.9378,-1.9603,-2.0004,-2.0688,-2.1186,-2.1739,-2.2418,-2.2862,-2.3161,-2.334,-2.334,-2.343,-2.3595,-2.3595,-2.3595,-2.3595,-2.3595,-2.349,-2.334,-2.334,-2.305,-2.2571,-2.2375,-2.1667,-2.0737,-2.0497,-2.0318,-2.0064,-1.9375,-1.9151,-1.9151,-1.9151,-1.8942,-1.8747,-1.8927,-1.957,-2.0453,-2.144,0.0,0.0,-2.3422,-2.4462,-2.5435,-2.5435,-2.6086,-2.6747,-2.7049,-2.8158,-2.8993,-2.8859,-2.9751,0.0,-3.0498,-3.0898,-3.1286,-3.1481,-3.1346,-3.1107,-3.0821,-3.1032,-3.1481,-3.2153,-3.2841,-3.3574,-3.4444,-3.4936,-3.5295,-3.5489,-3.5504,-3.5504,-3.5504,-3.5504,-3.5504,-3.5504,-3.5504,-3.5504,-3.5504,-3.5504,-3.5504,-3.5504,-3.5504,-3.5504,-3.5504,-3.5504,-3.5504,-3.5504,-3.5504,-3.5504,-3.5504,-3.5504,-3.5504,-3.5504,-3.5504,-3.5504,-3.5504,0.0,0.0,-0.8403,-0.8387,-0.8234,-0.8088,-0.8088,-0.7983,-0.7899,-0.7899,-0.7899,-0.7899,-0.7899,-0.7899,-0.8431,-0.9785,-1.0464,-1.1973,-1.4648,-1.601,-1.7324,-1.8672,-1.9346,-2.0004,-2.0688,-2.0718,-2.1066,-2.1724,-2.1739,-2.2104,-2.2718,-2.2718,-2.3047,-2.3595,-2.3595,-2.3595,-2.3595,-2.3595,-2.3251,-2.2718,-2.2718,-2.2561,-2.2231,-2.1589,-2.1172,-2.0794,-2.0008,-1.9301,-1.8672,-1.7997,-1.7773,-1.7773,-1.7773,-1.8192,0.0,-1.9483,-2.0587,-2.165,0.0,0.0,-2.3879,-2.5196,-2.6512,-2.751,-2.751,-2.8469,-2.9206,-2.8572,-2.9462,-3.0149,-2.9568,-3.0041,-3.0514,-3.0498,-3.0522,-3.0776,-3.1406,-3.0928,-3.0748,-3.1391,-3.0898,-3.0806,0.0,-3.2123,-3.308,-3.4414,-3.4533,-3.4801,-3.5474,-3.5504,-3.5504,-3.5504,-3.5504,-3.5504,-3.5504,-3.5504,-3.5504,-3.5504,-3.5504,-3.5504,-3.5504,-3.5504,-3.5504,-3.5504,-3.5504,-3.5504,-3.5504,-3.5504,-3.5504,-3.5504,-3.5504,-3.5504,-3.5504,-3.5504,-3.5504,-3.5504,0.0,0.0,0.0,-0.8409,-0.824,-0.8095,-0.8095,-0.8063,-0.8037,-0.8037,-0.8037,0.0,0.0,0.0,0.0,0.0,-1.0358,-1.1831,-1.3619,-1.5606,-1.6986,-1.7608,-1.8751,-1.9518,-1.9831,-2.0671,-2.1204,-2.1433,-2.1889,-2.2065,-2.2044,-2.2044,-2.2143,-2.2338,-2.2338,-2.2338,-2.2338,-2.2338,-2.2493,-2.2658,-2.2224,-2.2137,-2.2238,-2.1564,-2.0862,-2.013,0.0,-1.8999,-1.8734,-1.85,-1.8254,-1.8113,-1.8538,0.0,0.0,-1.9361,-2.0647,-2.1874,0.0,0.0,-2.5255,-2.6572,-2.7944,-2.8907,-2.8872,-2.9528,-2.9832,-2.8607,-2.9048,-2.9151,-2.7704,-2.8678,-2.9606,-2.9275,-2.9953,-3.0746,-3.1406,-3.1316,-3.1077,-3.0853,-3.1017,0.0,0.0,0.0,0.0,-3.3769,-3.4264,-3.4771,-3.5474,-3.5504,-3.5504,-3.5504,-3.5504,-3.5504,-3.5504,-3.5504,-3.5504,-3.5504,-3.5504,-3.5504,-3.5504,-3.5504,-3.5504,-3.5504,-3.5504,-3.5504,-3.5504,-3.5504,-3.5504,-3.5504,-3.5504,-3.5504,-3.5504,-3.5504,-3.5504,-3.5504,0.0,0.0,0.0,0.0,0.0,0.0,0.0,0.0,0.0,0.0,0.0,0.0,0.0,0.0,0.0,0.0,0.0,0.0,-1.2842,-1.4593,-1.5968,-1.6931,-1.7787,-1.8408,-1.8764,-1.9294,-1.9757,-2.0167,-2.058,-2.0993,-2.135,-2.148,-2.1616,-2.1714,-2.2033,-2.2075,-2.192,-2.192,-2.2026,-2.2132,-2.1428,-2.1283,-2.1372,-2.0822,-2.0159,0.0,-1.9048,-1.8627,-1.8242,-1.7991,-1.7889,-1.793,-1.822,-1.836,-1.8687,-2.0019,-2.1205,-2.2428,-2.4193,-2.53,-2.6405,-2.8203,-2.929,-2.9912,-2.9835,-3.0115,-2.9992,-2.8527,-2.8476,-2.8181,-2.6506,-2.7105,-2.798,-2.8394,-2.9012,-2.9939,-3.1316,-3.1286,-3.1152,-3.1225,-3.1376,0.0,0.0,0.0,0.0,-3.3469,-3.4098,-3.4771,-3.5474,-3.5504,-3.5504,-3.5504,-3.5504,-3.5504,-3.5504,-3.5504,-3.5504,-3.5504,-3.5504,-3.5504,-3.5504,-3.5504,-3.5504,-3.5504,-3.5504,-3.5504,-3.5504,-3.5504,-3.5504,-3.5504,-3.5504,-3.5504,-3.5504,-3.5504,-3.5504,-3.5504,0.0,0.0,0.0,0.0,0.0,0.0,0.0,0.0,0.0,0.0,0.0,0.0,0.0,0.0,0.0,0.0,0.0,0.0,-1.2224,-1.3071,-1.4395,-1.6419,-1.6491,-1.6799,-1.7519,-1.6876,-1.7028,-1.8053,-1.81,-1.8933,-2.0535,-2.0967,-2.1299,-2.1583,-2.2426,-2.2537,-2.2118,-2.2118,-2.1781,-2.1149,-2.0414,-2.0045,-1.9903,-1.9526,-1.9192,-1.8894,-1.8882,-1.8203,-1.7211,-1.6599,0.0,0.0,0.0,0.0,0.0,-2.1385,-2.2298,-2.3437,-2.5937,-2.6686,-2.7408,-2.9884,-3.0541,-3.0567,-3.0433,-3.0297,-2.9769,-2.8329,-2.7851,-2.7278,0.0,0.0,-2.5857,-2.7797,-2.7864,-2.8569,-3.1092,-3.0943,-3.1076,0.0,0.0,0.0,0.0,0.0,0.0,-3.3544,0.0,-3.4771,-3.5474,-3.5504,-3.5504,-3.5504,-3.5504,-3.5504,-3.5504,-3.5504,-3.5504,-3.5504,-3.5504,-3.5504,-3.5504,-3.5504,-3.5504,-3.5504,-3.5504,-3.5504,-3.5504,-3.5504,-3.5504,-3.5504,-3.5504,-3.5504,-3.5504,-3.5504,-3.5504,-3.5504,0.0,0.0,0.0,0.0,0.0,0.0,0.0,0.0,0.0,0.0,0.0,0.0,0.0,0.0,0.0,0.0,0.0,0.0,-1.0455,-1.2323,-1.3552,-1.3871,-1.5371,-1.6305,-1.6556,-1.6861,-1.7167,-1.7432,-1.7993,-1.83,-1.8423,-1.9107,-1.9468,-1.9562,-1.9767,-1.9798,-1.9689,-1.9689,-1.9846,-2.0051,-1.9421,-1.9602,-2.0199,-1.961,-1.9192,-1.887,-1.861,-1.8009,0.0,0.0,0.0,0.0,0.0,0.0,-2.1999,0.0,0.0,-2.5758,-2.6408,-2.806,-2.9724,-3.0366,-3.126,-3.1674,-3.0521,-3.0191,-2.9542,-2.7478,-2.6573,-2.5765,0.0,0.0,0.0,-2.6669,-2.7968,0.0,-3.0593,-3.148,0.0,0.0,0.0,-3.3125,-3.3469,-3.3933,0.0,0.0,-3.4414,-3.4771,-3.5474,-3.5504,-3.5504,-3.5504,-3.5504,-3.5504,-3.5504,-3.5504,-3.5504,-3.5504,-3.5504,-3.5504,-3.5504,-3.5504,-3.5504,-3.5504,-3.5504,-3.5504,-3.5504,-3.5504,-3.5504,-3.5504,-3.5504,-3.5504,-3.5504,-3.5504,-3.5504,-3.5504,0.0,0.0,0.0,0.0,0.0,0.0,0.0,0.0,0.0,0.0,0.0,0.0,0.0,0.0,0.0,0.0,0.0,0.0,0.0,-1.1165,-1.2277,-1.3079,-1.3953,-1.4741,-1.545,-1.5817,-1.6083,-1.6219,-1.6966,-1.7207,-1.6954,-1.7736,-1.7928,-1.7647,-1.8146,-1.8253,-1.8092,-1.8092,-1.8288,0.0,0.0,-1.7976,-1.8464,-1.793,-1.7629,-1.7456,-1.7437,0.0,0.0,0.0,0.0,-2.0488,-2.0888,-2.1969,-2.3212,-2.3789,0.0,-2.722,-2.8118,-2.9642,-3.1047,-3.1284,-3.1429,-3.1155,-2.9962,-2.912,-2.7977,-2.571,-2.4915,0.0,0.0,0.0,0.0,0.0,0.0,0.0,-3.0293,-3.1659,-3.2617,0.0,-3.3529,0.0,-3.4805,-3.52,-3.5569,0.0,-3.5334,-3.51,-3.5489,-3.5504,-3.5504,-3.5504,-3.5504,-3.5504,-3.5504,-3.5504,-3.5504,-3.5504,-3.5504,-3.5504,-3.5504,-3.5504,-3.5504,-3.5504,0.0,-3.5504,-3.5504,-3.5504,-3.5504,-3.5504,-3.5504,-3.5504,-3.5504,-3.5504,-3.5504,-3.5504,0.0,0.0,0.0,0.0,0.0,0.0,0.0,0.0,0.0,0.0,0.0,0.0,0.0,0.0,0.0,0.0,0.0,0.0,0.0,0.0,-1.0927,-1.3007,-1.2575,-1.294,-1.4318,-1.4351,-1.4505,-1.4791,-1.5528,-1.5887,-1.5891,-1.6641,-1.6649,-1.6084,-1.7075,-1.7299,-1.6997,-1.6997,-1.6997,-1.6919,-1.6289,-1.6031,-1.5999,0.0,-1.5595,-1.5657,0.0,0.0,0.0,0.0,-1.966,-2.1081,-2.2403,-2.3344,-2.4213,-2.5398,-2.6795,-2.835,-3.0124,-3.1184,-3.1861,-3.2302,-3.144,-3.0191,-2.9084,-2.7588,-2.5811,-2.368,0.0,-2.2378,-2.0504,0.0,-2.2656,-2.4504,0.0,-2.754,-3.0041,-3.1614,-3.2781,-3.3562,-3.4314,-3.529,-3.6614,-3.6768,-3.6994,-3.7602,-3.6492,-3.5765,-3.5636,-3.5554,-3.5504,-3.5504,-3.5504,-3.5504,-3.5504,-3.5504,-3.5504,-3.5504,-3.5504,-3.5504,-3.5504,-3.5504,-3.5504,-3.5504,0.0,0.0,-3.5504,-3.5504,-3.5504,-3.5504,-3.5504,-3.5504,-3.5504,-3.5504,-3.5504,-3.5504,0.0,0.0,0.0,0.0,0.0,0.0,0.0,0.0,0.0,0.0,-0.9252,-0.8869,0.0,0.0,0.0,0.0,0.0,0.0,0.0,0.0,0.0,-1.1458,-1.2009,-1.2711,-1.3574,0.0,0.0,0.0,0.0,-1.479,-1.4781,-1.553,-1.5814,-1.5704,-1.5886,-1.5937,-1.5876,-1.5876,-1.5876,-1.5876,-1.5741,-1.5681,-1.5674,-1.5626,0.0,0.0,0.0,0.0,0.0,0.0,-1.9959,-2.1754,-2.3026,-2.4611,-2.605,-2.6335,-2.8091,-3.0006,-3.0489,-3.1853,-3.303,-3.2524,-3.2169,-3.124,-2.86,-2.6387,0.0,0.0,0.0,-2.0673,-2.094,-2.1692,0.0,-2.4602,0.0,0.0,0.0,0.0,-3.302,0.0,0.0,0.0,0.0,0.0,0.0,0.0,0.0,-3.7115,-3.6446,-3.5831,-3.5504,-3.5504,-3.5504,-3.5504,-3.5504,-3.5504,-3.5504,-3.5504,-3.5504,-3.5504,-3.5504,-3.5504,-3.5504,-3.5504,-3.5504,0.0,-3.5504,-3.5504,-3.5504,-3.5504,-3.5504,-3.5504,-3.5504,-3.5504,-3.5504,-3.5504,0.0,0.0,0.0,0.0,0.0,0.0,0.0,-0.9472,-0.9743,-1.0487,-1.0257,-0.9901,-0.9506,-0.9128,-0.8897,0.0,0.0,0.0,0.0,0.0,0.0,0.0,0.0,-1.2051,0.0,0.0,0.0,0.0,0.0,0.0,0.0,0.0,0.0,0.0,0.0,0.0,0.0,-1.4454,-1.4454,0.0,0.0,0.0,0.0,0.0,0.0,0.0,0.0,0.0,0.0,0.0,-1.9875,-2.1544,-2.3113,-2.4913,-2.6523,-2.6964,-2.8635,-3.0447,-3.0874,-3.1941,-3.2794,-3.2443,-3.114,-2.9482,-2.7638,0.0,0.0,0.0,0.0,-1.9879,-1.9502,0.0,0.0,0.0,0.0,0.0,0.0,0.0,0.0,0.0,0.0,0.0,0.0,0.0,0.0,0.0,0.0,-3.7294,-3.6086,-3.5701,-3.5504,-3.5504,-3.5863,-3.5894,-3.5504,-3.5894,-3.5894,-3.5504,-3.5504,-3.5504,-3.5504,-3.5504,-3.5504,-3.5504,-3.5504,0.0,-3.5504,-3.5504,-3.5504,-3.5504,-3.5504,-3.5504,-3.5504,-3.5504,-3.5504,-3.5504,0.0,0.0,0.0,0.0,0.0,0.0,0.0,-0.9906,-1.0261,-1.0994,-1.1103,-1.089,-1.034,-0.9598,-0.9078,0.0,0.0,0.0,0.0,0.0,0.0,0.0,0.0,0.0,0.0,0.0,0.0,0.0,0.0,0.0,0.0,0.0,0.0,0.0,0.0,0.0,0.0,0.0,0.0,0.0,0.0,0.0,0.0,0.0,0.0,0.0,0.0,0.0,0.0,0.0,-1.9353,-2.0616,-2.2247,-2.4415,-2.6422,-2.7007,-2.8646,-3.039,-3.1,-3.1713,-3.2293,-3.2293,-3.0159,-2.7773,-2.6708,-2.4188,0.0,0.0,-1.9642,-1.9208,-1.8222,0.0,0.0,0.0,0.0,0.0,0.0,0.0,0.0,0.0,0.0,0.0,0.0,0.0,0.0,0.0,0.0,0.0,-3.5587,-3.5829,-3.591,-3.5718,-3.6461,-3.6585,-3.599,-3.6399,-3.6306,-3.5718,-3.5587,-3.5504,-3.5504,-3.5504,-3.5504,-3.5504,-3.5504,0.0,0.0,-3.5504,-3.5504,-3.5504,-3.5504,-3.5504,-3.5504,-3.5504,-3.5504,-3.5504,0.0,0.0,0.0,0.0,0.0,0.0,0.0,-0.9574,-1.0261,-1.0994,-1.1103,-1.1117,-1.1159,-1.0412,-0.9624,0.0,0.0,0.0,0.0,0.0,0.0,0.0,0.0,0.0,0.0,0.0,0.0,0.0,0.0,0.0,0.0,0.0,0.0,0.0,0.0,0.0,0.0,0.0,0.0,0.0,0.0,0.0,0.0,0.0,0.0,0.0,0.0,0.0,0.0,0.0,0.0,-1.8641,-1.972,-2.2807,-2.605,-2.613,0.0,0.0,-3.0357,-3.1324,-3.2293,-3.2293,-3.0584,-2.8333,-2.6201,0.0,0.0,-1.9329,-1.8471,-1.8172,-1.8691,-1.8988,0.0,0.0,0.0,-2.3813,0.0,0.0,0.0,0.0,0.0,0.0,0.0,0.0,0.0,0.0,0.0,0.0,-3.5587,-3.6829,-3.7249,-3.6523,-3.7279,-3.7677,-3.7589,-3.695,-3.6584,-3.6492,-3.5814,-3.5504,-3.5504,-3.5504,-3.5504,-3.5504,-3.5504,0.0,0.0,-3.5504,-3.5504,-3.5504,-3.5504,-3.5504,-3.5504,-3.5504,-3.5504,-3.5504,0.0,0.0,0.0,0.0,0.0,0.0,-0.9489,-0.9804,-1.0261,-1.0994,-1.1592,-1.1751,-1.1244,-1.1056,-1.047,-0.9239,0.0,0.0,0.0,0.0,0.0,0.0,0.0,0.0,0.0,0.0,0.0,0.0,0.0,0.0,0.0,0.0,0.0,0.0,0.0,0.0,0.0,0.0,0.0,0.0,0.0,0.0,0.0,0.0,0.0,0.0,0.0,0.0,0.0,0.0,0.0,0.0,-1.9028,-2.101,0.0,0.0,-2.6601,-2.8346,-2.9789,-3.0578,-3.097,-3.097,-2.9279,-2.7148,-2.5354,0.0,-2.0179,-1.9113,-1.8318,-1.7884,-1.8172,-1.8606,-1.9282,-2.0451,-2.1014,-2.2362,0.0,0.0,0.0,0.0,0.0,0.0,0.0,0.0,0.0,0.0,0.0,0.0,-3.6981,-3.7472,-3.7661,-3.7322,-3.8076,-3.8262,-3.7806,-3.7917,-3.7526,-3.6615,-3.6306,-3.5926,-3.5504,-3.5943,-3.5926,-3.5537,-3.5975,0.0,0.0,-3.5504,-3.5504,-3.5504,-3.5504,-3.5504,-3.5504,-3.5504,-3.5504,-3.5504,0.0,0.0,0.0,0.0,0.0,-0.9095,-0.965,-0.9917,-1.0252,-1.0816,-1.165,-1.1981,-1.1367,-1.1281,-1.0826,-0.9804,-0.9374,0.0,0.0,0.0,0.0,0.0,0.0,0.0,0.0,0.0,0.0,0.0,0.0,0.0,0.0,0.0,0.0,0.0,0.0,0.0,0.0,0.0,0.0,0.0,0.0,0.0,0.0,0.0,0.0,0.0,0.0,0.0,0.0,0.0,0.0,0.0,0.0,0.0,0.0,0.0,-2.4995,-2.6488,-2.8535,-2.9244,-2.9482,-2.9719,-2.8061,-2.5981,0.0,0.0,-1.9727,-1.8775,-1.8155,-1.78,-1.78,-1.8217,-1.8757,-1.9306,-1.9937,-2.1389,-2.4325,0.0,0.0,0.0,0.0,0.0,0.0,0.0,0.0,0.0,0.0,0.0,0.0,-3.8486,-3.8374,-3.8149,-3.887,-3.9005,-3.8502,-3.8745,-3.8353,-3.7277,-3.7054,-3.6569,-3.5831,-3.66,-3.643,-3.5537,0.0,0.0,0.0,-3.5504,-3.5504,-3.5504,-3.5504,-3.5504,-3.5504,-3.5504,-3.5504,-3.5504,0.0,0.0,0.0,0.0,0.0,0.0,-0.9085,-0.9737,-1.025,-1.038,-1.1054,-1.1571,-1.1772,-1.096,-1.05,-1.0677,-0.9828,0.0,0.0,0.0,0.0,0.0,0.0,0.0,0.0,0.0,-1.2677,-1.3396,-1.4141,0.0,0.0,0.0,0.0,0.0,0.0,0.0,0.0,0.0,0.0,0.0,0.0,0.0,0.0,0.0,0.0,0.0,0.0,0.0,0.0,0.0,0.0,0.0,0.0,0.0,0.0,0.0,-2.3376,-2.4846,-2.6336,-2.7283,-2.801,-2.8824,-2.73,-2.5236,0.0,-2.1637,-1.9579,-1.8121,-1.78,-1.78,-1.78,-1.78,-1.8173,-1.924,-1.974,-2.0969,-2.3717,0.0,0.0,0.0,0.0,0.0,0.0,0.0,0.0,0.0,0.0,0.0,0.0,-4.0087,-3.9714,-3.8908,-3.9662,-4.007,-4.0087,-3.9289,-3.8881,-3.8881,-3.8149,-3.7368,-3.6615,-3.7427,-3.6951,0.0,0.0,0.0,0.0,-3.5504,-3.5504,-3.5504,-3.5504,-3.5504,-3.5504,-3.5504,-3.5504,-3.5504,0.0,0.0,0.0,0.0,0.0,0.0,0.0,-0.9429,-0.9593,-0.965,-1.0405,-1.093,-1.0843,-1.0782,-1.0638,-1.0386,-0.9706,0.0,0.0,0.0,0.0,0.0,0.0,0.0,0.0,0.0,-1.2906,-1.4157,-1.4385,-1.4639,0.0,0.0,0.0,0.0,0.0,0.0,0.0,0.0,0.0,0.0,0.0,0.0,0.0,0.0,0.0,0.0,0.0,0.0,0.0,0.0,0.0,0.0,0.0,0.0,0.0,-1.8645,-2.1025,0.0,-2.4171,-2.4983,-2.5473,-2.522,-2.4628,-2.3579,-2.1536,-2.0521,-1.9579,-1.8104,-1.78,-1.78,-1.78,-1.78,-1.8325,-1.991,-2.0265,-2.1191,0.0,0.0,0.0,0.0,0.0,0.0,0.0,0.0,0.0,0.0,0.0,0.0,0.0,-4.0096,-3.9978,-3.9731,-3.9969,-4.0096,-4.0096,-3.985,-3.9437,-3.8908,-3.8663,-3.8145,-3.7456,-3.8218,0.0,0.0,0.0,0.0,0.0,-3.7055,-3.6738,-3.6244,-3.6244,-3.6244,-3.6244,-3.6244,-3.6615,-3.7055,0.0,0.0,0.0,0.0,0.0,0.0,0.0,-0.9376,-0.9394,-0.9439,-0.9956,-1.0395,-1.0573,-1.0504,-1.044,-1.0383,-0.9716,0.0,0.0,0.0,0.0,0.0,0.0,0.0,-1.1079,-1.1891,-1.3016,-1.4504,-1.4774,-1.5155,-1.5595,-1.5409,-1.5028,0.0,0.0,0.0,0.0,0.0,0.0,0.0,0.0,0.0,0.0,0.0,0.0,0.0,0.0,0.0,0.0,0.0,0.0,0.0,0.0,0.0,0.0,0.0,-1.8273,-2.0534,0.0,-2.2917,-2.3204,-2.3021,-2.2767,-2.2107,-2.039,-1.9778,-1.9253,-1.8053,-1.78,-1.78,-1.78,-1.7692,-1.8143,-1.9816,-2.0099,0.0,0.0,0.0,0.0,0.0,0.0,0.0,0.0,0.0,0.0,0.0,0.0,0.0,0.0,-4.0096,-4.0096,-4.0096,-4.0096,-4.0096,-4.0096,-4.0096,-3.985,-3.9342,-3.9342,-3.8951,-3.8246,-3.9005,0.0,0.0,0.0,0.0,0.0,-3.7793,-3.7515,-3.7054,-3.7054,-3.7054,-3.7054,-3.7054,-3.7194,-3.7377,0.0,0.0,0.0,0.0,0.0,0.0,0.0,-0.9517,-0.9554,-0.9687,-0.9702,-0.9988,-1.0728,-1.0153,-0.9948,-1.0557,0.0,0.0,0.0,0.0,0.0,0.0,0.0,0.0,-1.1018,-1.1806,-1.2973,-1.4504,-1.524,-1.568,-1.5849,-1.6434,-1.5977,-1.4656,0.0,0.0,0.0,0.0,0.0,0.0,0.0,0.0,0.0,0.0,0.0,0.0,0.0,0.0,0.0,0.0,0.0,0.0,0.0,0.0,0.0,0.0,0.0,0.0,0.0,-2.0886,0.0,0.0,-2.1478,-2.0835,-2.0031,-1.9338,0.0,-1.7952,-1.78,-1.7817,-1.7867,-1.7616,-1.791,-1.9358,0.0,0.0,0.0,0.0,0.0,0.0,0.0,0.0,0.0,0.0,0.0,0.0,0.0,0.0,0.0,-4.0096,-4.0096,-4.0096,-4.0096,-4.0096,-4.0096,-4.0096,-4.0096,-4.0096,-4.0096,-3.9714,-3.9016,-3.9756,0.0,0.0,0.0,0.0,0.0,-3.795,-3.7921,-3.7863,-3.7863,-3.7847,-3.7799,-3.7799,-3.7379,-3.6781,0.0,0.0,0.0,0.0,0.0,0.0,0.0,0.0,0.0,0.0,-0.9702,-0.9772,-0.9951,-0.9808,-0.9733,0.0,0.0,0.0,0.0,0.0,0.0,0.0,0.0,0.0,-1.0244,-1.0994,-1.2415,-1.4504,-1.524,-1.6458,-1.8099,-1.7145,-1.6529,-1.613,-1.4994,-1.409,0.0,0.0,0.0,0.0,0.0,0.0,0.0,0.0,0.0,0.0,0.0,0.0,0.0,0.0,0.0,0.0,0.0,0.0,0.0,0.0,-1.474,-1.5281,-1.6559,0.0,-1.8504,-1.811,-1.8736,-1.9232,0.0,-1.8623,-1.8691,-1.7952,-1.78,-1.7969,-1.8538,-1.8581,-1.9206,0.0,0.0,0.0,0.0,0.0,0.0,0.0,0.0,0.0,0.0,0.0,0.0,0.0,0.0,0.0,0.0,-4.0096,-4.0096,-4.0096,-4.0096,-4.0096,-4.0096,-4.0096,-4.0096,-4.0096,-4.0096,-3.9995,-3.9808,-4.002,0.0,0.0,0.0,0.0,-3.9558,-3.9558,-3.9183,-3.8635,-3.8635,-3.8308,-3.7807,-3.7807,-3.7725,-3.7619,0.0,0.0,0.0,0.0,0.0,0.0,0.0,0.0,0.0,0.0,0.0,-0.9702,-0.9702,-0.9702,0.0,0.0,0.0,0.0,0.0,0.0,0.0,0.0,0.0,-0.9241,-0.9984,-1.0724,-1.2229,-1.4504,-1.524,-1.6559,-1.8386,-1.7574,-1.6841,-1.613,-1.4648,-1.3777,0.0,0.0,0.0,0.0,0.0,0.0,0.0,0.0,0.0,0.0,0.0,-1.2927,0.0,-1.3701,-1.3718,-1.3537,0.0,0.0,0.0,0.0,-1.4005,-1.4073,-1.4488,-1.6153,-1.7698,-1.7304,-1.8059,-1.8804,-1.8403,-1.8352,-1.8285,0.0,0.0,0.0,0.0,0.0,0.0,0.0,0.0,0.0,0.0,0.0,0.0,0.0,0.0,0.0,0.0,0.0,0.0,0.0,0.0,0.0,0.0,-3.9089,-3.9089,-3.9089,-3.9089,-3.9436,-4.0096,-4.0096,-4.0096,-4.0096,-4.0096,-4.0096,-4.0096,-4.0096,-4.0096,0.0,0.0,0.0,-4.0096,-4.0096,-3.9648,-3.8937,-3.8937,-3.8503,-3.7844,-3.7844,-3.7658,-3.7398,0.0,0.0,0.0,0.0,0.0,0.0,0.0,0.0,0.0,0.0,0.0,0.0,0.0,0.0,0.0,0.0,0.0,0.0,0.0,0.0,0.0,0.0,0.0,-0.9264,-0.9984,-1.0724,-1.2162,-1.4334,-1.5291,-1.6475,-1.78,-1.7918,-1.7117,-1.5544,-1.4183,-1.3515,0.0,0.0,0.0,0.0,0.0,0.0,0.0,0.0,0.0,0.0,0.0,0.0,0.0,-1.3812,-1.393,-1.3699,-1.4203,0.0,0.0,0.0,0.0,0.0,-1.3667,-1.5714,-1.7749,-1.7512,-1.8268,-1.9046,-1.8927,0.0,0.0,0.0,0.0,0.0,0.0,0.0,0.0,0.0,0.0,0.0,0.0,0.0,0.0,0.0,0.0,0.0,0.0,0.0,0.0,0.0,0.0,0.0,0.0,-3.7905,-3.7905,-3.7905,-3.7905,-3.8497,-3.9757,-3.9774,-3.9825,-3.9943,-3.9943,-3.9943,-3.9943,-4.0045,-3.9977,0.0,0.0,0.0,-3.9774,-3.9774,-3.9394,-3.8819,-3.8819,-3.8379,-3.7736,-3.7736,-3.7263,-3.6626,0.0,0.0,0.0,0.0,0.0,0.0,0.0,0.0,0.0,0.0,0.0,0.0,0.0,0.0,0.0,0.0,0.0,0.0,0.0,0.0,0.0,-0.9284,-0.9134,-0.9355,-0.999,-1.0724,-1.1915,-1.3574,-1.5564,-1.6976,-1.7817,-1.8437,-1.7608,-1.5561,-1.4706,-1.3988,-1.3396,0.0,0.0,0.0,0.0,0.0,0.0,0.0,0.0,0.0,0.0,0.0,0.0,-1.2749,-1.3154,-1.3619,-1.3708,0.0,0.0,0.0,0.0,0.0,-1.4928,-1.6509,-1.7495,-1.6255,-1.7901,-1.9676,-1.9046,-1.9287,0.0,0.0,0.0,0.0,0.0,0.0,0.0,0.0,0.0,0.0,0.0,0.0,0.0,0.0,0.0,0.0,0.0,0.0,0.0,0.0,0.0,0.0,0.0,-3.7905,-3.7905,-3.7905,-3.7905,-3.8024,-3.8244,-3.8244,-3.8548,-3.9157,-3.9157,-3.9157,-3.9174,-3.9825,-3.9436,0.0,0.0,-3.8802,-3.8244,-3.8244,-3.8176,-3.8075,-3.8075,-3.7618,-3.6981,-3.6981,-3.6468,-3.5769,0.0,0.0,0.0,0.0,0.0,0.0,0.0,0.0,0.0,0.0,0.0,0.0,0.0,0.0,0.0,0.0,0.0,0.0,0.0,0.0,-0.9654,-0.9776,-0.9794,-0.9864,-0.999,-1.1536,-1.2897,-1.3988,-1.5808,-1.7152,-1.8008,-1.7555,-1.6777,-1.5757,-1.4483,-1.3506,-1.2812,-1.2812,0.0,0.0,0.0,0.0,0.0,0.0,0.0,0.0,0.0,0.0,0.0,0.0,-1.2373,-1.2988,-1.2917,0.0,0.0,0.0,0.0,0.0,-1.4234,-1.5774,-1.7033,-1.6367,-1.8448,-2.0568,-2.0226,-2.0078,0.0,0.0,0.0,0.0,0.0,0.0,0.0,0.0,0.0,0.0,0.0,0.0,0.0,0.0,0.0,0.0,0.0,0.0,0.0,0.0,0.0,0.0,0.0,0.0,-3.6648,-3.6648,-3.6648,-3.6648,-3.6648,-3.6648,-3.7263,-3.8413,-3.8413,-3.8413,-3.8413,-3.8751,-3.8531,-3.7922,0.0,-3.821,-3.7905,-3.7905,-3.7669,-3.7297,-3.7297,-3.6823,-3.6146,-3.6146,-3.5926,-3.56,0.0,0.0,0.0,0.0,0.0,0.0,0.0,0.0,0.0,0.0,0.0,0.0,0.0,0.0,0.0,0.0,0.0,0.0,0.0,0.0,-0.9758,-0.9983,-1.0394,-1.0672,-1.0791,-1.2508,-1.3879,-1.4841,-1.6332,-1.7442,-1.8163,-1.6868,-1.5939,-1.5332,-1.3999,-1.288,-1.2026,-1.2026,-1.2026,0.0,0.0,0.0,0.0,0.0,0.0,0.0,0.0,0.0,0.0,0.0,0.0,0.0,0.0,0.0,0.0,-1.3396,-1.3396,-1.3481,-1.3811,-1.5276,-1.6783,-1.7128,-1.9075,-2.1021,-2.1376,-2.1109,-2.0893,0.0,0.0,0.0,0.0,0.0,0.0,0.0,0.0,0.0,0.0,0.0,0.0,0.0,0.0,0.0,0.0,0.0,0.0,0.0,0.0,0.0,0.0,0.0,-3.56,-3.56,-3.56,-3.56,-3.56,-3.56,-3.6276,-3.7652,-3.7652,-3.7652,-3.7652,-3.7821,-3.7702,-3.7381,-3.7567,-3.755,-3.7358,-3.7358,-3.7026,-3.6502,-3.6502,-3.6146,-3.56,-3.56,-3.56,-3.56,0.0,0.0,0.0,0.0,0.0,0.0,0.0,0.0,0.0,0.0,0.0,0.0,0.0,0.0,0.0,0.0,0.0,0.0,0.0,0.0,-0.9475,-0.9364,-1.0569,-1.1836,-1.3125,-1.3328,-1.4221,-1.5896,-1.7374,-1.8125,-1.818,-1.7389,-1.5796,-1.3574,-1.3455,-1.2583,-1.1188,-1.1188,-1.1188,-1.118,0.0,0.0,0.0,0.0,0.0,0.0,0.0,0.0,0.0,0.0,0.0,0.0,0.0,0.0,-1.3396,-1.3396,-1.3396,-1.3701,-1.508,-1.6062,-1.7037,-1.8398,-1.9423,-2.0458,-2.189,-2.2716,0.0,-2.4899,0.0,0.0,0.0,0.0,0.0,0.0,0.0,0.0,0.0,0.0,0.0,0.0,0.0,0.0,0.0,0.0,0.0,0.0,0.0,0.0,0.0,0.0,0.0,-3.56,-3.56,-3.56,-3.56,-3.56,-3.6045,-3.688,-3.688,-3.688,-3.6914,-3.7584,-3.7104,-3.5802,-3.6552,-3.6451,-3.5769,-3.5769,-3.5718,-3.5684,-3.5684,-3.565,-3.56,-3.56,-3.56,-3.56,0.0,0.0,0.0,0.0,0.0,0.0,0.0,0.0,0.0,0.0,0.0,0.0,0.0,0.0,0.0,0.0,0.0,0.0,0.0,-0.9585,-0.9695,-0.9847,-1.0435,-1.1389,-1.2751,-1.4246,-1.5556,-1.6678,-1.7497,-1.7843,-1.7732,-1.6457,-1.5303,-1.4304,-1.3684,-1.2812,-1.1806,-1.1316,-1.1103,-1.1018,-1.0104,0.0,0.0,0.0,0.0,0.0,0.0,0.0,0.0,0.0,-1.074,-1.1744,-1.1962,-1.2672,-1.3421,-1.3493,-1.3462,-1.354,-1.4187,-1.5507,-1.6942,-1.7963,-1.9118,0.0,0.0,-2.3224,-2.4372,-2.5389,-2.5964,0.0,0.0,0.0,0.0,0.0,0.0,0.0,0.0,0.0,0.0,0.0,0.0,0.0,0.0,0.0,0.0,0.0,0.0,0.0,0.0,0.0,0.0,-3.56,-3.56,-3.56,-3.56,-3.56,-3.5752,-3.6062,-3.6062,-3.6062,-3.6062,-3.6326,-3.614,-3.5616,-3.5926,-3.5893,-3.56,-3.56,-3.56,-3.56,-3.56,-3.56,-3.56,-3.56,-3.56,-3.56,0.0,0.0,0.0,0.0,0.0,0.0,0.0,0.0,0.0,0.0,0.0,0.0,0.0,0.0,0.0,0.0,0.0,0.0,-0.9513,-0.9593,-0.9735,-0.996,-1.0245,-1.0936,-1.2096,-1.4296,-1.579,-1.6528,-1.7156,-1.7211,-1.6716,-1.5614,-1.4863,-1.4381,-1.3471,-1.2778,-1.2229,-1.1197,-1.0758,-1.0639,-0.9399,-0.9196,0.0,0.0,0.0,0.0,0.0,0.0,0.0,0.0,-1.0011,-1.0886,-1.133,-1.2232,-1.3178,-1.3526,-1.3739,-1.3913,-1.4235,-1.5666,-1.723,-1.7963,0.0,0.0,-2.2511,-2.3886,-2.5186,-2.642,-2.7063,0.0,0.0,0.0,0.0,0.0,0.0,0.0,0.0,0.0,0.0,0.0,0.0,0.0,0.0,0.0,0.0,0.0,0.0,0.0,0.0,0.0,0.0,0.0,-3.56,-3.56,-3.56,-3.56,-3.56,-3.56,-3.56,-3.56,-3.56,-3.56,-3.56,-3.56,-3.56,-3.56,-3.56,-3.56,-3.56,-3.56,-3.56,-3.56,-3.56,-3.56,-3.56,-3.56,0.0,0.0,0.0,0.0,0.0,0.0,0.0,0.0,0.0,0.0,0.0,0.0,0.0,0.0,0.0,0.0,0.0,0.0,-0.9513,-0.9504,-0.9504,-0.9504,-1.0072,-1.0731,-1.1452,-1.3248,-1.4542,-1.53,-1.6349,-1.625,-1.5081,-1.5081,-1.4488,-1.3362,-1.2643,-1.2314,-1.2195,-1.0666,-1.0001,-0.995,-0.9213,-0.8914,0.0,0.0,0.0,0.0,0.0,0.0,0.0,0.0,-1.0083,-1.0449,-1.1851,-1.239,-1.2671,-1.3476,-1.4233,-1.4969,-1.5686,-1.6826,-1.798,0.0,0.0,0.0,-2.3773,-2.4861,-2.6268,-2.8553,0.0,-2.901,0.0,0.0,0.0,0.0,0.0,0.0,0.0,0.0,0.0,0.0,0.0,0.0,0.0,0.0,0.0,0.0,0.0,0.0,0.0,0.0,0.0,0.0,-3.5583,-3.5583,-3.5583,-3.5583,-3.5583,-3.5583,-3.56,-3.56,-3.56,-3.56,-3.56,-3.56,-3.56,-3.56,-3.56,-3.56,-3.56,-3.56,-3.56,-3.56,-3.56,-3.56,-3.56,-3.56,0.0,0.0,0.0,0.0,0.0,0.0,0.0,0.0,0.0,0.0,0.0,0.0,0.0,0.0,0.0,0.0,0.0,0.0,-0.9637,-0.9637,-0.9601,-0.9508,-0.9672,-0.9874,-1.0097,-1.1261,-1.3097,-1.5585,-1.5237,-1.4785,-1.4239,-1.357,-1.3327,-1.3388,-1.3271,-1.2879,-1.2237,-1.1363,-1.0897,-1.0707,-0.998,-0.9675,0.0,0.0,0.0,0.0,0.0,0.0,0.0,0.0,0.0,0.0,-1.1327,-1.2446,-1.3434,-1.3909,-1.4509,-1.5057,-1.522,-1.6614,0.0,-1.9391,0.0,0.0,0.0,-2.678,0.0,0.0,0.0,0.0,0.0,0.0,0.0,0.0,0.0,0.0,0.0,0.0,0.0,0.0,0.0,0.0,0.0,0.0,0.0,0.0,0.0,0.0,0.0,0.0,0.0,0.0,-3.4044,-3.4044,-3.4044,-3.4573,-3.4827,-3.4827,-3.5346,-3.56,-3.56,-3.56,-3.56,-3.56,-3.56,-3.56,-3.56,-3.56,-3.56,-3.56,-3.56,-3.56,-3.56,-3.56,-3.56,-3.56,0.0,0.0,0.0,0.0,0.0,0.0,0.0,0.0,0.0,0.0,0.0,0.0,0.0,0.0,0.0,0.0,0.0,0.0,0.0,-0.9702,-0.9671,-0.9589,-0.9589,-0.973,-1.0058,-1.0606,-1.1847,-1.3783,-1.3489,-1.337,-1.3419,-1.2784,-1.2984,-1.3837,-1.367,-1.3276,-1.2676,-1.1775,-1.1282,-1.1035,-1.0294,-1.0001,-1.0001,0.0,0.0,0.0,0.0,0.0,0.0,0.0,0.0,0.0,-1.0654,-1.1643,-1.274,-1.3873,-1.4661,-1.5452,-1.6694,0.0,0.0,-2.1324,-2.318,-2.5277,-2.7905,0.0,0.0,0.0,0.0,0.0,0.0,0.0,0.0,0.0,0.0,0.0,0.0,0.0,0.0,0.0,0.0,0.0,0.0,0.0,0.0,0.0,0.0,0.0,0.0,0.0,0.0,0.0,-3.3406,-3.3406,-3.3406,-3.3846,-3.4066,-3.4066,-3.4501,-3.4721,-3.4737,-3.5329,-3.56,-3.56,-3.56,-3.56,-3.56,-3.56,-3.56,-3.56,-3.56,-3.56,-3.5566,-3.5261,-3.5165,-3.5131,0.0,0.0,0.0,0.0,0.0,0.0,0.0,0.0,0.0,0.0,-0.9702,0.0,0.0,0.0,0.0,0.0,0.0,0.0,0.0,0.0,-0.9713,-0.9713,-0.9713,-1.0051,-1.0765,-1.0783,-1.0783,-1.0783,-1.1444,-1.2066,-1.2611,-1.2463,-1.3137,-1.4423,-1.3804,-1.3426,-1.3132,-1.1864,-1.1192,-1.0944,-1.0278,-1.0001,-1.0001,-1.0001,0.0,0.0,0.0,0.0,0.0,0.0,0.0,0.0,-1.0013,-1.0492,-1.1257,-1.3479,-1.4706,-1.5994,-1.9057,0.0,0.0,-2.3809,0.0,0.0,0.0,0.0,0.0,0.0,0.0,0.0,0.0,0.0,0.0,0.0,0.0,0.0,0.0,0.0,0.0,0.0,0.0,0.0,0.0,0.0,0.0,0.0,0.0,0.0,0.0,0.0,0.0,-3.3203,-3.3203,-3.3203,-3.3203,-3.3271,-3.3305,0.0,-3.3372,-3.3406,-3.3457,-3.4788,-3.5397,-3.5397,-3.5397,-3.5397,-3.5397,-3.5397,-3.5397,-3.5397,-3.5397,-3.5397,-3.5312,-3.4641,-3.4387,-3.4303,0.0,0.0,0.0,0.0,0.0,0.0,0.0,0.0,0.0,0.0,0.0,0.0,0.0,0.0,0.0,0.0,0.0,0.0,0.0,0.0,-0.9786,-0.9786,-0.9786,-0.9828,-0.9955,-0.9951,-0.9951,-0.9951,-1.0519,-1.1204,-1.1989,-1.1744,-1.2488,-1.4011,-1.3401,-1.2644,-1.1791,-1.1013,-1.0523,-1.0227,-1.0051,-1.0001,-1.0001,-1.0001,-0.954,0.0,0.0,0.0,0.0,0.0,0.0,0.0,-1.0305,-1.1072,-1.1895,-1.3132,-1.4501,-1.5991,-1.7728,-1.9228,0.0,0.0,0.0,0.0,0.0,0.0,0.0,0.0,0.0,0.0,0.0,0.0,0.0,0.0,0.0,0.0,0.0,0.0,0.0,0.0,0.0,0.0,0.0,0.0,0.0,0.0,0.0,0.0,0.0,0.0,0.0,-3.1664,-3.1664,-3.1664,-3.1664,-3.2259,-3.2547,0.0,-3.3119,-3.3406,-3.3423,-3.3744,-3.3858,-3.3858,-3.3858,-3.3858,-3.3858,-3.3858,-3.3858,-3.3858,-3.3858,-3.3858,-3.3842,-3.3711,-3.3643,-3.3609,0.0,0.0,0.0,0.0,0.0,0.0,0.0,0.0,0.0,0.0,0.0,0.0,0.0,0.0,0.0,0.0,0.0,0.0,0.0,-0.9789,-0.9811,-0.985,-0.9854,-0.9815,-0.975,-0.9747,-0.9725,-0.9702,-0.9915,-1.0636,-1.1812,-1.2381,-1.3302,-1.4456,-1.3836,-1.3015,-1.1991,-1.0945,-1.0347,-1.0083,-1.0032,-1.0001,-1.0001,-1.0001,-0.954,-0.8897,-0.8897,0.0,0.0,0.0,0.0,0.0,0.0,0.0,-1.1095,-1.236,-1.3587,-1.5123,0.0,0.0,0.0,0.0,0.0,0.0,0.0,0.0,0.0,0.0,0.0,0.0,0.0,0.0,0.0,0.0,0.0,0.0,0.0,0.0,0.0,0.0,0.0,0.0,0.0,0.0,0.0,0.0,0.0,0.0,0.0,-3.119,-3.119,-3.119,-3.119,-3.119,-3.119,-3.1562,-3.1769,-3.1785,-3.2154,-3.2357,-3.2374,-3.3085,-3.3406,-3.3406,-3.3406,-3.3406,-3.3406,-3.3406,-3.3406,-3.3406,-3.3406,-3.3406,-3.3372,-3.3,-3.2865,-3.2814,0.0,0.0,0.0,0.0,0.0,0.0,0.0,0.0,0.0,0.0,0.0,0.0,0.0,0.0,0.0,0.0,0.0,0.0,0.0,-0.9831,-0.985,-0.9913,-0.9916,-0.9875,-0.9798,-0.9795,-0.9772,-0.9702,-0.9721,-1.0535,-1.2101,-1.3279,-1.4331,-1.5185,-1.4549,-1.3658,-1.2548,-1.113,-1.0325,-0.9991,-0.989,-0.9829,-0.9804,-0.9804,-0.9427,-0.8902,-0.8925,-0.8952,-0.8995,-0.9119,0.0,0.0,0.0,0.0,-0.9992,-1.1452,-1.2559,-1.4051,-1.7534,0.0,0.0,0.0,0.0,0.0,0.0,0.0,0.0,0.0,0.0,0.0,0.0,0.0,0.0,0.0,0.0,0.0,0.0,0.0,0.0,0.0,0.0,0.0,0.0,0.0,0.0,0.0,0.0,0.0,-3.119,-3.119,-3.119,-3.119,-3.119,-3.119,-3.119,-3.119,-3.119,-3.119,-3.119,-3.119,-3.1241,-3.2459,-3.3034,-3.3034,-3.3034,-3.3034,-3.3034,-3.3034,-3.3034,-3.3034,-3.3034,-3.3034,-3.2949,-3.2344,-3.2107,-3.2022,0.0,0.0,0.0,0.0,0.0,0.0,0.0,0.0,0.0,0.0,0.0,-0.9713,-0.9702,-0.9702,0.0,0.0,0.0,0.0,-0.9872,0.0,0.0,-0.998,-0.998,-0.9936,-0.9798,-0.9795,-0.9772,-0.9702,-1.0371,-1.1539,-1.3102,-1.3175,-1.4089,-1.558,-1.4806,-1.3542,-1.1956,-1.1056,-1.0123,-0.9239,-0.9223,-0.916,-0.9044,-0.9044,-0.8982,-0.8913,-0.9038,-0.9144,-0.9257,-0.9399,-0.9534,0.0,0.0,0.0,0.0,0.0,-1.2113,-1.3574,0.0,0.0,0.0,0.0,0.0,0.0,0.0,0.0,0.0,0.0,0.0,0.0,0.0,0.0,0.0,0.0,0.0,0.0,0.0,0.0,0.0,0.0,0.0,0.0,0.0,0.0,0.0,0.0,0.0,0.0,-3.119,-3.119,-3.119,-3.119,-3.119,-3.119,-3.119,-3.119,-3.119,-3.119,-3.119,-3.119,-3.1207,-3.1393,-3.1478,-3.1478,-3.1478,-3.1478,-3.1478,-3.1478,-3.1478,-3.1478,-3.1478,-3.1478,-3.1478,-3.1376,-3.1343,-3.1326,0.0,0.0,0.0,0.0,0.0,0.0,0.0,0.0,0.0,0.0,0.0,-0.9739,-0.9706,-0.9702,0.0,0.0,0.0,0.0,-0.9957,-1.0027,0.0,-1.0061,-1.0061,-1.0001,-0.9922,-0.9869,-0.9825,-0.9757,-1.0067,-1.1508,-1.3985,-1.4367,-1.5453,-1.7014,-1.62,-1.5166,-1.3881,-1.1641,-1.0379,-0.9829,-0.9303,-0.9784,-1.0663,-0.9382,-0.9718,-1.0719,-0.9524,-0.9179,-0.9326,0.0,0.0,0.0,0.0,0.0,0.0,0.0,0.0,0.0,-1.5686,0.0,0.0,0.0,0.0,0.0,0.0,0.0,0.0,0.0,0.0,0.0,0.0,0.0,0.0,0.0,0.0,0.0,0.0,0.0,0.0,0.0,0.0,0.0,0.0,0.0,0.0,0.0,0.0,-3.131,-3.1509,-3.1312,-3.119,-3.119,-3.119,-3.119,-3.119,-3.119,-3.119,-3.119,-3.119,-3.119,-3.119,-3.119,-3.119,-3.119,-3.119,-3.119,-3.119,-3.119,-3.119,-3.119,-3.119,-3.119,-3.119,-3.119,-3.119,-3.119,0.0,0.0,0.0,0.0,0.0,0.0,0.0,0.0,0.0,0.0,0.0,0.0,-0.971,0.0,0.0,0.0,0.0,0.0,-1.0027,0.0,0.0,0.0,0.0,-1.0072,-0.9997,-0.9938,-0.9875,-0.9795,-0.9729,-1.1347,-1.453,-1.5325,-1.6665,-1.839,-1.7777,-1.6603,-1.4921,-1.2412,-1.1154,-1.0752,-1.0304,-1.1027,-1.2287,-1.1235,-1.1921,-1.3182,-1.1147,-1.0488,0.0,0.0,0.0,0.0,0.0,0.0,0.0,0.0,0.0,0.0,0.0,0.0,0.0,0.0,0.0,0.0,0.0,0.0,0.0,0.0,0.0,0.0,0.0,0.0,0.0,0.0,0.0,0.0,0.0,0.0,0.0,0.0,0.0,0.0,0.0,0.0,0.0,0.0,0.0,-3.1016,-3.1182,-3.0942,-3.073,-3.0651,-3.0632,-3.0632,-3.0632,-3.073,-3.077,-3.077,-3.0957,-3.1042,-3.1059,-3.1147,-3.119,-3.119,-3.119,-3.119,-3.119,-3.119,-3.119,-3.119,-3.119,-3.119,-3.119,-3.119,-3.119,-3.119,0.0,0.0,0.0,0.0,0.0,0.0,0.0,0.0,0.0,0.0,0.0,0.0,-0.9702,-0.9702,-0.9717,-0.9781,0.0,0.0,0.0,0.0,0.0,0.0,0.0,0.0,-0.9997,-0.9938,-0.9875,-0.9795,-0.9729,-1.1347,-1.453,-1.5325,-1.6965,-1.9242,-1.9187,-1.702,-1.3409,-1.3238,0.0,0.0,-1.2547,-1.2807,-1.2926,-1.5231,-1.6176,-1.6094,-1.457,0.0,0.0,0.0,0.0,0.0,0.0,0.0,0.0,0.0,0.0,0.0,0.0,0.0,0.0,0.0,0.0,0.0,0.0,0.0,0.0,0.0,0.0,0.0,0.0,0.0,0.0,0.0,0.0,0.0,0.0,0.0,0.0,0.0,0.0,0.0,0.0,0.0,0.0,0.0,0.0,-3.0007,-2.9643,-2.9592,-2.9437,-2.913,-2.9111,-2.9111,-2.9111,-2.9419,-2.9575,-2.9609,-3.03,-3.0628,-3.0645,-3.1028,-3.119,-3.119,-3.119,-3.119,-3.119,-3.119,-3.119,-3.119,-3.119,-3.119,-3.119,-3.119,-3.119,-3.119,0.0,0.0,0.0,0.0,0.0,0.0,0.0,0.0,0.0,0.0,0.0,0.0,0.0,-0.9781,-0.9784,-0.9866,-0.993,0.0,0.0,0.0,0.0,0.0,0.0,0.0,0.0,-0.9989,-0.9936,-0.9872,-0.9791,-1.0855,-1.2994,-1.4316,-1.5123,-1.5539,-1.7608,-1.7729,-1.6243,-1.418,0.0,0.0,0.0,-1.4639,-1.5822,-1.6325,-1.7457,-1.8553,0.0,0.0,0.0,0.0,0.0,0.0,0.0,-1.0881,-1.1149,-1.0023,-1.0433,0.0,0.0,0.0,0.0,0.0,0.0,0.0,0.0,0.0,0.0,0.0,0.0,0.0,0.0,0.0,0.0,0.0,0.0,0.0,0.0,0.0,0.0,0.0,0.0,0.0,0.0,0.0,0.0,0.0,0.0,0.0,-2.9948,-2.9455,-2.9121,-2.8993,-2.8993,-2.9085,-2.9317,-2.9437,-2.9639,-2.9884,-3.0147,-3.0287,-3.0271,-3.0436,-3.0785,-3.1255,-3.1255,-3.1229,-3.119,-3.119,-3.119,-3.119,-3.119,-3.119,-3.119,-3.119,-3.119,-3.119,0.0,0.0,0.0,0.0,0.0,0.0,0.0,0.0,0.0,-0.9834,0.0,0.0,0.0,0.0,-0.9841,-0.9927,-0.9967,-1.0039,-1.0092,-1.0094,0.0,0.0,0.0,0.0,0.0,-1.0024,-0.9959,-0.9893,-0.9834,-1.0595,-1.2113,-1.3191,-1.3692,-1.3789,-1.5662,-1.6646,0.0,0.0,0.0,-1.4779,0.0,0.0,-1.8107,-1.8817,-2.0082,0.0,0.0,0.0,0.0,0.0,0.0,0.0,0.0,-1.1624,-1.1209,-1.0042,-1.0649,0.0,-1.2357,0.0,0.0,0.0,0.0,0.0,0.0,0.0,0.0,0.0,0.0,0.0,0.0,0.0,0.0,0.0,0.0,0.0,0.0,0.0,0.0,0.0,0.0,0.0,0.0,0.0,0.0,0.0,0.0,0.0,-2.9422,-2.8795,-2.8372,-2.8231,-2.8231,-2.8407,-2.876,-2.8891,-2.9143,-2.9538,-2.9805,-2.9914,-2.9932,-3.0061,-3.0388,-3.0896,-3.0896,-3.1182,-3.162,-3.1468,-3.1391,-3.1389,-3.1252,-3.119,-3.119,-3.119,-3.119,-3.119,0.0,0.0,0.0,0.0,0.0,0.0,0.0,0.0,-0.9893,-0.9896,0.0,0.0,0.0,0.0,0.0,-1.0025,-1.0037,-1.006,-1.0092,-1.0094,0.0,0.0,0.0,0.0,-1.0094,-1.0046,-0.9962,-0.9896,-0.9838,-1.0561,-1.2026,-1.204,-1.2902,-1.4365,-1.3624,-1.3715,-1.453,0.0,-1.6305,-1.5794,0.0,-1.9217,-1.9539,0.0,0.0,0.0,-2.2446,-2.1943,0.0,0.0,0.0,0.0,0.0,-1.1904,-0.9798,-0.9776,-1.0355,-1.1008,0.0,0.0,0.0,0.0,0.0,0.0,0.0,0.0,0.0,0.0,0.0,0.0,0.0,0.0,0.0,0.0,0.0,0.0,0.0,0.0,0.0,0.0,0.0,0.0,0.0,0.0,0.0,0.0,0.0,-2.825,-2.7926,-2.7517,-2.7099,-2.6708,-2.6708,-2.6906,-2.7301,-2.7707,-2.8075,-2.842,-2.9206,-2.9571,-2.9575,-2.9911,-3.0084,-3.0101,-3.0101,-3.0999,-3.243,-3.1969,-3.179,-3.1736,-3.1372,-3.123,-3.121,-3.121,-3.121,-3.121,0.0,0.0,0.0,0.0,0.0,-0.9977,-0.9938,-0.9907,-0.9916,0.0,0.0,0.0,-1.0034,-1.0594,-1.0967,-1.1019,-1.1002,-1.0756,-1.0133,-1.0094,-1.0094,-1.0094,-1.0094,-1.0094,-1.0094,-1.0082,-1.0046,-0.9964,-0.9904,-1.0062,-1.0454,-1.0987,-1.1462,-1.1939,-1.2871,-1.3091,-1.2792,-1.3251,0.0,0.0,-1.7506,-1.8981,0.0,0.0,0.0,0.0,0.0,-2.3401,-2.2753,0.0,-2.0784,-1.9668,0.0,0.0,-1.233,-1.1636,-1.2488,-1.3374,-1.2105,0.0,0.0,0.0,0.0,0.0,0.0,0.0,0.0,0.0,0.0,0.0,0.0,0.0,0.0,0.0,0.0,0.0,0.0,0.0,0.0,0.0,0.0,0.0,0.0,0.0,0.0,0.0,-2.8399,-2.801,-2.7911,-2.7239,-2.6808,-2.6708,-2.6988,-2.7334,-2.7739,-2.8071,-2.8451,-2.8839,-2.9065,-2.9174,-2.9162,-2.9264,-2.9613,-3.0171,-3.0171,-3.0765,-3.1688,-3.1515,-3.1253,-3.101,-3.1812,-3.1932,-3.1623,-3.1623,-3.1623,-3.1603,0.0,0.0,0.0,-1.0055,-1.0321,-1.0531,-1.0532,-1.0505,-1.0633,0.0,0.0,0.0,-1.1053,-1.1909,-1.2154,-1.1466,-1.1408,-1.1021,-1.0152,-1.0094,-1.0094,-1.0094,-1.0094,-1.0094,-1.0094,-1.0094,-1.007,-0.9994,-0.9971,-0.9893,-0.9813,-1.0231,-1.0425,-1.0443,-1.1388,-1.1714,-1.1576,0.0,0.0,0.0,-1.8052,0.0,0.0,-2.307,-2.3833,0.0,0.0,0.0,-2.3945,-2.3556,-2.2505,0.0,0.0,-1.633,-1.4915,-1.3675,-1.4494,0.0,-1.3779,-1.4518,0.0,0.0,0.0,0.0,0.0,0.0,0.0,0.0,0.0,0.0,0.0,0.0,0.0,0.0,0.0,0.0,0.0,0.0,0.0,0.0,0.0,0.0,0.0,0.0,0.0,-2.9005,-2.8456,-2.7978,-2.7663,-2.721,-2.6873,-2.6708,-2.7083,-2.7485,-2.7897,-2.8237,-2.859,-2.9005,-2.9005,-2.9005,-2.9005,-2.9005,-2.9262,-2.9702,-2.9702,-2.9971,-3.0412,-3.0731,-3.0784,-3.0766,-3.1656,-3.184,-3.1637,-3.1969,-3.1969,-3.1771,0.0,0.0,-1.0133,-1.0223,-1.0825,-1.1352,-1.1508,-1.1482,-1.1743,0.0,-1.2043,-1.1929,-1.2844,-1.3602,-1.344,-1.1945,-1.1658,-1.1175,-1.0308,-1.0152,-1.0094,-1.0094,-1.0094,-1.0094,-1.0094,-1.0094,-1.0074,-1.0006,-0.9999,-0.9928,-0.9808,-0.9798,-0.9768,-0.9702,-0.9702,-1.0098,-1.0746,0.0,0.0,-1.5955,-1.8823,-2.0758,0.0,0.0,-2.4256,0.0,-2.4528,-2.4737,-2.4991,-2.5028,-2.3539,0.0,0.0,-1.8661,-1.7612,-1.6016,-1.6631,0.0,-1.5969,-1.5984,0.0,0.0,0.0,0.0,-2.0197,-1.9491,0.0,0.0,0.0,0.0,0.0,0.0,0.0,0.0,0.0,0.0,0.0,0.0,0.0,0.0,0.0,0.0,0.0,-2.8308,-2.873,-2.873,-2.836,-2.783,-2.7135,-2.7145,-2.7026,-2.6705,-2.7126,-2.756,-2.7936,-2.829,-2.8645,-2.9005,-2.9005,-2.9005,-2.9005,-2.9005,-2.9005,-2.9005,-2.9005,-2.9005,-2.906,-2.9757,-3.0298,-3.07,-3.1141,-3.1271,-3.1328,-3.2053,-3.2052,-3.169,0.0,-1.0094,-1.0295,-1.0948,-1.1237,-1.1592,-1.2265,-1.2391,-1.2498,-1.268,-1.3108,-1.3983,-1.5545,-1.5263,-1.4808,-1.4481,-1.3236,-1.2084,-1.1194,-1.0481,-1.0094,-1.0094,-1.0094,-1.0094,-1.0094,-1.0094,-1.009,-1.008,-1.0037,-0.9949,-0.9869,-0.9825,-0.9768,-0.9702,-0.9702,-0.979,-1.0047,0.0,0.0,-1.5753,-1.6371,0.0,-2.2804,-2.3116,-2.3758,-2.4528,-2.4685,-2.485,-2.5028,0.0,-2.4396,-2.3165,0.0,0.0,0.0,0.0,0.0,-2.0307,-1.9238,-1.9373,-1.9605,-1.864,0.0,0.0,0.0,-1.7025,0.0,0.0,0.0,0.0,0.0,0.0,0.0,0.0,0.0,0.0,0.0,0.0,0.0,0.0,0.0,0.0,0.0,-2.6969,-2.706,-2.706,-2.6697,-2.6287,-2.5873,-2.6159,-2.6447,-2.6696,-2.739,-2.795,-2.8303,-2.87,-2.8917,-2.9005,-2.9005,-2.9005,-2.9005,-2.9005,-2.9005,-2.9005,-2.9005,-2.9005,-2.9005,-2.917,-2.9478,-2.9945,-3.0979,-3.1179,-3.0934,-3.1078,-3.1073,-3.0936,-1.0094,-1.0094,-1.0357,-1.1201,-1.1738,-1.2322,-1.3133,-1.327,-1.3753,-1.5028,-1.6311,-1.7096,-1.7103,-1.6715,-1.6118,-1.5269,-1.4038,-1.2752,-1.1485,-1.0983,-1.0558,-1.0113,-1.0094,-1.0094,-1.0094,-1.0094,-1.0094,-1.0094,-1.007,-1.0006,-0.9893,-0.9872,-1.0212,-1.0851,-1.0066,-1.0364,-1.1517,0.0,-1.3495,-1.5845,-1.7454,0.0,-2.3043,-2.3456,-2.404,-2.4662,-2.4768,-2.4955,-2.5105,-2.4793,-2.4625,0.0,0.0,-2.2968,-2.3045,0.0,-2.1996,-2.2494,-2.1598,-2.1526,-2.1494,-2.0704,0.0,0.0,0.0,0.0,0.0,0.0,0.0,0.0,0.0,0.0,0.0,0.0,0.0,0.0,0.0,0.0,0.0,0.0,0.0,0.0,0.0,-2.6355,-2.6602,-2.6602,-2.6407,-2.6074,-2.553,-2.5848,-2.5997,-2.5862,-2.6557,-2.7238,-2.7794,-2.8195,-2.8601,-2.9005,-2.9005,-2.9005,-2.9005,-2.9005,-2.9005,-2.9005,-2.9005,-2.9005,-2.9005,-2.9005,-2.9119,-2.9404,-3.0412,-3.0685,-3.0555,-3.0937,-3.0962,-3.0772,-1.0096,-1.0094,-1.0365,-1.1254,-1.2122,-1.2967,-1.3783,-1.4033,-1.5055,-1.7622,-1.9311,-1.9888,-1.8796,-1.8526,-1.7888,-1.6538,-1.5324,-1.4,-1.2486,-1.1928,-1.1331,-1.0635,-1.0288,-1.0173,-1.0346,-1.0192,-1.0094,-1.0094,-1.0094,-1.0034,-0.9893,-0.9893,-1.0598,-1.182,-1.0668,-1.1333,0.0,0.0,0.0,-1.6681,0.0,-2.1367,-2.2692,-2.3694,-2.4294,-2.4627,-2.4838,-2.5074,-2.5192,-2.4548,0.0,-2.5058,-2.3716,-2.4216,0.0,0.0,0.0,0.0,0.0,0.0,0.0,0.0,0.0,-2.0605,0.0,0.0,0.0,-2.0212,0.0,0.0,0.0,0.0,0.0,0.0,0.0,0.0,0.0,0.0,0.0,0.0,0.0,0.0,0.0,-2.5383,-2.5805,-2.6117,-2.586,-2.5539,-2.5247,-2.559,-2.557,-2.5094,-2.5688,-2.6363,-2.7079,-2.7554,-2.8136,-2.8767,-2.8932,-2.9005,-2.9005,-2.9005,-2.9005,-2.9005,-2.9005,-2.9005,-2.9005,-2.9005,-2.9005,-2.906,-2.9721,-2.9971,-3.0063,-3.0705,-3.0737,-3.046,-1.0106,-1.0094,-1.0365,-1.1254,-1.2122,-1.2967,-1.3783,-1.4555,-1.5965,-1.8511,-1.9696,-2.0792,-2.2085,-2.1523,0.0,0.0,0.0,0.0,-1.5987,0.0,-1.251,-1.2411,-1.0925,-1.0462,-1.1235,-1.05,-1.0094,-1.0094,-1.0094,-1.0034,-0.9893,-0.9893,-1.0303,-1.1058,-1.1599,0.0,0.0,0.0,-1.6695,0.0,-2.0329,-2.0885,0.0,-2.2925,-2.3724,-2.4033,-2.4913,-2.5264,-2.5288,0.0,-2.5212,-2.5269,0.0,-2.5154,0.0,0.0,0.0,0.0,0.0,0.0,0.0,0.0,-2.2842,0.0,0.0,0.0,-1.9344,-1.8221,0.0,0.0,0.0,0.0,0.0,0.0,0.0,0.0,0.0,0.0,0.0,0.0,0.0,0.0,0.0,0.0,-2.2932,-2.4373,-2.3153,-2.2942,-2.4285,-2.4715,-2.5061,-2.5348,-2.5776,-2.6215,-2.6658,-2.7427,-2.7842,-2.7934,-2.8656,-2.9005,-2.9005,-2.9005,-2.9005,-2.9005,-2.9005,-2.9005,-2.9005,-2.9005,-2.9005,-2.9005,-2.9097,-2.9133,-2.9152,-2.9244,-2.9239,-2.9203,-1.0106,-1.0122,-1.0422,-1.1259,-1.1697,-1.2387,-1.3706,-1.6324,-1.8538,-1.96,-2.1354,-2.2586,0.0,0.0,0.0,0.0,0.0,-1.8638,0.0,0.0,-1.516,-1.4195,-1.2962,-1.2269,-1.2161,-1.1293,-1.0615,-1.0094,-1.0094,-1.0055,-0.9965,-0.9916,-1.0773,-1.2359,-1.2657,0.0,-1.6096,0.0,0.0,0.0,0.0,0.0,0.0,-2.3116,-2.4211,-2.4448,-2.5077,-2.5308,-2.5231,0.0,-2.4909,0.0,0.0,0.0,0.0,0.0,0.0,0.0,0.0,0.0,0.0,0.0,0.0,0.0,0.0,0.0,-2.005,0.0,0.0,0.0,0.0,0.0,0.0,0.0,0.0,0.0,0.0,0.0,0.0,0.0,0.0,0.0,0.0,0.0,0.0,0.0,0.0,-2.22,-2.3161,-2.399,-2.4437,-2.4408,-2.4775,-2.5249,-2.5897,-2.6704,-2.7346,-2.7816,-2.862,-2.9005,-2.9005,-2.9005,-2.9005,-2.9005,-2.9005,-2.9005,-2.9005,-2.9005,-2.9005,-2.9005,-2.9005,-2.9005,-2.9005,-2.9005,-2.9005,-2.9005,-1.0441,0.0,0.0,-1.0975,-1.1457,-1.2486,-1.4615,-1.7788,-2.0196,-2.0889,-2.2797,0.0,-2.3524,-2.2928,0.0,0.0,0.0,-2.0696,0.0,0.0,-1.7622,-1.6635,-1.5093,0.0,0.0,-1.2449,-1.1331,-1.0462,-1.0212,-1.0185,-1.0342,-1.0055,-1.1065,-1.3123,-1.3721,-1.5392,-1.7784,0.0,0.0,-1.9775,-2.039,-2.0923,-2.1589,-2.3628,-2.4618,-2.4981,-2.5217,-2.5308,-2.5212,-2.462,-2.4812,0.0,-2.4601,0.0,0.0,0.0,0.0,0.0,-2.5308,0.0,0.0,0.0,0.0,0.0,0.0,0.0,0.0,0.0,0.0,0.0,0.0,0.0,0.0,0.0,0.0,0.0,0.0,0.0,0.0,0.0,0.0,0.0,0.0,0.0,0.0,0.0,0.0,0.0,-2.2566,-2.3425,-2.3864,-2.3837,-2.4074,-2.4493,-2.5062,-2.586,-2.6557,-2.7155,-2.797,-2.8455,-2.8675,-2.8675,-2.8785,-2.9005,-2.9005,-2.9005,-2.9005,-2.9005,-2.9005,-2.9005,-2.9005,-2.9005,-2.9005,-2.9005,-2.9005,-2.9005,-1.1295,-1.078,0.0,0.0,0.0,-1.3777,-1.7064,-1.8414,-1.9935,-2.2393,0.0,0.0,0.0,0.0,0.0,0.0,0.0,-2.361,-2.2701,0.0,-1.9315,0.0,0.0,-1.5538,0.0,-1.3931,-1.2238,-1.137,-1.0519,-1.0494,-1.1233,-1.04,-1.0828,-1.2429,-1.472,-1.6177,-1.7105,-1.9604,-2.1695,-2.3295,-2.2732,-2.3455,-2.4793,0.0,-2.4606,-2.5293,-2.5303,0.0,0.0,-2.5269,-2.5288,0.0,0.0,0.0,0.0,0.0,0.0,0.0,0.0,0.0,0.0,-2.3254,0.0,0.0,0.0,0.0,-2.1466,0.0,0.0,0.0,0.0,0.0,-2.0794,-1.9032,-1.8654,0.0,0.0,0.0,0.0,0.0,0.0,0.0,0.0,0.0,0.0,0.0,0.0,0.0,-2.2813,-2.3024,-2.3391,-2.4162,-2.419,-2.4208,-2.4245,-2.5044,-2.5448,-2.5485,-2.6282,-2.709,-2.7842,-2.7842,-2.8264,-2.9005,-2.9005,-2.9005,-2.9005,-2.9005,-2.9005,-2.9005,-2.9005,-2.9005,-2.9005,-2.9005,-2.9005,-2.9005,0.0,0.0,0.0,0.0,0.0,-1.3159,-1.7103,-1.9373,-2.1562,0.0,0.0,0.0,0.0,0.0,-2.7024,0.0,0.0,-2.537,-2.45,-2.3144,0.0,0.0,0.0,-1.8981,0.0,0.0,-1.4503,-1.3055,-1.2233,-1.1959,-1.2214,-1.129,-1.1729,-1.3372,-1.5042,-1.6843,0.0,0.0,0.0,0.0,0.0,-2.3722,-2.517,0.0,0.0,-2.5111,-2.5259,-2.5308,0.0,-2.5308,-2.5308,-2.5308,-2.5308,-2.5308,-2.5308,-2.5308,-2.5308,0.0,0.0,0.0,-2.5755,-2.4086,0.0,0.0,0.0,0.0,0.0,0.0,0.0,0.0,0.0,0.0,-2.1095,-1.9858,-1.8682,-1.7364,0.0,0.0,0.0,0.0,0.0,0.0,0.0,0.0,0.0,0.0,0.0,0.0,0.0,-2.3217,-2.3914,-2.419,-2.419,-2.419,-2.419,-2.5007,-2.5393,-2.5411,-2.6227,-2.6741,-2.7016,-2.7016,-2.7438,-2.8209,-2.8209,-2.8521,-2.9005,-2.9005,-2.9005,-2.9005,-2.9005,-2.9005,-2.9005,-2.9005,-2.9005,-2.9005,-1.3201,0.0,0.0,0.0,0.0,0.0,0.0,0.0,0.0,0.0,-2.6524,0.0,-2.7838,0.0,-2.7895,0.0,-2.739,-2.6697,-2.5827,-2.5274,0.0,-2.3735,-2.287,0.0,0.0,0.0,-1.6865,-1.4824,-1.3983,-1.3428,-1.3118,-1.2204,-1.2511,-1.3878,0.0,-1.7324,0.0,0.0,-2.2762,0.0,0.0,-2.4346,0.0,0.0,-2.5219,-2.5116,0.0,-2.5308,-2.5308,-2.5308,-2.5308,-2.5308,-2.5308,-2.5308,-2.5365,-2.5673,-2.5769,-2.5827,-2.6135,-2.664,0.0,-2.5337,-2.499,0.0,-2.2816,0.0,0.0,0.0,0.0,0.0,0.0,0.0,-2.1934,-2.0414,-1.8954,-1.7451,0.0,0.0,0.0,0.0,0.0,0.0,0.0,0.0,-1.7509,-1.9168,0.0,0.0,0.0,0.0,-2.3612,-2.4171,-2.419,-2.419,-2.419,-2.4713,-2.497,-2.497,-2.5493,-2.5897,-2.6172,-2.6172,-2.6612,-2.7365,-2.7365,-2.7824,-2.8565,-2.8565,-2.873,-2.9005,-2.9005,-2.9005,-2.9005,-2.9005,-2.9005,-2.9005,0.0,0.0,0.0,0.0,-1.5036,0.0,0.0,0.0,-2.4721,0.0,-2.7409,-2.7992,-2.803,-2.8025,-2.8025,-2.8025,-2.7992,0.0,-2.6774,-2.6697,0.0,0.0,-2.4644,-2.3817,-2.2932,0.0,0.0,0.0,-1.5731,-1.4824,-1.3956,-1.314,-1.313,-1.3905,-1.6149,0.0,-1.8589,-2.2008,-2.3994,-2.4861,-2.5165,-2.5308,-2.5308,-2.5308,-2.5308,-2.5308,-2.5308,-2.5308,-2.5308,-2.5308,-2.5308,-2.5308,-2.5308,-2.5327,-2.5538,-2.6365,-2.664,-2.6851,-2.7659,-2.7934,-2.7755,-2.689,0.0,0.0,0.0,0.0,-2.5154,0.0,0.0,0.0,0.0,0.0,0.0,-2.0827,-1.9509,-1.792,0.0,0.0,0.0,0.0,0.0,0.0,0.0,0.0,-1.5839,-1.8893,-1.7075,0.0,0.0,0.0,-2.2528,-2.408,-2.4171,-2.419,-2.419,-2.419,-2.419,-2.419,-2.419,-2.4603,-2.5338,-2.5338,-2.5778,-2.6539,-2.6539,-2.7016,-2.7798,-2.7798,-2.8282,-2.9005,-2.9005,-2.9005,-2.9005,-2.9005,-2.9005,-2.9005,-1.5974,-1.6788,-1.7672,0.0,-1.8352,-1.93,0.0,0.0,0.0,0.0,-2.828,-2.9044,-2.9692,-2.975,-2.975,-2.975,-2.9159,0.0,0.0,0.0,0.0,-2.7236,-2.6409,-2.5543,-2.4673,-2.2385,0.0,-1.9327,0.0,0.0,-1.4843,-1.3997,-1.3673,-1.3882,0.0,0.0,-1.9357,-2.1789,-2.3744,-2.5171,-2.5278,-2.5308,0.0,0.0,-2.5308,-2.5308,-2.5308,-2.5308,-2.5308,-2.5308,-2.5308,-2.5308,-2.5308,-2.5731,-2.6308,-2.6524,-2.7063,-2.7621,-2.7838,-2.8338,-2.8588,-2.7775,-2.7563,-2.7274,0.0,0.0,0.0,0.0,0.0,0.0,0.0,0.0,0.0,-2.2466,-2.0261,-1.8366,0.0,0.0,0.0,0.0,0.0,0.0,0.0,0.0,-1.5729,-1.6561,-1.716,0.0,0.0,0.0,0.0,-2.3281,-2.3896,-2.419,-2.419,-2.419,-2.419,-2.419,-2.419,-2.43,-2.4511,-2.4511,-2.4952,-2.5705,-2.5705,-2.6494,-2.7798,-2.7798,-2.8282,-2.9005,-2.9005,-2.9005,-2.9005,-2.9005,-2.9005,-2.9005,-1.7781,0.0,0.0,-2.1324,0.0,0.0,-2.362,0.0,0.0,-2.7664,-2.8607,0.0,-2.9775,-3.0173,-3.0404,-3.0404,-2.9948,0.0,0.0,0.0,0.0,-2.7934,-2.7775,-2.7121,-2.5885,-2.4462,0.0,-2.0827,0.0,0.0,-1.5753,-1.4882,-1.4455,-1.4488,0.0,-1.787,0.0,-2.2528,-2.4293,-2.5308,-2.5308,0.0,0.0,-2.5712,-2.5865,-2.5923,-2.6288,-2.6192,-2.5923,-2.6308,-2.6447,-2.6447,-2.6447,-2.6774,-2.7236,-2.7582,-2.8049,-2.8511,-2.889,-2.9313,-2.9563,-2.9102,-2.8986,-2.8756,-2.789,-2.7698,-2.7582,0.0,0.0,0.0,0.0,0.0,0.0,0.0,0.0,0.0,0.0,0.0,0.0,0.0,0.0,0.0,0.0,0.0,0.0,0.0,0.0,0.0,0.0,0.0,0.0,-2.2969,-2.3786,-2.419,-2.419,-2.419,-2.419,-2.419,-2.419,-2.419,-2.419,-2.419,-2.4456,-2.4879,-2.4879,-2.5595,-2.6788,-2.7126,-2.775,-2.851,-2.8858,-2.9005,-2.9005,-2.9005,-2.9005,-2.9005,0.0,0.0,0.0,0.0,0.0,0.0,0.0,-2.6269,0.0,-2.7934,0.0,-2.928,-2.928,-2.9948,-3.0404,-3.0404,0.0,-3.0077,-2.9319,-2.9987,-2.975,-2.8294,-2.88,-2.8376,-2.6794,-2.6544,0.0,0.0,0.0,0.0,-1.6157,-1.55,-1.5071,0.0,0.0,0.0,0.0,-2.3683,-2.5187,0.0,-2.5462,-2.5538,-2.5712,-2.6486,-2.6774,-2.689,-2.7755,-2.7505,-2.689,-2.764,-2.7895,-2.7895,-2.7895,-2.7972,-2.8184,-2.8896,-2.9184,-2.9429,-3.0192,-3.0404,-3.0404,-3.0404,-3.0404,-3.0192,-2.9429,-2.928,-2.9069,-2.8371,-2.7448,-2.6774,0.0,0.0,0.0,0.0,0.0,0.0,0.0,0.0,0.0,0.0,0.0,0.0,0.0,0.0,0.0,0.0,0.0,0.0,0.0,0.0,0.0,-2.2804,-2.3731,-2.419,-2.419,0.0,-2.419,-2.419,-2.419,-2.419,-2.419,-2.419,-2.419,-2.419,-2.419,-2.4658,-2.5448,-2.6153,-2.6979,-2.789,-2.8693,-2.9005,-2.9005,-2.9005,-2.9005,-2.9005,0.0,0.0,0.0,0.0,0.0,-2.6447,-2.7313,-2.7563,-2.7972,-2.878,-2.964,-3.0173,-3.0173,-3.0308,-3.0404,-3.0404,-3.0404,0.0,0.0,0.0,0.0,-2.9962,-2.941,-2.8646,-2.7678,-2.625,-2.4192,0.0,0.0,-1.7554,-1.4363,-1.492,-1.4405,0.0,0.0,0.0,-2.2426,-2.4236,0.0,-2.6365,-2.6365,-2.6794,-2.7467,-2.7601,-2.7659,-2.7775,-2.8607,-2.8376,-2.7698,-2.7857,-2.7895,-2.7895,-2.7895,-2.8357,-2.8915,-2.9069,-2.9602,-3.0212,-3.0365,-3.0404,-3.0404,-3.0404,-3.0404,-3.0365,-3.0212,-3.0173,-3.0135,-2.9981,-2.8736,-2.7659,-2.7659,0.0,0.0,0.0,0.0,0.0,0.0,0.0,0.0,0.0,0.0,0.0,0.0,0.0,0.0,0.0,0.0,0.0,0.0,0.0,0.0,0.0,-2.3419,0.0,0.0,0.0,-2.419,-2.419,-2.419,-2.419,-2.419,-2.419,-2.419,-2.419,-2.419,-2.4658,-2.5411,-2.554,-2.6476,-2.789,-2.8693,-2.9005,-2.9005,-2.9005,-2.9005,-2.9005,0.0,0.0,0.0,0.0,0.0,0.0,0.0,-3.0237,0.0,-2.9833,-3.0525,-3.0904,-3.0442,-3.1173,-3.1346,-3.0481,-3.0808,-3.0885,-3.0423,-3.0404,-3.0404,-3.0404,-3.0,0.0,-2.8549,-2.7294,-2.5596,-2.3462,0.0,-1.8593,-1.6532,-1.5612,-1.4979,-1.4715,0.0,-2.1085,0.0,0.0,0.0,-2.664,-2.7082,-2.7525,-2.7953,-2.8357,-2.853,-2.8626,-2.9467,-2.9525,-2.9198,-2.9198,-2.9198,-2.9198,-2.9198,-2.9467,-2.9775,-2.9775,-3.0077,-3.0404,-3.0404,-3.0404,-3.0404,-3.0404,-3.0404,-3.0404,-3.0404,-3.0404,-3.0269,-2.9813,-2.8756,-2.7621,-2.6717,-2.5543,0.0,0.0,0.0,0.0,0.0,0.0,0.0,0.0,0.0,0.0,0.0,0.0,0.0,0.0,0.0,0.0,0.0,0.0,0.0,0.0,0.0,0.0,0.0,0.0,0.0,-2.419,-2.419,-2.419,-2.419,-2.419,-2.419,-2.419,-2.419,-2.442,-2.4842,-2.5686,-2.6722,-2.789,-2.8693,-2.9005,-2.9005,-2.9005,-2.9005,-2.9005,0.0,-2.7489,0.0,0.0,-2.9664,0.0,-3.1499,-3.2545,-3.2641,-3.1135,-3.1525,-3.1698,-3.1,-3.2122,-3.2372,-3.1058,-3.1564,-3.166,-3.0981,-3.0769,-3.0673,-3.0673,-3.05,-2.9981,-2.9127,-2.8472,-2.7121,0.0,0.0,0.0,-1.8689,-1.7058,-1.6731,0.0,0.0,0.0,0.0,0.0,-2.6967,-2.7198,-2.7876,-2.828,-2.8506,-2.914,-2.9371,-2.9467,-3.0154,-3.0404,-3.0404,-3.0404,-3.0404,-3.0404,-3.0404,-3.0404,-3.0404,-3.0404,-3.0404,-3.0404,-3.0404,-3.0404,-3.0404,-3.0404,-3.0404,-3.0404,-3.0404,-3.025,-2.9929,-2.9242,-2.8319,-2.714,-2.5596,-2.5308,0.0,0.0,0.0,0.0,0.0,0.0,0.0,0.0,0.0,0.0,0.0,0.0,0.0,0.0,0.0,0.0,-1.5857,-1.7154,0.0,0.0,0.0,-2.3327,-2.398,0.0,-2.419,-2.419,-2.419,-2.419,-2.419,-2.419,-2.419,-2.419,-2.419,-2.419,-2.43,-2.575,-2.6722,-2.7394,-2.8363,-2.873,-2.8767,-2.8932,-2.9005,-2.9005,0.0,0.0,0.0,0.0,0.0,0.0,0.0,-3.3045,-3.3744,-3.2795,-3.2737,-3.2756,-3.2679,-3.2814,-3.2833,-3.2679,-3.2737,-3.2756,-3.2679,-3.1987,-3.1583,-3.1583,-3.0827,-2.9981,-2.9127,-2.903,-2.7414,0.0,0.0,-2.1701,-1.7853,-1.9196,-2.025,0.0,0.0,0.0,0.0,-2.7044,-2.8203,-2.8876,-2.8953,-2.9467,-3.0173,-3.025,-3.0288,-3.0288,-3.0365,-3.0404,-3.0404,-3.0404,-3.0404,-3.0404,-3.0404,-3.0404,-3.0404,-3.0404,-3.0404,-3.0404,-3.0404,-3.0404,-3.0404,-3.0404,-3.0404,-3.0404,-3.0404,-2.9794,-2.9204,-2.9127,-2.7832,-2.6428,-2.5481,-2.5308,-2.5038,0.0,0.0,0.0,0.0,0.0,0.0,0.0,0.0,0.0,0.0,0.0,0.0,0.0,0.0,0.0,-1.6677,-1.6927,-1.8536,-2.1885,0.0,-2.3096,-2.3295,-2.3897,-2.419,-2.419,-2.419,-2.419,-2.419,-2.419,-2.419,-2.419,-2.419,-2.419,-2.4263,-2.5154,-2.5558,-2.5778,-2.7321,-2.7915,-2.7989,-2.873,-2.9005,-2.9005,0.0,0.0,0.0,0.0,0.0,0.0,0.0,-3.4621,-3.489,-3.452,-3.4462,-3.4257,-3.3737,-3.416,-3.4045,-3.2987,-3.3372,-3.3449,-3.2929,-3.2602,-3.2429,-3.2429,-3.1621,-3.1025,-3.066,-2.9646,-2.8434,0.0,0.0,-2.3225,-2.1512,-2.0696,0.0,0.0,0.0,-2.6063,-2.6948,-2.8126,-2.8819,-2.9146,-2.9679,-3.0096,-3.0404,-3.0404,-3.0404,-3.0404,-3.0404,-3.0404,-3.0404,-3.0404,-3.0404,-3.0404,-3.0404,-3.0404,-3.0404,-3.0404,-3.0404,-3.0404,-3.0404,-3.0404,-3.0404,-3.0404,-3.0404,-3.0404,-3.0404,-2.9737,-2.8953,-2.8472,-2.7005,-2.5712,-2.5365,-2.5308,-2.5192,0.0,0.0,0.0,0.0,0.0,0.0,0.0,0.0,0.0,0.0,0.0,0.0,0.0,0.0,0.0,0.0,0.0,0.0,-2.0462,0.0,-2.3252,-2.3375,-2.4164,-2.4503,-2.4384,-2.4384,-2.4321,-2.419,-2.419,-2.419,-2.419,-2.419,-2.419,-2.4263,-2.5062,-2.5393,-2.5558,-2.7174,-2.7798,-2.7897,-2.8693,-2.9005,-2.9005,-3.373,0.0,-3.3332,0.0,-3.4443,-3.4372,-3.5447,-3.5611,-3.5577,-3.5508,-3.55,-3.5269,-3.4641,-3.5135,-3.5001,-3.3806,-3.4256,-3.4352,-3.3735,-3.3446,-3.3293,-3.3282,-3.2536,0.0,-3.2102,-3.0665,-2.9815,-2.9569,-2.6905,0.0,-2.4827,-2.3007,0.0,0.0,-2.6697,-2.7678,-2.8319,-2.9121,-2.9486,-2.9544,-3.0154,-3.0404,-3.0404,-3.0404,-3.0404,-3.041,-3.0417,-3.0433,-3.0419,-3.0442,-3.0452,-3.0442,-3.0414,-3.0404,-3.0404,-3.0404,-3.0404,-3.0404,-3.0404,-3.0404,-3.0404,-3.0404,-3.0404,-3.0404,-3.0404,-2.9544,-2.8434,-2.7351,-2.6154,-2.5308,-2.5308,-2.5308,-2.5212,-2.4981,0.0,0.0,0.0,0.0,0.0,0.0,0.0,-2.0408,0.0,0.0,0.0,0.0,0.0,0.0,0.0,0.0,0.0,0.0,0.0,0.0,0.0,-2.4384,-2.47,-2.4503,-2.4551,-2.4478,-2.4284,-2.4339,-2.4375,-2.4375,-2.4321,-2.4284,-2.434,-2.4834,-2.5044,-2.5209,-2.6814,-2.7438,-2.7567,-2.862,-2.9005,-2.9005,-3.4512,-3.4618,-3.4846,-3.5726,-3.5777,-3.5655,-3.5611,-3.5611,-3.5577,-3.5508,-3.55,-3.55,-3.5481,-3.5481,-3.5515,-3.5556,-3.5586,-3.5586,-3.5567,-3.4759,-3.4251,0.0,0.0,-3.3073,-3.3073,-3.2278,-3.149,-3.0678,0.0,0.0,-2.6667,0.0,-2.7005,-2.7895,-2.8703,-2.9088,-2.9146,-3.0,-3.0385,-3.0385,-3.0404,-3.0404,-3.0404,-3.0404,-3.0404,-3.0402,-3.0472,-3.0498,-3.0516,-3.0575,-3.06,-3.0571,-3.0441,-3.0404,-3.0404,-3.0404,-3.0404,-3.0404,-3.0404,-3.0404,-3.0404,-3.0404,-3.0404,-3.0404,-3.0404,-2.9121,-2.7409,-2.5692,-2.5308,-2.5308,-2.5308,-2.5308,-2.5038,-2.424,0.0,0.0,0.0,0.0,0.0,0.0,-2.057,-1.9354,-2.0192,0.0,0.0,0.0,0.0,0.0,0.0,0.0,0.0,-2.3633,-2.3588,0.0,-2.3786,-2.4471,-2.47,-2.4503,-2.47,-2.4693,-2.4503,-2.47,-2.4797,-2.4782,-2.4575,-2.4495,-2.4478,-2.4294,-2.4208,-2.4373,-2.5988,-2.6602,-2.6804,-2.8418,-2.9005,-2.9005,-3.5527,-3.5565,-3.5641,-3.5914,-3.5892,-3.5797,-3.5694,-3.563,-3.5577,-3.5508,-3.55,-3.55,-3.55,-3.55,-3.5501,0.0,-3.5528,-3.5558,0.0,-3.534,-3.5209,-3.5217,-3.4462,-3.4058,-3.4058,-3.3213,-3.2664,-3.2394,0.0,0.0,0.0,-2.8965,-2.9025,-2.878,-3.0237,-3.0871,-3.0929,-3.1756,-3.2102,-3.2102,-3.2102,-3.2154,-3.2222,-3.2151,-3.2182,-3.2221,-3.1605,-3.1425,-3.1453,-3.1478,-3.1095,-3.0694,-3.1243,-3.0976,-3.0457,-3.0414,-3.0404,-3.0404,-3.0404,-3.0404,-3.0404,-3.0404,-3.0404,-3.0404,-3.0404,-2.9102,-2.7563,-2.6428,-2.5712,-2.5308,-2.5308,-2.5344,-2.5277,-2.4981,-2.5174,0.0,0.0,0.0,0.0,0.0,0.0,-2.147,0.0,-1.9885,0.0,0.0,0.0,0.0,0.0,0.0,0.0,0.0,-2.3698,0.0,-2.4005,-2.4763,-2.5043,-2.4845,-2.4904,-2.4857,-2.4708,-2.4775,-2.4804,-2.4797,-2.4731,-2.4708,-2.47,-2.4631,-2.4537,-2.4521,-2.557,-2.624,-2.6741,-2.7787,-2.8539,-2.9005,-3.5996,-3.5996,-3.5996,-3.5996,-3.5972,-3.5887,-3.5723,-3.5652,-3.5616,-3.5546,-3.5521,-3.5508,-3.5534,-3.5521,0.0,-3.5534,-3.5562,-3.5595,-3.5639,-3.5682,-3.5717,-3.5703,-3.5271,-3.5034,-3.5034,-3.4203,0.0,-3.3766,-3.2872,-3.1857,-3.0761,-3.1212,-3.1121,-3.0644,-3.169,-3.216,-3.2185,-3.2733,-3.2974,-3.2979,-3.2995,-3.3049,-3.313,-3.3014,-3.305,-3.3098,-3.2536,-3.2352,-3.2391,-3.2441,-3.2104,-3.175,-3.2257,-3.2027,-3.1404,-3.0683,-3.0487,-3.0487,-3.0487,-3.0487,-3.0477,-3.0446,-3.043,-3.0342,-2.9998,-2.8871,-2.764,-2.6774,-2.5904,-2.5308,-2.5308,-2.5335,-2.5346,-2.5303,-2.5339,-2.5342,-2.5317,0.0,0.0,0.0,0.0,0.0,0.0,-2.1523,0.0,0.0,0.0,0.0,0.0,0.0,0.0,-2.2834,-2.4337,0.0,-2.4543,-2.5058,-2.5203,-2.5004,-2.5004,-2.5005,-2.5,-2.5,-2.5,-2.4975,-2.4916,-2.4889,-2.4864,-2.4814,-2.4731,-2.472,-2.5826,-2.6478,-2.6951,-2.8009,-2.8724,-2.9134,-3.6074,-3.6094,0.0,0.0,-3.6172,0.0,-3.5914,-3.5885,-3.5869,-3.5796,-3.5725,-3.5721,-3.5769,-3.572,-3.5708,-3.5775,0.0,0.0,0.0,-3.5834,-3.5843,-3.5726,-3.5843,-3.5907,-3.5907,-3.5172,-3.4785,-3.4785,-3.3914,-3.3411,-3.3295,-3.3239,-3.3164,-3.3102,-3.3037,-3.3005,-3.3017,-3.3204,-3.3281,-3.329,-3.3352,-3.3387,-3.3384,-3.3296,-3.3285,-3.3296,-3.3287,-3.33,-3.3309,-3.3451,-3.3457,-3.3398,-3.3404,-3.3357,-3.2958,-3.1215,-3.0684,-3.0684,-3.0622,-3.06,-3.0578,-3.0528,-3.0498,-3.0278,-2.9407,-2.8571,-2.7768,-2.6886,-2.5996,-2.5375,-2.5308,-2.5293,-2.5317,-2.5308,-2.5293,-2.5317,-2.5308,0.0,0.0,0.0,0.0,0.0,0.0,-2.2932,-2.324,0.0,0.0,0.0,0.0,0.0,-2.2788,-2.5231,-2.5308,-2.5308,-2.5308,-2.5308,-2.5208,-2.5022,-2.5022,-2.5111,-2.5308,-2.5308,-2.5308,-2.5298,-2.5099,-2.5022,-2.501,-2.4889,-2.4832,-2.495,-2.6454,-2.7099,-2.7361,-2.8736,-2.9321,-2.9373,0.0,0.0,-3.7207,-3.7871,-3.7904,-3.7825,-3.7765,-3.7723,-3.7679,-3.7654,-3.7604,-3.7558,-3.7577,-3.7488,-3.7449,-3.7566,-3.6382,-3.5657,-3.57,-3.5834,-3.5913,-3.593,-3.5953,-3.5974,-3.5974,-3.5781,-3.5684,-3.5684,-3.5414,-3.4945,-3.4277,-3.4208,-3.3819,-3.3197,-3.3829,-3.4128,-3.4167,-3.4812,-3.5072,-3.5095,-3.5097,-3.5162,-3.5232,-3.5079,-3.5139,-3.5214,-3.4456,-3.4257,-3.435,-3.4375,-3.3945,-3.3516,-3.4159,-3.3905,-3.3139,-3.1934,-3.1584,-3.1445,-3.0781,-3.0558,-3.0513,-3.0507,-3.0498,-3.0436,-3.0215,-2.9582,-2.8786,-2.7853,-2.6985,-2.6148,-2.5423,-2.5333,-2.5363,-2.5303,-2.5333,-2.5363,-2.5303,-2.5135,0.0,0.0,-2.4827,-2.4466,-2.3855,-2.4351,-2.3981,0.0,0.0,0.0,0.0,-2.3451,-2.4043,-2.5269,-2.5308,-2.5308,-2.5308,-2.5308,-2.5274,-2.5224,-2.5224,-2.5259,-2.5308,-2.5308,-2.5308,-2.5303,-2.5253,-2.5224,-2.5219,-2.5187,-2.509,-2.4987,-2.5361,-2.6205,-2.7234,-2.7591,-2.8525,-2.9607,-3.7793,-3.7891,-3.8047,-3.8516,-3.8532,-3.8462,-3.8408,-3.8363,-3.8341,-3.8341,-3.8263,-3.821,-3.8276,-3.8164,-3.8135,-3.8248,-3.7374,-3.6717,-3.6418,-3.6866,-3.6968,-3.6601,-3.6582,-3.6582,-3.6582,-3.6191,-3.5996,-3.5996,-3.5952,-3.5694,-3.5246,-3.5168,-3.4888,-3.444,-3.4853,-3.5048,-3.5091,-3.5572,-3.5797,-3.578,-3.583,-3.5861,-3.5896,-3.5785,-3.5791,-3.5807,-3.5305,-3.5194,-3.5248,-3.5273,-3.498,-3.4668,-3.5156,-3.4961,-3.4394,-3.3456,-3.2643,-3.1939,-3.145,-3.1003,-3.0677,-3.0606,-3.0568,-3.0552,-3.0552,-2.9953,-2.9249,-2.8671,-2.7551,-2.6533,-2.5991,-2.5596,-2.5333,-2.5317,-2.533,-2.5329,-2.5317,-2.5308,0.0,-2.5308,-2.5308,-2.5135,-2.4697,-2.5038,-2.4731,-2.3346,-2.412,0.0,-2.3966,-2.4389,-2.4851,-2.5288,-2.5308,-2.5308,-2.5308,-2.5308,-2.5308,-2.5308,-2.5308,-2.5308,-2.5308,-2.5308,-2.5308,-2.5308,-2.5308,-2.5308,-2.5308,-2.5308,-2.5248,-2.5223,-2.6014,-2.6816,-2.7596,-2.8233,-2.8821,-2.9312,-3.8769,-3.8809,-3.8848,-3.8965,-3.8984,-3.8944,-3.8848,-3.8824,-3.8824,-3.8824,-3.8718,-3.8669,-3.8785,-3.8673,-3.8617,-3.8692,-3.8708,-3.8321,-3.7443,-3.816,-3.8262,-3.7539,-3.75,-3.7422,-3.7305,-3.6445,-3.5996,-3.5996,-3.5996,-3.5996,-3.5996,-3.5945,-3.5911,-3.591,-3.5807,-3.5744,-3.5747,-3.5877,-3.5911,-3.5914,-3.5975,-3.5972,-3.5911,-3.5905,-3.5841,-3.5769,-3.5851,-3.5907,-3.5917,-3.5975,-3.5996,-3.5996,-3.5996,-3.5996,-3.5859,-3.5117,-3.3809,-3.2559,-3.2422,-3.1738,-3.0993,-3.0755,-3.0657,-3.0623,-3.0623,-3.0107,-2.9552,-2.9276,-2.8097,-2.7001,-2.6651,-2.6,-2.5442,-2.5327,-2.5308,-2.5308,-2.5308,0.0,-2.5308,-2.5308,-2.5308,-2.5308,-2.5308,-2.5308,-2.5308,-2.5308,-2.5308,-2.5308,-2.5308,-2.5308,-2.5308,-2.5308,-2.5308,-2.5308,-2.5308,-2.5308,-2.5308,-2.5308,-2.5308,-2.5308,-2.5308,-2.5308,-2.5308,-2.5308,-2.5308,-2.5308,-2.5308,-2.5308,-2.5385,-2.5635,-2.7121,-2.7857,-2.8206,-2.9282,-2.9419,-2.9093,-3.9551,-3.9707,-3.9922,-4.0664,-4.0801,-4.0781,-4.0761,-4.0761,-4.0761,-4.0761,-4.0659,-4.0567,-4.0584,-4.0477,-4.045,-4.0569,-4.0574,-3.9915,-3.8325,-3.8452,-3.8535,-3.8398,-3.8398,-3.8047,-3.7324,-3.6445,-3.5996,-3.5996,-3.5996,-3.5996,-3.5996,-3.5996,-3.5976,-3.5976,-3.5955,-3.5954,-3.5954,-3.5975,-3.5976,-3.5995,-3.5996,-3.5996,-3.5975,-3.5916,-3.5919,-3.5952,-3.5913,-3.5942,-3.5995,-3.5996,-3.5996,-3.5996,-3.5996,-3.5996,-3.5976,-3.584,-3.5098,-3.4141,-3.3418,-3.2535,-3.1633,-3.0816,-3.0657,-3.0686,-3.0686,-3.0689,-3.0418,-2.9552,-2.9157,-2.8489,-2.6882,-2.6486,-2.6154,-2.5423,-2.5308,-2.5308,-2.5308,0.0,-2.5308,-2.5308,-2.5308,-2.5308,-2.5308,-2.5308,-2.5308,-2.5308,-2.5308,-2.5308,-2.5308,-2.5308,-2.5308,-2.5308,-2.5308,-2.5308,-2.5308,-2.5308,-2.5308,-2.5308,-2.5308,-2.5308,-2.5308,-2.5308,-2.5308,-2.5308,-2.5308,-2.5308,-2.5308,-2.5308,-2.5731,-2.6428,-2.6697,-2.7659,-2.8852,-2.8401,-2.9043,-3.0036,-4.0527,-4.0605,-4.0723,-4.1133,-4.1191,-4.1191,-4.1191,-4.1191,-4.1191,-4.1191,-4.1081,-4.1025,-4.1103,-4.099,-4.0959,-4.1102,-4.1104,-4.0773,-3.9954,-3.998,-3.9785,-3.9316,-3.9297,-3.8887,-3.8027,-3.7617,-3.7402,-3.7402,-3.7402,-3.7168,-3.6699,-3.6699,-3.6445,-3.5996,-3.5996,-3.5996,-3.5996,-3.5996,-3.5996,-3.5996,-3.5996,-3.5975,-3.5947,-3.5948,-3.5948,-3.5947,-3.5948,-3.5974,-3.5996,-3.5996,-3.5996,-3.5996,-3.5996,-3.5996,-3.5996,-3.5996,-3.5371,-3.4512,-3.3633,-3.2772,-3.2004,-3.1561,-3.1139,-3.0814,-3.0814,-3.0858,-3.0738,-3.0151,-2.9694,-2.9104,-2.814,-2.7217,-2.6626,-2.674,-2.5938,0.0,0.0,-2.5625,-2.5308,-2.5308,-2.5308,-2.5308,-2.5308,-2.5308,-2.5308,-2.5308,-2.5308,-2.5308,-2.5308,-2.5308,-2.5308,-2.5308,-2.5308,-2.5308,-2.5308,-2.5308,-2.5308,-2.5308,-2.5308,-2.5308,-2.5308,-2.5308,-2.5308,-2.5308,-2.5308,-2.5308,-2.5308,-2.5308,-2.5538,-2.5981,-2.6928,-2.7775,-2.853,-2.9044,-2.9448,-2.9706,-4.1191,-4.1191,-4.1191,-4.1191,-4.1191,-4.1191,-4.1191,-4.1191,-4.1191,-4.1191,-4.1105,-4.1081,-4.1191,-4.1105,-4.1081,-4.1191,-4.1191,-4.1191,-4.1191,-4.1191,-4.0898,-4.0234,-4.0019,-3.959,-3.8926,-3.8691,-3.8594,-3.8594,-3.8594,-3.8262,-3.7598,-3.7598,-3.7246,-3.6601,-3.6601,-3.6601,-3.6601,-3.6601,-3.6601,-3.6601,-3.6601,-3.6579,-3.6525,-3.6581,-3.6442,-3.6233,-3.6288,-3.6172,-3.5996,-3.5996,-3.5996,-3.5996,-3.5996,-3.5996,-3.5996,-3.5996,-3.5527,-3.4805,-3.3945,-3.3242,-3.2695,-3.2305,-3.1699,-3.1152,-3.0957,-3.0898,-3.0836,-3.0636,-3.01,-2.9574,-2.9183,-2.8077,-2.7301,-2.7629,0.0,0.0,0.0,-2.6053,-2.5596,-2.5596,-2.5596,-2.5519,-2.5327,-2.5308,-2.5308,-2.5308,-2.5308,-2.5308,-2.5308,-2.5308,-2.5308,-2.5308,-2.5308,-2.5308,-2.5308,-2.5308,-2.5308,-2.5308,-2.5308,-2.5308,-2.5308,-2.5308,-2.5308,-2.5308,-2.5308,-2.5308,-2.5308,-2.5308,-2.5423,-2.5769,-2.7294,-2.8011,-2.8338,-2.9621,-2.9794,-2.9467,-4.1191,-4.1191,-4.1191,-4.1191,-4.1191,-4.1191,-4.1191,-4.1191,-4.1191,-4.1191,-4.1191,-4.1191,-4.1191,-4.1191,-4.1191,-4.1191,-4.1191,-4.1191,-4.1191,-4.1191,-4.1172,-4.1113,-4.0332,-3.9863,-3.9805,-3.9004,-3.8594,-3.8594,-3.8594,-3.8574,-3.8496,-3.8496,-3.8476,-3.8418,-3.8418,-3.8418,-3.8418,-3.8418,-3.8418,-3.8418,-3.8418,-3.8418,-3.8398,-3.8418,-3.7891,-3.7207,-3.7207,-3.6699,-3.5996,-3.5996,-3.5996,-3.5996,-3.5996,-3.5996,-3.5996,-3.5996,-3.5957,-3.5703,-3.4844,-3.4551,-3.4141,-3.2598,-3.2148,-3.1894,-3.1074,-3.0898,-3.0836,-3.0636,-3.0544,-3.0247,-2.9353,-2.9096,-2.8523,-2.7044,0.0,0.0,-2.6612,-2.6549,-2.6505,-2.6505,-2.6505,-2.6192,-2.5385,-2.5308,-2.5308,-2.5308,-2.5308,-2.5308,-2.5308,-2.5308,-2.5308,-2.5308,-2.5308,-2.5308,-2.5308,-2.5308,-2.5308,-2.5308,-2.5308,-2.5308,-2.5308,-2.5308,-2.5308,-2.5308,-2.5308,-2.5308,-2.5308,-2.5308,-2.5788,-2.6601,-2.7525,-2.8357,-2.903,-2.9146,-2.9679,-3.0192,-4.1191,-4.1191,-4.1191,-4.1191,-4.1191,-4.1191,-4.1191,-4.1191,-4.1191,-4.1191,-4.1191,-4.1191,-4.1191,-4.1191,-4.1191,-4.1191,-4.1191,-4.1191,-4.1191,-4.1191,-4.1191,-4.1191,-4.0879,-4.0703,-4.0703,-4.0371,-4.0215,-4.0215,-4.0215,-3.9941,-3.9414,-3.9414,-3.9121,-3.8594,-3.8594,-3.8594,-3.8594,-3.8594,-3.8594,-3.8594,-3.8594,-3.8594,-3.8594,-3.8594,-3.8398,-3.8105,-3.8105,-3.7891,-3.7539,-3.6992,-3.6816,-3.6719,-3.6172,-3.5996,-3.5996,-3.5996,-3.5996,-3.5937,-3.5605,-3.5117,-3.4551,-3.3906,-3.2969,-3.2109,-3.1777,-3.1289,-3.0857,-3.0682,-3.0667,-3.0533,-3.0147,-2.9667,-2.9282,-2.9146,0.0,-2.7667,-2.8143,-2.7754,-2.7409,-2.7409,-2.7409,-2.7274,-2.6948,-2.6428,-2.6115,-2.6115,-2.5615,-2.5308,-2.5308,-2.5308,-2.5308,-2.5308,-2.5308,-2.5308,-2.5308,-2.5308,-2.5308,-2.5308,-2.5308,-2.5308,-2.5308,-2.5308,-2.5308,-2.5308,-2.5308,-2.5308,-2.5308,-2.5308,-2.55,-2.5885,-2.6755,-2.7601,-2.8415,-2.8915,-2.964,-3.0346,-4.1191,-4.1191,-4.1191,-4.1191,-4.1191,-4.1191,-4.1191,-4.1191,-4.1191,-4.1191,-4.1191,-4.1191,-4.1191,-4.1191,-4.1191,-4.1191,-4.1191,-4.1191,-4.1191,-4.1191,-4.1191,-4.1191,-4.1191,-4.1191,-4.1191,-4.1191,-4.1191,-4.1191,-4.1191,-4.0898,-4.0312,-4.0312,-3.998,-3.9414,-3.9414,-3.9414,-3.9414,-3.9414,-3.9414,-3.9414,-3.9414,-3.9414,-3.9414,-3.9414,-3.9258,-3.9004,-3.9004,-3.8828,-3.8516,-3.791,-3.7715,-3.7598,-3.6992,-3.6621,-3.6348,-3.6074,-3.5996,-3.5996,-3.5996,-3.5566,-3.5039,-3.4766,-3.3848,-3.2851,-3.2324,-3.1738,-3.119,-3.0781,-3.0695,-3.0686,-3.0648,-3.0175,-2.9898,-3.0183,-2.9224,-2.8617,-2.9104,-2.8651,-2.828,-2.828,-2.828,-2.8184,-2.7915,-2.7351,-2.7005,-2.7005,-2.6447,-2.6,-2.5712,-2.5442,-2.5308,-2.5308,-2.5308,-2.5308,-2.5308,-2.5308,-2.5308,-2.5308,-2.5308,-2.5308,-2.5308,-2.5308,-2.5308,-2.5308,-2.5308,-2.5308,-2.5308,-2.5308,-2.5308,-2.5404,-2.6563,-2.7371,-2.803,-2.9102,-2.989,-3.0404,-4.1191,-4.1191,-4.1191,-4.1191,-4.1191,-4.1191,-4.1191,-4.1191,-4.1191,-4.1191,-4.1191,-4.1191,-4.1191,-4.1191,-4.1191,-4.1191,-4.1191,-4.1191,-4.1191,-4.1191,-4.1191,-4.1191,-4.1191,-4.1191,-4.1191,-4.1191,-4.1191,-4.1191,-4.1191,-4.1191,-4.1191,-4.1191,-4.1191,-4.1191,-4.1191,-4.1191,-4.1191,-4.1191,-4.1191,-4.1191,-4.1191,-4.1191,-4.1191,-4.1191,-4.0664,-3.9902,-3.9902,-3.9355,-3.8613,-3.8613,-3.8613,-3.8613,-3.8594,-3.8008,-3.7129,-3.6269,-3.6016,-3.5996,-3.5996,-3.5996,-3.5781,-3.4922,-3.4707,-3.4258,-3.2598,-3.2207,-3.1913,-3.0917,-3.0716,-3.0716,-3.0696,-3.0696,-3.0429,-2.9554,-2.9405,-2.9347,-2.9131,-2.9107,-2.9107,-2.9113,-2.9107,-2.88,-2.7992,-2.7915,-2.7915,-2.7915,-2.7895,-2.7525,-2.6659,-2.5788,-2.5327,-2.5327,-2.5308,-2.5308,-2.5308,-2.5308,-2.5308,-2.5308,-2.5308,-2.5308,-2.5308,-2.5308,-2.5308,-2.5308,-2.5308,-2.5308,-2.5308,-2.5308,-2.5308,-2.55,-2.7217,-2.7895,-2.8102,-2.9769,-3.0385,-3.0404,-4.1191,-4.1191,-4.1191,-4.1191,-4.1191,-4.1191,-4.1191,-4.1191,-4.1191,-4.1191,-4.1191,-4.1191,-4.1191,-4.1191,-4.1191,-4.1191,-4.1191,-4.1191,-4.1191,-4.1191,-4.1191,-4.1191,-4.1191,-4.1191,-4.1191,-4.1191,-4.1191,-4.1191,-4.1191,-4.1191,-4.1191,-4.1191,-4.1191,-4.1191,-4.1191,-4.1191,-4.1191,-4.1191,-4.1191,-4.1191,-4.1191,-4.1191,-4.1191,-4.1191,-4.1035,-4.0801,-4.0801,-4.0644,-4.0332,-3.9726,-3.9512,-3.9414,-3.8789,-3.8008,-3.7246,-3.6992,-3.6484,-3.5996,-3.5996,-3.5996,-3.5937,-3.5684,-3.5156,-3.457,-3.4062,-3.3476,-3.2793,-3.1932,-3.1755,-3.158,-3.0955,-3.0837,-3.0715,-3.0372,-3.027,-3.0221,-3.0167,-3.0115,-3.0094,-3.0149,-3.0111,-2.9984,-2.9752,-2.9128,-2.8742,-2.8742,-2.8222,-2.7799,-2.7525,-2.7274,-2.7121,-2.7121,-2.6524,-2.6212,-2.6212,-2.5615,-2.5308,-2.5308,-2.5308,-2.5308,-2.5308,-2.5308,-2.5308,-2.5327,-2.5942,-2.6212,-2.6212,-2.6212,-2.6563,-2.7121,-2.7024,-2.7717,-2.88,-2.9294,-2.9871,-3.0404,-4.1191,-4.1191,-4.1191,-4.1191,-4.1191,-4.1191,-4.1191,-4.1191,-4.1191,-4.1191,-4.1191,-4.1191,-4.1191,-4.1191,-4.1191,-4.1191,-4.1191,-4.1191,-4.1191,-4.1191,-4.1191,-4.1191,-4.1191,-4.1191,-4.1191,-4.1191,-4.1191,-4.1191,-4.1191,-4.1191,-4.1191,-4.1191,-4.1191,-4.1191,-4.1191,-4.1191,-4.1191,-4.1191,-4.1191,-4.1191,-4.1191,-4.1191,-4.1191,-4.1191,-4.1191,-4.1191,-4.1191,-4.1191,-4.1113,-4.0586,-4.041,-4.0254,-3.9394,-3.875,-3.8184,-3.75,-3.6934,-3.6445,-3.6094,-3.5996,-3.5996,-3.5996,-3.5605,-3.5117,-3.4785,-3.4297,-3.3672,-3.2851,-3.2422,-3.2031,-3.1504,-3.1133,-3.0858,-3.072,-3.0671,-3.0638,-3.0609,-3.0561,-3.0547,-3.0597,-3.0545,-3.0498,-3.0498,-2.9989,-2.9655,-2.9655,-2.8851,-2.8376,-2.8376,-2.8068,-2.7895,-2.7895,-2.739,-2.7101,-2.7101,-2.6601,-2.6154,-2.5808,-2.5808,-2.5981,-2.6327,-2.6327,-2.6327,-2.6365,-2.689,-2.7101,-2.7101,-2.7101,-2.7409,-2.7876,-2.7659,-2.8203,-2.9146,-2.9486,-2.9948,-3.0404,-4.1191,-4.1191,-4.1191,-4.1191,-4.1191,-4.1191,-4.1191,-4.1191,-4.1191,-4.1191,-4.1191,-4.1191,-4.1191,-4.1191,-4.1191,-4.1191,-4.1191,-4.1191,-4.1191,-4.1191,-4.1191,-4.1191,-4.1191,-4.1191,-4.1191,-4.1191,-4.1191,-4.1191,-4.1191,-4.1191,-4.1191,-4.1191,-4.1191,-4.1191,-4.1191,-4.1191,-4.1191,-4.1191,-4.1191,-4.1191,-4.1191,-4.1191,-4.1191,-4.1191,-4.1191,-4.1191,-4.1191,-4.1191,-4.1191,-4.1191,-4.1191,-4.1055,-4.0273,-3.9961,-3.959,-3.8008,-3.7422,-3.7129,-3.6328,-3.6055,-3.5996,-3.5996,-3.5996,-3.5781,-3.5,-3.4824,-3.457,-3.3691,-3.293,-3.2383,-3.2226,-3.1543,-3.0956,-3.0744,-3.0717,-3.0682,-3.0633,-3.062,-3.0617,-3.0623,-3.0554,-3.0513,-3.0513,-3.0501,-3.0516,-3.0516,-2.9719,-2.9222,-2.9222,-2.8548,-2.8139,-2.8128,-2.8065,-2.8002,-2.8011,-2.7934,-2.7505,-2.6717,-2.6717,-2.7121,-2.7895,-2.7895,-2.7895,-2.7895,-2.7972,-2.8011,-2.8011,-2.8011,-2.8049,-2.8179,-2.8838,-2.9146,-2.9319,-3.0115,-3.0404,-3.0404,-4.1191,-4.1191,-4.1191,-4.1191,-4.1191,-4.1191,-4.1191,-4.1191,-4.1191,-4.1191,-4.1191,-4.1191,-4.1191,-4.1191,-4.1191,-4.1191,-4.1191,-4.1191,-4.1191,-4.1191,-4.1191,-4.1191,-4.1191,-4.1191,-4.1191,-4.1191,-4.1191,-4.1191,-4.1191,-4.1191,-4.1191,-4.1191,-4.1191,-4.1191,-4.1191,-4.1191,-4.1191,-4.1191,-4.1191,-4.1191,-4.1191,-4.1191,-4.1191,-4.1191,-4.1191,-4.1191,-4.1191,-4.1191,-4.1191,-4.1191,-4.1191,-4.1172,-4.0976,-4.0449,-3.9824,-3.9453,-3.8379,-3.7266,-3.707,-3.6523,-3.5996,-3.5996,-3.5996,-3.5957,-3.5762,-3.5723,-3.5469,-3.4609,-3.4277,-3.3769,-3.2441,-3.2051,-3.1699,-3.0976,-3.077,-3.0721,-3.0814,-3.0739,-3.0713,-3.0813,-3.0732,-3.0665,-3.0665,-3.0617,-3.0578,-3.0578,-3.0386,-3.0279,-3.0279,-3.0104,-2.9994,-2.9945,-2.9268,-2.8888,-2.8838,-2.8203,-2.7818,-2.7621,-2.7621,-2.7722,-2.7895,-2.7895,-2.7895,-2.7934,-2.8569,-2.8838,-2.8838,-2.8838,-2.9236,-2.9808,-2.9294,-2.9525,-3.0135,-3.0327,-3.0404,-3.0404,-4.1191,-4.115,-4.1127,-4.1191,-4.1191,-4.1191,-4.1191,-4.1191,-4.1348,-4.1719,-4.1777,-4.1933,-4.2344,-4.2383,-4.2382,-4.2354,-4.2362,-4.2382,-4.2353,-4.2362,-4.2383,-4.2383,-4.2359,-4.2333,-4.2333,-4.2275,-4.1894,-4.1191,-4.1191,-4.1191,-4.1191,-4.1191,-4.1191,-4.1191,-4.1191,-4.1191,-4.1191,-4.1191,-4.1191,-4.1191,-4.1191,-4.1191,-4.1191,-4.1191,-4.1191,-4.1191,-4.1191,-4.1191,-4.1191,-4.1191,-4.1191,-4.1191,-4.1191,-4.0898,-4.0449,-4.0019,-3.9258,-3.8359,-3.7539,-3.6973,-3.6523,-3.6094,-3.5996,-3.5996,-3.5996,-3.5996,-3.5879,-3.541,-3.498,-3.4434,-3.3555,-3.2734,-3.2051,-3.1582,-3.1111,-3.0816,-3.0898,-3.0837,-3.0816,-3.0898,-3.0771,-3.0695,-3.0695,-3.0648,-3.062,-3.0652,-3.0625,-3.0603,-3.0603,-3.0603,-3.0584,-3.0556,-3.0113,-2.983,-2.9767,-2.9342,-2.9114,-2.9083,-2.8659,-2.8679,-2.9083,-2.9083,-2.9083,-2.9121,-2.9544,-2.9717,-2.9717,-2.9717,-2.9981,-3.0346,-2.991,-2.9737,-2.9833,-3.025,-3.0404,-3.0404,-4.1105,-4.1172,-4.1262,-4.1364,-4.1523,-4.1621,-4.16,-4.1621,-4.1855,-4.2518,-4.2617,-4.2891,-4.3613,-4.3691,-4.3664,-4.3591,-4.3641,-4.3664,-4.3591,-4.3642,-4.3691,-4.3691,-4.3606,-4.3575,-4.3606,-4.3467,-4.2818,-4.1619,-4.1619,-4.162,-4.1621,-4.1621,-4.1543,-4.1406,-4.1406,-4.1328,-4.1191,-4.1191,-4.1191,-4.1191,-4.1191,-4.1191,-4.1191,-4.1191,-4.1191,-4.1191,-4.1191,-4.1191,-4.1191,-4.1191,-4.1191,-4.1191,-4.1191,-4.1191,-4.1055,-4.0332,-4.0019,-3.957,-3.8144,-3.7539,-3.7129,-3.6406,-3.6113,-3.5996,-3.5996,-3.5996,-3.5996,-3.5996,-3.543,-3.4883,-3.4726,-3.3555,-3.2539,-3.2246,-3.1582,-3.1074,-3.0918,-3.0898,-3.0898,-3.0898,-3.0794,-3.0723,-3.0723,-3.0671,-3.0663,-3.0721,-3.0689,-3.0641,-3.0641,-3.0641,-3.0636,-3.0625,-3.0623,-3.0587,-3.0509,-3.0511,-3.0467,-3.0406,-2.9679,-2.9707,-3.0404,-3.0404,-3.0404,-3.0404,-3.0404,-3.0404,-3.0385,-3.0231,-3.0173,-3.0154,-3.0038,-2.9621,-2.9184,-2.991,-3.0173,-3.0154,-4.0857,-4.1532,-4.2132,-4.2158,-4.2826,-4.3338,-4.3273,-4.3314,-4.3377,-4.3429,-4.349,-4.3574,-4.3691,-4.3659,-4.3615,-4.3606,-4.3613,-4.3615,-4.3606,-4.3615,-4.3636,-4.3691,-4.3529,-4.3477,-4.3604,-4.3467,-4.3353,-4.3285,-4.3285,-4.3305,-4.3359,-4.3359,-4.2969,-4.2246,-4.2246,-4.1855,-4.1191,-4.1191,-4.1191,-4.1191,-4.1191,-4.1191,-4.1191,-4.1191,-4.1191,-4.1191,-4.1191,-4.1191,-4.1191,-4.1191,-4.1191,-4.1191,-4.1191,-4.1191,-4.1172,-4.1055,-4.0488,-3.9844,-3.9609,-3.8457,-3.7266,-3.7148,-3.6562,-3.5996,-3.5996,-3.5996,-3.5996,-3.5996,-3.5918,-3.5586,-3.4844,-3.4512,-3.3887,-3.2441,-3.2109,-3.1758,-3.1016,-3.0898,-3.0898,-3.0898,-3.0879,-3.0878,-3.0878,-3.0858,-3.0858,-3.0878,-3.0858,-3.0857,-3.0857,-3.0857,-3.0812,-3.0687,-3.0687,-3.0642,-3.0587,-3.0529,-3.0494,-3.0495,-3.036,-3.0337,-3.0404,-3.0404,-3.0404,-3.0404,-3.0404,-3.0404,-3.0346,-2.9583,-2.928,-2.9204,-2.8506,-2.8588,-2.9107,-2.9223,-2.928,-2.9184,-4.2235,-4.2551,-4.2856,-4.2993,-4.3374,-4.3632,-4.3591,-4.3627,-4.3788,-4.4216,-4.4291,-4.4498,-4.4986,-4.4941,-4.4869,-4.4826,-4.4861,-4.4869,-4.4826,-4.4861,-4.491,-4.4924,-4.4816,-4.4777,-4.4836,-4.4697,-4.4691,-4.4841,-4.3923,-4.3546,-4.3639,-4.3639,-4.3451,-4.3125,-4.3125,-4.293,-4.2598,-4.2598,-4.2324,-4.1875,-4.1875,-4.1601,-4.1191,-4.1191,-4.1191,-4.1191,-4.1191,-4.1191,-4.1191,-4.1191,-4.1191,-4.1191,-4.1191,-4.1191,-4.1191,-4.1191,-4.0937,-4.0527,-4.0039,-3.9336,-3.8516,-3.7539,-3.7012,-3.6601,-3.6113,-3.5996,-3.5996,-3.5996,-3.5996,-3.5879,-3.5508,-3.5039,-3.4453,-3.3711,-3.2812,-3.207,-3.168,-3.1211,-3.0898,-3.0898,-3.0898,-3.0898,-3.0898,-3.0898,-3.0898,-3.0898,-3.0898,-3.0898,-3.0898,-3.0898,-3.0878,-3.0815,-3.0815,-3.0765,-3.0663,-3.0636,-3.06,-3.0567,-3.0567,-3.0498,-3.0404,-3.0436,-3.0449,-3.0404,-3.0404,-3.0115,-2.964,-2.9261,-2.8838,-2.8396,-2.8049,-2.8126,-2.8376,-2.7871,-2.8005,-2.8376]},{"header":{"parameterUnit":"m.s-1","parameterCategory":1,"la1":30.6,"la2":28.766,"lo1":-90.7593,"lo2":-88.6598,"dy":0.0162,"dx":0.0183,"nx":116,"ny":114,"refTime":"2024-06-08T12:00:00:Z","depth":0,"parameterNumber":3,"parameterNumberName":"V-component_of_WINDS"},"data":[0.0,0.0,0.0,0.0,0.0,0.0,0.0,0.0,0.0,0.0,0.0,0.0,0.0,0.0,0.0,0.0,0.0,0.0,0.0,0.0,0.0,0.0,0.0,0.0,0.0,0.0,0.0,0.0,0.0,0.0,0.0,0.0,0.0,0.0,0.0,0.0,0.0,0.0,0.0,0.0,0.0,0.0,0.0,0.0,0.0,0.0,0.0,0.0,0.0,0.0,0.0,0.0,0.0,0.0,0.0,0.0,0.0,0.0,0.0,0.0,0.0,0.0,0.0,0.0,0.0,0.0,0.0,0.0,0.0,0.0,0.0,0.0,0.0,0.0,0.0,0.0,0.0,0.0,0.0,0.0,0.0,0.0,0.0,0.0,0.0,0.0,0.0,0.0,0.0,0.0,0.0,0.0,0.0,0.0,0.0,0.0,0.0,0.0,0.0,0.0,0.0,0.0,0.0,0.0,0.0,0.0,0.0,0.0,0.0,0.0,0.0,0.0,0.0,0.0,0.0,0.0,0.0,0.0,0.0,0.0,0.0,0.0,0.0,0.0,0.0,0.0,0.0,0.0,0.0,0.0,0.0,0.0,0.0,0.0,0.0,0.0,0.0,0.0,0.0,0.0,0.0,0.0,0.0,0.0,0.0,0.0,0.0,0.0,0.0,0.0,0.0,0.0,0.0,0.0,0.0,0.0,0.0,0.0,0.0,0.0,0.0,0.0,0.0,0.0,0.0,0.0,0.0,0.0,0.0,0.0,0.0,0.0,0.0,0.0,0.0,0.0,0.0,0.0,0.0,0.0,0.0,0.0,0.0,0.0,0.0,0.0,0.0,0.0,0.0,0.0,0.0,0.0,0.0,0.0,0.0,0.0,0.0,0.0,0.0,0.0,0.0,0.0,0.0,0.0,0.0,0.0,0.0,0.0,0.0,0.0,0.0,0.0,0.0,0.0,0.0,0.0,0.0,0.0,0.0,0.0,0.0,0.0,0.0,0.0,0.0,0.0,0.0,0.0,0.0,0.0,0.0,0.0,0.0,0.0,0.0,0.0,0.0,0.0,0.0,0.0,0.0,0.0,0.0,0.0,0.0,0.0,0.0,0.0,0.0,0.0,0.0,0.0,0.0,0.0,0.0,0.0,0.0,0.0,0.0,0.0,0.0,0.0,0.0,0.0,0.0,0.0,0.0,0.0,0.0,0.0,0.0,0.0,0.0,0.0,0.0,0.0,0.0,0.0,0.0,0.0,0.0,0.0,0.0,0.0,0.0,0.0,0.0,0.0,0.0,0.0,0.0,0.0,0.0,0.0,0.0,0.0,0.0,0.0,0.0,0.0,0.0,0.0,0.0,0.0,0.0,0.0,0.0,0.0,0.0,0.0,0.0,0.0,0.0,0.0,0.0,0.0,0.0,0.0,0.0,0.0,0.0,0.0,0.0,0.0,0.0,0.0,0.0,0.0,0.0,0.0,0.0,0.0,0.0,0.0,0.0,0.0,0.0,0.0,0.0,0.0,0.0,0.0,0.0,0.0,0.0,0.0,0.0,0.0,0.0,0.0,0.0,0.0,0.0,0.0,0.0,0.0,0.0,0.0,0.0,0.0,0.0,0.0,0.0,0.0,0.0,0.0,0.0,0.0,0.0,0.0,0.0,0.0,0.0,0.0,0.0,0.0,0.0,0.0,0.0,0.0,0.0,0.0,0.0,0.0,0.0,0.0,0.0,0.0,0.0,0.0,0.0,0.0,0.0,0.0,0.0,0.0,0.0,0.0,0.0,0.0,0.0,0.0,0.0,0.0,0.0,0.0,0.0,0.0,0.0,0.0,0.0,0.0,0.0,0.0,0.0,0.0,0.0,0.0,0.0,0.0,0.0,0.0,0.0,0.0,0.0,0.0,0.0,0.0,0.0,0.0,0.0,0.0,0.0,0.0,0.0,0.0,0.0,0.0,0.0,0.0,0.0,0.0,0.0,0.0,0.0,0.0,0.0,0.0,0.0,0.0,0.0,0.0,0.0,0.0,0.0,0.0,0.0,0.0,0.0,0.0,0.0,0.0,0.0,0.0,0.0,0.0,0.0,0.0,0.0,0.0,0.0,0.0,0.0,0.0,0.0,0.0,0.0,0.0,0.0,0.0,0.0,0.0,0.0,0.0,0.0,0.0,0.0,0.0,0.0,0.0,0.0,0.0,0.0,0.0,0.0,0.0,0.0,0.0,0.0,0.0,0.0,0.0,0.0,0.0,0.0,0.0,0.0,0.0,0.0,0.0,0.0,0.0,0.0,0.0,0.0,0.0,0.0,0.0,0.0,0.0,0.0,0.0,0.0,0.0,0.0,0.0,0.0,0.0,0.0,0.0,0.0,0.0,0.0,0.0,0.0,0.0,0.0,0.0,0.0,0.0,0.0,0.0,0.0,0.0,0.0,0.0,0.0,0.0,0.0,0.0,0.0,0.0,0.0,0.0,0.0,0.0,0.0,0.0,0.0,0.0,0.0,0.0,0.0,0.0,0.0,0.0,0.0,0.0,0.0,0.0,0.0,0.0,0.0,0.0,0.0,0.0,0.0,0.0,0.0,0.0,0.0,0.0,0.0,0.0,0.0,0.0,0.0,0.0,0.0,0.0,0.0,0.0,0.0,0.0,0.0,0.0,0.0,0.0,0.0,0.0,0.0,0.0,0.0,0.0,0.0,0.0,0.0,0.0,0.0,0.0,0.0,0.0,0.0,0.0,0.0,0.0,0.0,0.0,0.0,0.0,0.0,0.0,0.0,0.0,0.0,0.0,0.0,0.0,0.0,0.0,0.0,0.0,0.0,0.0,0.0,0.0,0.0,0.0,0.0,0.0,0.0,0.0,0.0,0.0,0.0,0.0,0.0,0.0,0.0,0.0,0.0,0.0,0.0,0.0,0.0,0.0,0.0,0.0,0.0,0.0,0.0,0.0,0.0,0.0,0.0,0.0,0.0,0.0,0.0,0.0,0.0,0.0,0.0,0.0,0.0,0.0,0.0,0.0,0.0,0.0,0.0,0.0,0.0,0.0,0.0,0.0,0.0,0.0,0.0,0.0,0.0,0.0,0.0,0.0,0.0,0.0,0.0,0.0,0.0,0.0,0.0,0.0,0.0,0.0,0.0,0.0,0.0,0.0,0.0,0.0,0.0,0.0,0.0,0.0,0.0,0.0,0.0,0.0,0.0,0.0,0.0,0.0,0.0,0.0,0.0,0.0,0.0,0.0,0.0,0.0,0.0,0.0,0.0,0.0,0.0,0.0,0.0,0.0,0.0,0.0,0.0,0.0,0.0,0.0,0.0,0.0,0.0,0.0,0.0,0.0,0.0,0.0,0.0,0.0,0.0,0.0,0.0,0.0,0.0,0.0,0.0,0.0,0.0,0.0,0.0,0.0,0.0,0.0,0.0,0.0,0.0,0.0,0.0,0.0,0.0,0.0,0.0,0.0,0.0,0.0,0.0,0.0,0.0,0.0,0.0,0.0,0.0,0.0,0.0,0.0,0.0,0.0,0.0,0.0,0.0,0.0,0.0,0.0,0.0,0.0,0.0,0.0,0.0,0.0,0.0,0.0,0.0,0.0,0.0,0.0,0.0,0.0,0.0,0.0,0.0,0.0,0.0,0.0,0.0,0.0,0.0,0.0,0.0,0.0,0.0,0.0,0.0,0.0,0.0,0.0,0.0,0.0,0.0,0.0,0.0,0.0,0.0,0.0,0.0,0.0,0.0,0.0,0.0,0.0,0.0,0.0,0.0,0.0,0.0,0.0,0.0,0.0,0.0,0.0,0.0,0.0,0.0,0.0,0.0,0.0,0.0,0.0,0.0,0.0,0.0,0.0,0.0,0.0,0.0,0.0,0.0,0.0,0.0,0.0,0.0,0.0,0.0,0.0,0.0,0.0,0.0,0.0,0.0,0.0,0.0,0.0,0.0,0.0,0.0,0.0,0.0,0.0,0.0,0.0,0.0,0.0,0.0,0.0,0.0,0.0,0.0,0.0,0.0,0.0,0.0,0.0,0.0,0.0,0.0,0.0,0.0,0.0,0.0,0.0,0.0,0.0,0.0,0.0,0.0,0.0,0.0,0.0,0.0,0.0,0.0,0.0,0.0,0.0,0.0,0.0,0.0,0.0,0.0,0.0,0.0,0.0,0.0,0.0,0.0,0.0,0.0,0.0,0.0,0.0,0.0,0.0,0.0,0.0,0.0,0.0,0.0,0.0,0.0,0.0,0.0,0.0,0.0,0.0,0.0,0.0,0.0,0.0,0.0,0.0,0.0,0.0,0.0,0.0,0.0,0.0,0.0,0.0,0.0,0.0,0.0,0.0,0.0,0.0,0.0,0.0,0.0,0.0,0.0,0.0,0.0,0.0,0.0,0.0,0.0,0.0,0.0,0.0,0.0,0.0,0.0,0.0,0.0,0.0,0.0,0.0,0.0,0.0,0.0,0.0,0.0,0.0,0.0,0.0,0.0,0.0,0.0,0.0,0.0,0.0,0.0,0.0,0.0,0.0,0.0,0.0,0.0,0.0,0.0,0.0,0.0,0.0,0.0,0.0,0.0,0.0,0.0,0.0,0.0,0.0,0.0,0.0,0.0,0.0,0.0,0.0,0.0,0.0,0.0,0.0,0.0,0.0,0.0,0.0,0.0,0.0,0.0,0.0,0.0,0.0,0.0,0.0,0.0,0.0,0.0,0.0,0.0,0.0,0.0,0.0,0.0,0.0,0.0,0.0,0.0,0.0,0.0,0.0,0.0,0.0,0.0,0.0,0.0,0.0,0.0,0.0,0.0,0.0,0.0,0.0,0.0,0.0,0.0,0.0,0.0,0.0,0.0,0.0,0.0,0.0,0.0,0.0,0.0,0.0,0.0,0.0,0.0,0.0,0.0,0.0,0.0,0.0,0.0,0.0,0.0,0.0,0.0,0.0,0.0,0.0,0.0,0.0,0.0,0.0,0.0,0.0,0.0,0.0,0.0,0.0,0.0,0.0,0.0,0.0,0.0,0.0,0.0,0.0,0.0,0.0,0.0,0.0,0.0,0.0,0.0,0.0,0.0,0.0,0.0,0.0,0.0,0.0,0.0,0.0,0.0,0.0,0.0,0.0,0.0,0.0,0.0,0.0,0.0,0.0,0.0,0.0,0.0,0.0,0.0,0.0,0.0,0.0,0.0,0.0,0.0,0.0,0.0,0.0,0.0,0.0,0.0,0.0,0.0,0.0,0.0,0.0,0.0,0.0,0.0,0.0,0.0,0.0,0.0,0.0,0.0,0.0,0.0,0.0,0.0,0.0,0.0,0.0,0.0,0.0,0.0,0.0,0.0,0.0,0.0,0.0,0.0,0.0,0.0,0.0,0.0,0.0,0.0,0.0,0.0,0.0,0.0,0.0,0.0,0.0,0.0,0.0,0.0,0.0,0.0,0.0,0.0,0.0,0.0,0.0,0.0,0.0,0.0,0.0,0.0,0.0,0.0,0.0,0.0,0.0,0.0,0.0,0.0,0.0,0.0,0.0,0.0,0.0,0.0,0.0,0.0,0.0,0.0,0.0,0.0,0.0,0.0,0.0,0.0,0.0,0.0,0.0,0.0,0.0,0.0,0.0,0.0,0.0,0.0,0.0,0.0,0.0,0.0,0.0,0.0,0.0,0.0,0.0,0.0,0.0,0.0,0.0,0.0,0.0,0.0,0.0,0.0,0.0,0.0,0.0,0.0,0.0,0.0,0.0,0.0,0.0,0.0,0.0,0.0,0.0,0.0,0.0,0.0,0.0,0.0,0.0,0.0,0.0,0.0,0.0,0.0,0.0,0.0,0.0,0.0,0.0,0.0,0.0,0.0,0.0,0.0,0.0,0.0,0.0,0.0,0.0,0.0,0.0,0.0,0.0,0.0,0.0,0.0,0.0,0.0,0.0,0.0,0.0,0.0,0.0,0.0,0.0,0.0,0.0,0.0,0.0,0.0,0.0,0.0,0.0,0.0,0.0,0.0,0.0,0.0,0.0,0.0,0.0,0.0,0.0,0.0,0.0,0.0,0.0,0.0,0.0,0.0,0.0,0.0,0.0,0.0,0.0,0.0,0.0,0.0,0.0,0.0,0.0,0.0,0.0,0.0,0.0,-1.237,0.0,0.0,0.0,0.0,0.0,0.0,0.0,0.0,0.0,0.0,0.0,0.0,0.0,0.0,0.0,0.0,0.0,0.0,0.0,0.0,0.0,0.0,0.0,0.0,-0.6599,-0.6599,-0.6599,-0.6693,-0.6828,-0.7023,0.0,0.0,0.0,0.0,0.0,-0.7753,-0.7856,-0.8147,-0.8666,-0.9153,-1.0198,-1.1775,-1.1741,-1.1407,-1.0802,0.0,0.0,0.0,0.0,0.0,0.0,0.0,0.0,0.0,0.0,0.0,0.0,0.0,0.0,0.0,0.0,0.0,0.0,0.0,0.0,0.0,0.0,0.0,0.0,0.0,0.0,0.0,0.0,0.0,0.0,0.0,0.0,0.0,0.0,0.0,0.0,0.0,0.0,0.0,0.0,0.0,0.0,0.0,0.0,0.0,0.0,0.0,0.0,0.0,0.0,0.0,0.0,0.0,0.0,0.0,0.0,0.0,0.0,0.0,0.0,0.0,0.0,0.0,0.0,0.0,0.0,0.0,0.0,0.0,0.0,0.0,-1.3885,0.0,0.0,0.0,0.0,0.0,0.0,0.0,0.0,0.0,0.0,0.0,0.0,0.0,0.0,0.0,0.0,0.0,0.0,0.0,0.0,0.0,-0.6599,-0.6599,-0.6599,-0.6637,-0.6737,-0.6941,-0.7156,-0.7337,-0.7603,0.0,0.0,0.0,-0.7871,-0.7825,-0.8109,-0.8799,-0.9904,-1.0589,-1.2089,-1.432,-1.4992,-1.4369,-1.2677,-1.2337,0.0,0.0,0.0,0.0,0.0,0.0,0.0,0.0,0.0,0.0,0.0,0.0,0.0,0.0,0.0,0.0,0.0,0.0,0.0,0.0,0.0,0.0,0.0,0.0,0.0,0.0,0.0,0.0,0.0,0.0,0.0,0.0,0.0,0.0,0.0,0.0,0.0,0.0,0.0,0.0,0.0,0.0,0.0,0.0,0.0,0.0,0.0,0.0,0.0,0.0,0.0,0.0,0.0,0.0,0.0,0.0,0.0,0.0,0.0,0.0,0.0,0.0,0.0,-1.9105,-1.9472,-1.9083,-1.9509,-1.971,-1.961,-1.779,-1.6722,-1.6233,0.0,0.0,0.0,0.0,0.0,0.0,0.0,0.0,0.0,0.0,0.0,0.0,0.0,0.0,0.0,0.0,0.0,0.0,0.0,0.0,-0.6599,-0.6599,-0.6599,-0.6778,-0.7256,-0.7578,-0.7834,-0.7971,-0.8237,0.0,0.0,-0.7899,-0.8162,-0.8715,-0.9321,-1.0254,-1.1493,-1.3855,-1.547,-1.6323,-1.6995,-1.6938,-1.6153,-1.4471,-1.3656,-1.3443,0.0,0.0,0.0,0.0,0.0,0.0,0.0,0.0,0.0,0.0,0.0,0.0,0.0,0.0,0.0,0.0,0.0,0.0,0.0,0.0,0.0,0.0,0.0,0.0,0.0,0.0,0.0,0.0,0.0,0.0,0.0,0.0,0.0,0.0,0.0,0.0,0.0,0.0,0.0,0.0,0.0,-1.2154,-1.2864,0.0,0.0,0.0,0.0,0.0,0.0,0.0,0.0,0.0,0.0,0.0,0.0,0.0,-1.7423,-1.8415,-2.0038,-2.0855,-2.0921,-2.2033,-2.2531,-2.2456,-2.2531,-2.2556,-2.2543,-2.2255,0.0,-1.8494,-1.7476,0.0,0.0,0.0,0.0,0.0,0.0,0.0,0.0,0.0,0.0,0.0,0.0,0.0,0.0,0.0,0.0,0.0,0.0,0.0,0.0,0.0,-0.735,-0.7774,-0.8311,-0.8869,-0.9083,-0.8837,-0.8868,-0.8641,-0.804,-0.7831,-0.7971,-0.8496,-0.964,-1.1489,-1.406,-1.6323,-1.776,-1.8386,-1.8678,-1.8904,-1.8951,-1.7167,-1.5722,-1.4562,-1.2894,0.0,0.0,0.0,0.0,0.0,0.0,0.0,0.0,0.0,0.0,0.0,0.0,0.0,0.0,0.0,0.0,0.0,0.0,0.0,0.0,0.0,0.0,0.0,0.0,0.0,0.0,0.0,0.0,0.0,0.0,0.0,0.0,0.0,0.0,0.0,0.0,0.0,0.0,0.0,-1.1585,-1.3146,-1.4119,-1.418,-1.3979,0.0,0.0,0.0,0.0,0.0,0.0,0.0,0.0,0.0,-1.8317,-1.9221,-2.0075,-2.0838,-2.2221,-2.2899,-2.2912,-2.3703,-2.4048,-2.4048,-2.4048,-2.4048,-2.4048,-2.4048,-2.3195,-2.1707,-2.0275,-1.8844,-1.7526,0.0,0.0,0.0,0.0,-1.6848,-1.6996,0.0,0.0,0.0,0.0,0.0,0.0,0.0,0.0,0.0,0.0,0.0,0.0,-0.7566,-0.815,-0.8776,-0.9453,-1.0084,-1.0274,-0.9858,-0.9549,-0.9054,-0.8337,-0.7938,-0.8064,-0.8766,-1.0944,-1.3553,-1.6533,-1.8161,-1.922,-1.9708,-1.9726,-1.9907,-2.0224,-1.8957,-1.7494,-1.5879,-1.441,-1.3076,-1.1806,0.0,0.0,0.0,0.0,0.0,0.0,0.0,0.0,0.0,0.0,0.0,0.0,0.0,0.0,0.0,0.0,0.0,0.0,0.0,0.0,0.0,0.0,0.0,0.0,0.0,0.0,0.0,0.0,0.0,0.0,0.0,0.0,0.0,0.0,0.0,0.0,0.0,-1.3031,-1.4308,-1.5273,-1.5735,-1.5686,0.0,0.0,0.0,0.0,0.0,0.0,-1.7727,-1.8719,-1.9761,-2.084,-2.1694,-2.2397,-2.292,-2.4067,-2.4632,-2.4632,-2.5184,-2.5448,-2.5415,-2.531,-2.5247,-2.5247,-2.5247,-2.4921,-2.428,-2.2598,-2.1104,-1.9823,-1.9685,-1.9409,-1.9108,-1.9635,-1.9835,-1.9986,0.0,0.0,0.0,0.0,0.0,0.0,0.0,0.0,0.0,0.0,0.0,-0.7591,-0.8187,-0.8737,-0.9478,-1.0532,-1.0948,-1.1109,-1.1015,-1.0287,-0.9566,-0.8893,-0.8351,-0.88,-1.0349,-1.4321,-1.7099,-1.8553,-1.928,-1.9663,-1.9701,-1.9782,-1.9556,-1.908,-1.9008,-1.8627,-1.7911,-1.5748,-1.4487,-1.3768,-1.1527,0.0,0.0,0.0,0.0,0.0,0.0,0.0,0.0,0.0,0.0,0.0,0.0,0.0,0.0,0.0,0.0,0.0,0.0,0.0,0.0,0.0,0.0,0.0,0.0,0.0,0.0,0.0,0.0,0.0,0.0,0.0,0.0,0.0,0.0,0.0,0.0,0.0,0.0,-1.6954,-1.7605,0.0,0.0,0.0,0.0,-1.7953,-1.8957,-2.0049,-2.1179,-2.1794,-2.2623,-2.3753,-2.3841,-2.4142,-2.4662,-2.5787,-2.6361,-2.6373,-2.6927,-2.7155,-2.7178,-2.665,-2.6411,-2.6411,-2.6411,-2.6084,-2.5385,-2.3697,-2.2669,-2.2096,-2.1568,-2.1343,-2.1393,-2.1945,-2.2146,-2.2234,0.0,0.0,0.0,0.0,0.0,-0.6599,-0.6599,-0.6599,-0.6599,-0.6599,-0.74,-0.8187,-0.8749,-0.9943,-1.0998,-1.1736,-1.2222,-1.232,-1.1961,-1.1146,-1.0664,-1.065,-0.988,-1.0801,-1.3728,-1.6124,-1.8007,-1.9338,-1.9593,-1.994,-2.0388,-1.9975,-1.9926,-2.0127,-1.9342,-1.8894,-1.8588,-1.6721,-1.5618,-1.4997,-1.3488,-1.2131,0.0,0.0,0.0,0.0,0.0,0.0,0.0,0.0,0.0,0.0,0.0,0.0,0.0,0.0,0.0,0.0,0.0,0.0,0.0,0.0,0.0,0.0,0.0,0.0,0.0,0.0,0.0,0.0,0.0,0.0,0.0,0.0,0.0,0.0,0.0,0.0,0.0,-1.8693,-1.9071,0.0,0.0,-1.927,-1.9749,-2.0275,-2.1004,-2.192,-2.305,-2.3288,-2.4067,-2.5569,-2.5619,-2.6025,-2.6929,-2.7331,-2.7519,-2.7519,-2.772,-2.7808,-2.7808,-2.7607,-2.7519,-2.7519,-2.7519,-2.7406,-2.7168,-2.6578,-2.5385,-2.3873,-2.3715,-2.3627,-2.3653,-2.3853,-2.3898,-2.3954,0.0,0.0,0.0,0.0,-0.6599,-0.6599,-0.6599,-0.6599,-0.6662,-0.684,-0.7861,-0.8838,-0.9566,-1.0973,-1.209,-1.2626,-1.2985,-1.3048,-1.2701,-1.1786,-1.1372,-1.159,-1.1488,-1.2919,-1.6142,-1.7424,-1.871,-2.0044,-1.9831,-1.9974,-2.0441,-2.0016,-2.0047,-2.0434,-1.9636,-1.9259,-1.9183,-1.7892,-1.6936,-1.6191,-1.5092,-1.3871,-1.2583,0.0,0.0,0.0,0.0,0.0,0.0,0.0,0.0,0.0,0.0,0.0,0.0,0.0,0.0,0.0,0.0,0.0,0.0,0.0,0.0,0.0,0.0,0.0,0.0,0.0,0.0,0.0,0.0,0.0,0.0,0.0,0.0,0.0,0.0,0.0,-1.8416,-1.9945,-2.0435,-2.0652,-2.0652,-2.1343,-2.1974,-2.2309,-2.3012,-2.3828,-2.4782,-2.5008,-2.5699,-2.7014,-2.7052,-2.7369,-2.8097,-2.8285,-2.8386,-2.8386,-2.8386,-2.8386,-2.8373,-2.8185,-2.8109,-2.8109,-2.8109,-2.8109,-2.8109,-2.8109,-2.7243,-2.5912,-2.5724,-2.5536,-2.5372,-2.5372,-2.5372,-2.5347,0.0,0.0,0.0,-0.6543,-0.6599,-0.6599,-0.6599,-0.6599,-0.679,-0.7331,-0.8411,-0.9529,-1.0581,-1.1736,-1.2638,-1.3148,-1.3198,-1.3198,-1.3198,-1.2215,-1.164,-1.1678,-1.3101,-1.5008,-1.7376,-1.8333,-1.9412,-2.0668,-2.0074,-1.9784,-1.9799,-1.98,-1.9798,-1.9798,-1.9798,-1.9798,-1.9773,-1.9246,-1.843,-1.736,-1.622,-1.5449,-1.4708,0.0,0.0,0.0,0.0,0.0,0.0,0.0,0.0,0.0,0.0,0.0,0.0,0.0,0.0,0.0,0.0,0.0,0.0,0.0,0.0,0.0,0.0,0.0,0.0,0.0,0.0,0.0,0.0,0.0,0.0,0.0,0.0,0.0,-1.7868,-1.8918,-1.9973,-2.0682,-2.1719,-2.2385,-2.2385,-2.3401,-2.4054,-2.4079,-2.5059,-2.59,-2.6512,-2.7052,-2.7557,-2.8109,-2.8134,-2.8134,-2.816,-2.865,-2.8913,-2.8913,-2.8913,-2.8913,-2.89,-2.8398,-2.816,-2.816,-2.816,-2.816,-2.816,-2.816,-2.8147,-2.8072,-2.7519,-2.7014,-2.6549,-2.6524,-2.6512,-2.6411,0.0,0.0,-0.628,-0.6543,-0.6599,-0.6599,-0.6599,-0.6599,-0.679,-0.7331,-0.8727,-0.9943,-1.0632,-1.2058,-1.3035,-1.3185,-1.3198,-1.3198,-1.3198,-1.2563,-1.2542,-1.3367,-1.5281,-1.6862,-1.7959,-1.8563,-1.9257,-2.0046,-1.9882,-1.9799,-1.98,-1.98,-1.9798,-1.9798,-1.9798,-1.9798,-1.9798,-1.9648,-1.9196,-1.8494,-1.7802,-1.6936,-1.5957,0.0,0.0,0.0,0.0,0.0,0.0,0.0,0.0,0.0,0.0,0.0,0.0,0.0,0.0,0.0,0.0,0.0,0.0,0.0,0.0,0.0,0.0,0.0,0.0,0.0,0.0,0.0,0.0,0.0,0.0,0.0,0.0,-1.9117,-1.9117,-2.0528,-2.1784,-2.2372,-2.3421,-2.4098,-2.4098,-2.4757,-2.5335,-2.5783,-2.6461,-2.7055,-2.762,-2.7795,-2.8134,-2.865,-2.8662,-2.89,-2.9327,-2.9478,-2.9553,-2.9553,-2.9553,-2.9553,-2.9553,-2.9402,-2.9327,-2.9327,-2.9327,-2.9327,-2.9327,-2.9327,-2.9076,-2.8612,-2.8097,-2.7783,-2.7607,-2.7241,-2.6839,-2.6474,0.0,-0.5558,-0.6186,-0.6547,-0.6599,-0.6599,-0.6599,-0.6599,-0.6887,-0.7676,-0.8826,-0.9943,-1.0973,-1.1949,-1.2626,-1.2852,-1.2847,-1.2776,-1.2538,-1.2663,-1.3345,-1.4714,-1.6192,-1.7478,-1.8561,-1.8824,-1.9369,-2.021,-1.9942,-1.9812,-1.9798,-1.9798,-1.9798,-1.9798,-1.9798,-1.9798,-1.9798,-1.9798,-1.9623,-1.9296,-1.9007,-1.8204,-1.7137,-1.6346,-1.5643,-1.4997,-1.4199,-1.3571,-1.3111,-1.3111,0.0,0.0,0.0,0.0,0.0,0.0,0.0,0.0,0.0,0.0,0.0,0.0,0.0,0.0,0.0,0.0,0.0,0.0,0.0,0.0,0.0,0.0,0.0,0.0,-1.9961,-2.1069,-2.1065,-2.1974,-2.3007,-2.401,-2.4745,-2.5247,-2.5485,-2.5988,-2.644,-2.6813,-2.7318,-2.7871,-2.8423,-2.8448,-2.8675,-2.9277,-2.9289,-2.9453,-2.9792,-2.9792,-2.9792,-2.9792,-2.9792,-2.9792,-2.9792,-2.9792,-2.9792,0.0,-2.9792,-2.9792,-2.9792,-2.9792,-2.9591,0.0,0.0,0.0,0.0,0.0,-2.7419,-2.7153,0.0,-0.5336,-0.6057,-0.6521,-0.6599,-0.6599,-0.6599,-0.6599,-0.6987,-0.8062,-0.8724,-0.9679,-1.1238,-1.1527,-1.1829,-1.235,-1.24,-1.2253,-1.1904,-1.2826,-1.408,-1.563,-1.6203,-1.7284,-1.8956,-1.893,-1.9483,-2.0696,-2.0105,-1.9798,-1.9798,-1.9798,-1.9798,-1.9798,-1.9798,-1.9798,-1.9798,-1.9798,-1.9798,-1.9798,-1.9798,-1.9196,-1.8191,-1.7165,-1.6701,-1.6484,-1.5525,-1.484,-1.4362,-1.4362,0.0,0.0,0.0,0.0,0.0,0.0,0.0,0.0,0.0,0.0,0.0,0.0,0.0,0.0,0.0,0.0,0.0,0.0,0.0,0.0,0.0,0.0,0.0,0.0,-2.1704,-2.3151,-2.3344,-2.3384,-2.3923,-2.5423,-2.5649,-2.5925,-2.6537,-2.7027,-2.7331,-2.7457,-2.7921,-2.8448,-2.8963,0.0,0.0,0.0,0.0,-2.9792,-2.9792,-2.9792,-2.9792,-2.9792,-2.9792,-2.9792,-2.9792,-2.9792,-2.9792,-2.9792,-2.9792,-2.9792,-2.9792,-2.9792,-2.9792,-2.9741,-2.9189,-2.8687,-2.8197,-2.8197,-2.816,-2.8034,0.0,-0.5521,-0.6057,-0.6521,-0.6599,-0.6599,-0.6599,-0.6599,-0.6837,-0.7491,-0.8462,-0.939,-1.0144,-1.105,-1.1829,-1.235,-1.24,-1.2743,-1.3556,-1.4223,-1.4909,-1.5668,-1.6212,-1.7099,-1.8342,-1.8356,-1.8888,-2.0003,-1.985,-1.9798,-1.9798,-1.9798,-1.9798,-1.9798,-1.9798,-1.9798,-1.9798,-1.9798,-1.9798,-1.9798,-1.9798,-1.9422,-1.882,-1.8607,-1.799,-1.7209,-1.6996,-1.6534,-1.6045,-1.6045,-1.5304,-1.4393,-1.4293,-1.3546,0.0,0.0,0.0,0.0,0.0,0.0,0.0,0.0,0.0,0.0,0.0,0.0,0.0,0.0,0.0,0.0,0.0,0.0,0.0,-2.1498,-2.2513,-2.3556,-2.4921,-2.5121,-2.5234,-2.5561,-2.6047,-2.6549,-2.7102,-2.7253,-2.7657,-2.8549,-2.8675,-2.8976,-2.9591,-2.9628,0.0,-2.9792,-2.9792,-2.9792,-2.9792,-2.9792,-2.9792,-2.9792,0.0,0.0,-2.9792,-2.9792,-2.9792,-2.9792,-2.9792,-2.9792,-2.9792,-2.9792,-2.9792,-2.9779,-2.9666,-2.9277,-2.8737,-2.8737,-2.8486,-2.8097,-0.5386,-0.5817,-0.6159,-0.6538,-0.6599,-0.6599,-0.6599,-0.6599,-0.679,-0.7331,-0.7901,-0.8575,-0.9415,-0.9767,-1.0157,-1.0696,-1.0998,-1.1992,-1.3977,-1.4337,-1.4972,-1.6057,-1.635,-1.7027,-1.8179,-1.8204,-1.8731,-1.9798,-1.9798,-1.9798,-1.9798,-1.9798,-1.9798,-1.9798,-1.9798,-1.9798,-1.9798,-1.9798,-1.9798,-1.9798,-1.9798,-1.9648,-1.9359,-1.9096,-1.8657,-1.8129,-1.7576,-1.7222,-1.6911,-1.6588,-1.6145,-1.5643,-1.5367,-1.4902,-1.4181,0.0,0.0,0.0,0.0,0.0,0.0,0.0,0.0,0.0,0.0,0.0,0.0,0.0,0.0,-1.8254,0.0,0.0,-2.1426,-2.2904,-2.3841,-2.4657,-2.5473,-2.585,-2.6059,-2.6059,-2.6323,-2.6713,-2.7266,-2.7532,-2.8034,-2.8825,-2.9202,-2.949,-2.9779,-2.9792,-2.9792,-2.9792,-2.9792,-2.9792,-2.9792,-2.9792,-2.9792,-2.9792,-2.9792,-2.9792,-2.9792,-2.9792,-2.9792,-2.9792,-2.9792,-2.9792,-2.9792,-2.9792,-2.9792,-2.9792,-2.9792,-2.9616,-2.9365,-2.9365,-2.9189,-2.8913,-0.5728,-0.607,-0.628,-0.6543,-0.6599,-0.6599,-0.6599,-0.6599,-0.6762,-0.7181,-0.7331,-0.7741,-0.8674,-0.8487,-0.8562,-0.9189,-0.9843,-1.1326,-1.3939,-1.4204,-1.4941,-1.6425,-1.65,-1.7027,-1.8179,-1.8204,-1.8731,-1.9798,-1.9798,-1.9798,-1.9798,-1.9798,-1.9798,-1.9798,-1.9798,-1.9798,-1.9798,-1.9798,-1.9798,-1.9798,-1.9798,-1.9798,-1.9748,-1.9196,-1.8945,-1.8719,-1.7865,-1.74,-1.7137,-1.6651,-1.65,-1.6425,-1.5994,-1.5856,-1.5567,-1.4118,-1.3948,0.0,0.0,0.0,0.0,0.0,0.0,0.0,0.0,0.0,-1.681,-1.7976,-1.897,-2.0086,-2.1543,-2.2272,-2.3,-2.413,-2.5034,-2.5636,-2.5749,-2.6197,-2.6499,-2.6499,-2.6499,-2.6751,-2.7381,-2.7846,-2.8386,-2.9051,-2.9528,-2.9792,-2.9792,-2.9792,-2.9792,-2.9792,-2.9792,-2.9792,-2.9792,-2.9792,-2.9792,-2.9792,-2.9792,-2.9792,-2.9792,-2.9792,-2.9792,-2.9792,-2.9792,-2.9792,-2.9792,-2.9792,-2.9792,-2.9792,-2.9792,-2.9792,-2.9792,-2.9792,-2.9792,-2.9729,0.0,-0.607,-0.628,-0.6543,-0.6599,-0.6599,-0.6599,-0.6599,-0.6624,-0.6687,-0.7103,-0.7443,-0.7578,-0.8014,-0.8713,-0.9717,-1.0784,-1.2168,-1.399,-1.4551,-1.5324,-1.645,-1.65,-1.7027,-1.8179,-1.8204,-1.8731,-1.9798,-1.9798,-1.9798,-1.9798,-1.9798,-1.9798,-1.9798,-1.9798,-1.9798,-1.9798,-1.9798,-1.9798,-1.9798,-1.9798,-1.9798,-1.9748,-1.9196,-1.8694,-1.8279,-1.8154,-1.7463,-1.6588,-1.6525,-1.65,-1.6488,-1.6425,-1.64,-1.6274,-1.5618,0.0,-1.4771,-1.4645,-1.4657,-1.4947,-1.5886,-1.6174,-1.6886,0.0,0.0,-1.966,-2.0803,-2.1518,-2.2117,-2.2794,-2.3427,-2.4167,-2.5247,-2.5523,-2.5774,-2.6323,-2.6449,-2.6499,-2.6499,-2.6499,-2.6901,-2.7908,-2.8072,-2.8549,-2.9616,-2.9754,-2.9792,-2.9792,-2.9792,-2.9792,-2.9792,-2.9792,-2.9792,-2.9792,-2.9792,-2.9792,-2.9792,-2.9792,-2.9792,-2.9792,-2.9792,-2.9792,-2.9792,-2.9792,-2.9792,-2.9792,-2.9792,-2.9792,-2.9792,-2.9792,-2.9792,-2.9792,-2.9792,-2.9792,-2.9779,0.0,-0.5973,-0.6097,-0.6327,-0.65,-0.6599,-0.6599,-0.6599,-0.6599,-0.6599,-0.679,-0.6928,-0.6928,-0.7162,-0.7761,-0.8876,-0.9968,-1.145,-1.3446,-1.4406,-1.5387,-1.645,-1.65,-1.6898,-1.7714,-1.8041,-1.8581,-1.9321,-1.966,-1.9798,-1.9798,-1.9798,-1.9798,-1.9798,-1.9798,-1.9798,-1.9798,-1.9798,-1.9798,-1.9798,-1.9798,-1.9623,-1.9309,-1.9096,-1.8456,-1.7727,-1.7727,-1.7426,0.0,-1.6613,-1.65,-1.65,-1.65,-1.6296,-1.5994,-1.5768,-1.5756,0.0,-1.6635,-1.7049,0.0,0.0,-1.8455,-1.9258,-2.0427,-2.0754,-2.1004,-2.1807,-2.2004,-2.2408,-2.3435,-2.3658,-2.4132,0.0,-2.5875,-2.6223,-2.6461,-2.6499,-2.6373,-2.6034,-2.6285,-2.6801,-2.7557,-2.7921,-2.8436,-2.9239,-2.9603,-2.9792,-2.9792,-2.9792,-2.9792,-2.9792,-2.9792,-2.9792,-2.9792,-2.9792,-2.9792,-2.9792,-2.9792,-2.9792,-2.9792,-2.9792,-2.9792,-2.9792,-2.9792,-2.9792,-2.9792,-2.9792,-2.9792,-2.9792,-2.9792,-2.9792,-2.9792,-2.9792,-2.9792,-2.9792,0.0,-0.5856,-0.5945,-0.6085,-0.6318,-0.6491,-0.6491,-0.6543,-0.6599,-0.6599,-0.6599,-0.6599,-0.6599,-0.6599,-0.7059,-0.8211,-0.9152,-1.0621,-1.2822,-1.4054,-1.516,-1.6224,-1.6412,-1.6785,-1.7398,-1.7777,-1.8242,-1.877,-1.9183,-1.9434,-1.9585,-1.9585,-1.966,-1.9798,-1.9798,-1.9798,-1.9798,-1.9798,-1.971,-1.9585,-1.9585,-1.9171,-1.8524,-1.8363,-1.7624,-1.6755,-1.7048,-1.7049,-1.6835,-1.6258,-1.607,-1.607,-1.607,-1.5894,-1.5731,-1.5881,-1.6421,-1.7162,-1.799,0.0,0.0,-1.961,-2.0526,-2.1343,-2.1343,-2.1599,-2.1902,-2.2149,-2.195,-2.2147,-2.3422,-2.3559,0.0,-2.5365,-2.5984,-2.6311,-2.6474,-2.6361,-2.616,-2.5862,-2.6097,-2.6474,-2.704,-2.7557,-2.8172,-2.8838,-2.9315,-2.9616,-2.9779,-2.9792,-2.9792,-2.9792,-2.9792,-2.9792,-2.9792,-2.9792,-2.9792,-2.9792,-2.9792,-2.9792,-2.9792,-2.9792,-2.9792,-2.9792,-2.9792,-2.9792,-2.9792,-2.9792,-2.9792,-2.9792,-2.9792,-2.9792,-2.9792,-2.9792,-2.9792,-2.9792,0.0,0.0,-0.5911,-0.59,-0.6079,-0.6206,-0.6206,-0.6436,-0.6599,-0.6599,-0.6599,-0.6599,-0.6599,-0.6599,-0.7059,-0.8211,-0.88,-1.0069,-1.2291,-1.3493,-1.4601,-1.5668,-1.6233,-1.6785,-1.7398,-1.7423,-1.7677,-1.8229,-1.8242,-1.8506,-1.902,-1.902,-1.9296,-1.9798,-1.9798,-1.9798,-1.9798,-1.9798,-1.951,-1.902,-1.902,-1.8351,-1.7291,-1.6716,-1.5846,-1.5108,-1.6166,-1.6195,-1.5668,-1.5135,-1.4947,-1.4947,-1.4947,-1.5299,0.0,-1.6312,-1.7275,-1.8166,0.0,0.0,-2.0037,-2.1142,-2.2246,-2.3032,-2.3032,-2.2849,-2.2512,-2.2023,-2.1652,-2.1704,-2.2586,-2.3156,-2.3948,-2.5365,-2.5611,-2.5824,-2.6411,-2.6009,-2.5858,-2.6399,-2.5984,-2.585,0.0,-2.7014,-2.7758,-2.8813,-2.8913,-2.9202,-2.9767,-2.9792,-2.9792,-2.9792,-2.9792,-2.9792,-2.9792,-2.9792,-2.9792,-2.9792,-2.9792,-2.9792,-2.9792,-2.9792,-2.9792,-2.9792,-2.9792,-2.9792,-2.9792,-2.9792,-2.9792,-2.9792,-2.9792,-2.9792,-2.9792,-2.9792,-2.9792,-2.9792,0.0,0.0,0.0,-0.5902,-0.607,-0.6198,-0.6198,-0.6271,-0.6336,-0.6336,-0.6336,0.0,0.0,0.0,0.0,0.0,-0.8313,-0.9348,-1.0833,-1.2002,-1.3123,-1.4195,-1.5049,-1.556,-1.5668,-1.6369,-1.6829,-1.7011,-1.7411,-1.7908,-1.8456,-1.8456,-1.8581,-1.8744,-1.8744,-1.8744,-1.8744,-1.8744,-1.8832,-1.897,-1.8607,-1.8006,-1.7219,-1.6622,-1.5543,-1.4359,0.0,-1.4252,-1.4149,-1.3972,-1.4102,-1.444,-1.4845,0.0,0.0,-1.6245,-1.7325,-1.8355,0.0,0.0,-2.1192,-2.2297,-2.2628,-2.2737,-2.2812,-2.2251,-2.1476,-2.0736,-2.0011,-1.9895,-2.0971,-2.1463,-2.2309,-2.424,-2.5134,-2.5799,-2.6411,-2.6336,-2.6135,-2.5946,-2.6084,0.0,0.0,0.0,0.0,-2.8335,-2.8687,-2.9176,-2.9767,-2.9792,-2.9792,-2.9792,-2.9792,-2.9792,-2.9792,-2.9792,-2.9792,-2.9792,-2.9792,-2.9792,-2.9792,-2.9792,-2.9792,-2.9792,-2.9792,-2.9792,-2.9792,-2.9792,-2.9792,-2.9792,-2.9792,-2.9792,-2.9792,-2.9792,-2.9792,-2.9792,0.0,0.0,0.0,0.0,0.0,0.0,0.0,0.0,0.0,0.0,0.0,0.0,0.0,0.0,0.0,0.0,0.0,0.0,-0.9699,-1.0651,-1.1682,-1.2874,-1.3587,-1.3997,-1.4076,-1.4606,-1.5126,-1.565,-1.6042,-1.6811,-1.7915,-1.7667,-1.7779,-1.818,-1.7762,-1.7678,-1.787,-1.787,-1.7956,-1.8043,-1.7546,-1.6854,-1.6068,-1.5302,-1.4149,0.0,-1.2518,-1.2446,-1.2596,-1.2952,-1.342,-1.3914,-1.4493,-1.5034,-1.568,-1.6798,-1.7754,-1.8819,-2.03,-2.123,-2.2009,-2.2991,-2.3039,-2.2746,-2.2329,-2.1382,-2.0325,-1.9423,-1.8405,-1.7997,-1.8907,-1.9379,-2.0469,-2.2942,-2.4129,-2.5121,-2.6336,-2.6311,-2.6197,-2.6201,-2.6386,0.0,0.0,0.0,0.0,-2.8084,-2.8612,-2.9176,-2.9767,-2.9792,-2.9792,-2.9792,-2.9792,-2.9792,-2.9792,-2.9792,-2.9792,-2.9792,-2.9792,-2.9792,-2.9792,-2.9792,-2.9792,-2.9792,-2.9792,-2.9792,-2.9792,-2.9792,-2.9792,-2.9792,-2.9792,-2.9792,-2.9792,-2.9792,-2.9792,-2.9792,0.0,0.0,0.0,0.0,0.0,0.0,0.0,0.0,0.0,0.0,0.0,0.0,0.0,0.0,0.0,0.0,0.0,0.0,-0.876,-0.9388,-1.0291,-1.1658,-1.1926,-1.2233,-1.267,-1.2261,-1.2745,-1.4137,-1.4173,-1.5196,-1.7155,-1.6529,-1.6866,-1.7911,-1.6746,-1.6563,-1.7087,-1.7087,-1.6788,-1.6265,-1.5842,-1.5037,-1.3936,-1.2893,-1.1818,-1.0908,-1.0929,-1.0964,-1.1151,-1.2143,0.0,0.0,0.0,0.0,0.0,-1.7904,-1.8669,-1.9622,-2.1716,-2.2343,-2.2543,-2.3295,-2.3435,-2.2981,-2.1608,-2.0292,-1.9102,-1.8091,-1.6901,-1.6148,0.0,0.0,-1.8572,-2.162,-2.2665,-2.3866,-2.6147,-2.6021,-2.6076,0.0,0.0,0.0,0.0,0.0,0.0,-2.8147,0.0,-2.9176,-2.9767,-2.9792,-2.9792,-2.9792,-2.9792,-2.9792,-2.9792,-2.9792,-2.9792,-2.9792,-2.9792,-2.9792,-2.9792,-2.9792,-2.9792,-2.9792,-2.9792,-2.9792,-2.9792,-2.9792,-2.9792,-2.9792,-2.9792,-2.9792,-2.9792,-2.9792,-2.9792,-2.9792,0.0,0.0,0.0,0.0,0.0,0.0,0.0,0.0,0.0,0.0,0.0,0.0,0.0,0.0,0.0,0.0,0.0,0.0,-0.6887,-0.7738,-0.8571,-0.9334,-1.0392,-1.0998,-1.101,-1.1293,-1.1607,-1.1981,-1.2337,-1.3023,-1.3977,-1.4106,-1.434,-1.4607,-1.4296,-1.4252,-1.4403,-1.4403,-1.4552,-1.4735,-1.4207,-1.3821,-1.3433,-1.2765,-1.1818,-1.0949,-1.1348,-1.128,0.0,0.0,0.0,0.0,0.0,0.0,-1.8418,0.0,0.0,-2.1566,-2.2159,-2.2672,-2.3119,-2.3406,-2.24,-2.1114,-2.0202,-1.8911,-1.7576,-1.6307,-1.5575,-1.5215,0.0,0.0,0.0,-2.0556,-2.2098,0.0,-2.5557,-2.6414,0.0,0.0,0.0,-2.7795,-2.8084,-2.8473,0.0,0.0,-2.8813,-2.9176,-2.9767,-2.9792,-2.9792,-2.9792,-2.9792,-2.9792,-2.9792,-2.9792,-2.9792,-2.9792,-2.9792,-2.9792,-2.9792,-2.9792,-2.9792,-2.9792,-2.9792,-2.9792,-2.9792,-2.9792,-2.9792,-2.9792,-2.9792,-2.9792,-2.9792,-2.9792,-2.9792,-2.9792,0.0,0.0,0.0,0.0,0.0,0.0,0.0,0.0,0.0,0.0,0.0,0.0,0.0,0.0,0.0,0.0,0.0,0.0,0.0,-0.656,-0.725,-0.8113,-0.874,-0.9211,-0.9514,-0.9812,-1.0197,-1.0634,-1.1097,-1.1826,-1.2747,-1.2535,-1.267,-1.3058,-1.2355,-1.2196,-1.2434,-1.2434,-1.2598,0.0,0.0,-1.2154,-1.2019,-1.1259,-1.0592,-1.0155,-1.0869,0.0,0.0,0.0,0.0,-1.6628,-1.7372,-1.8393,-1.9434,-1.9962,0.0,-2.1846,-2.2567,-2.2745,-2.2661,-2.2366,-2.1199,-1.98,-1.8541,-1.7368,-1.6152,-1.4844,-1.4385,0.0,0.0,0.0,0.0,0.0,0.0,0.0,-2.5306,-2.6565,-2.7369,0.0,-2.8134,0.0,-2.8122,-2.8378,-2.8356,0.0,-2.8741,-2.9453,-2.9779,-2.9792,-2.9792,-2.9792,-2.9792,-2.9792,-2.9792,-2.9792,-2.9792,-2.9792,-2.9792,-2.9792,-2.9792,-2.9792,-2.9792,-2.9792,0.0,-2.9792,-2.9792,-2.9792,-2.9792,-2.9792,-2.9792,-2.9792,-2.9792,-2.9792,-2.9792,-2.9792,0.0,0.0,0.0,0.0,0.0,0.0,0.0,0.0,0.0,0.0,0.0,0.0,0.0,0.0,0.0,0.0,0.0,0.0,0.0,0.0,-0.6309,-0.7472,-0.7242,-0.7471,-0.8287,-0.8307,-0.8737,-0.9606,-1.0084,-1.0919,-1.2111,-1.1304,-1.1362,-1.2148,-1.0747,-1.042,-1.0907,-1.0907,-1.0907,-1.0883,-1.0527,-1.0386,-1.0291,0.0,-0.9004,-0.9131,0.0,0.0,0.0,0.0,-1.6497,-1.7689,-1.8757,-1.9458,-2.0093,-2.1265,-2.1314,-2.1315,-2.2855,-2.2605,-2.1744,-2.0977,-2.0078,-1.8911,-1.7046,-1.5888,-1.4864,-1.3672,0.0,-1.292,-1.1868,0.0,-1.5827,-1.7844,0.0,-2.2752,-2.5151,-2.6527,-2.7446,-2.7851,-2.8413,-2.8577,-2.7968,-2.7896,-2.7562,-2.676,-2.8383,-2.9417,-2.9573,-2.9702,-2.9792,-2.9792,-2.9792,-2.9792,-2.9792,-2.9792,-2.9792,-2.9792,-2.9792,-2.9792,-2.9792,-2.9792,-2.9792,-2.9792,0.0,0.0,-2.9792,-2.9792,-2.9792,-2.9792,-2.9792,-2.9792,-2.9792,-2.9792,-2.9792,-2.9792,0.0,0.0,0.0,0.0,0.0,0.0,0.0,0.0,0.0,0.0,-0.5382,-0.5146,0.0,0.0,0.0,0.0,0.0,0.0,0.0,0.0,0.0,-0.6599,-0.6934,-0.732,-0.7817,0.0,0.0,0.0,0.0,-0.8909,-0.9147,-0.9308,-0.9479,-0.9623,-0.9358,-0.9271,-0.9375,-0.9375,-0.9375,-0.9375,-0.9296,-0.9283,-0.9256,-0.9067,0.0,0.0,0.0,0.0,0.0,0.0,-1.6748,-1.8254,-1.9321,-1.9885,-2.0398,-2.1757,-2.175,-2.1601,-2.2923,-2.2408,-2.1398,-2.092,-1.9761,-1.831,-1.6596,-1.5234,0.0,0.0,0.0,-1.1966,-1.209,-1.2778,0.0,-1.7508,0.0,0.0,0.0,0.0,-2.7159,0.0,0.0,0.0,0.0,0.0,0.0,0.0,0.0,-2.7464,-2.8347,-2.9275,-2.9792,-2.9792,-2.9792,-2.9792,-2.9792,-2.9792,-2.9792,-2.9792,-2.9792,-2.9792,-2.9792,-2.9792,-2.9792,-2.9792,-2.9792,0.0,-2.9792,-2.9792,-2.9792,-2.9792,-2.9792,-2.9792,-2.9792,-2.9792,-2.9792,-2.9792,0.0,0.0,0.0,0.0,0.0,0.0,0.0,-0.5469,-0.5625,-0.6055,-0.5907,-0.5702,-0.5488,-0.5244,-0.5098,0.0,0.0,0.0,0.0,0.0,0.0,0.0,0.0,-0.694,0.0,0.0,0.0,0.0,0.0,0.0,0.0,0.0,0.0,0.0,0.0,0.0,0.0,-0.8324,-0.8324,0.0,0.0,0.0,0.0,0.0,0.0,0.0,0.0,0.0,0.0,0.0,-1.5389,-1.687,-1.9095,-2.004,-2.049,-2.1352,-2.0996,-2.0489,-2.1319,-2.0743,-1.99,-1.9687,-1.848,-1.7021,-1.5957,0.0,0.0,0.0,0.0,-1.1506,-1.126,0.0,0.0,0.0,0.0,0.0,0.0,0.0,0.0,0.0,0.0,0.0,0.0,0.0,0.0,0.0,0.0,-2.7221,-2.8897,-2.9495,-2.9792,-2.9792,-2.9236,-2.9197,-2.9792,-2.9197,-2.9197,-2.9792,-2.9792,-2.9792,-2.9792,-2.9792,-2.9792,-2.9792,-2.9792,0.0,-2.9792,-2.9792,-2.9792,-2.9792,-2.9792,-2.9792,-2.9792,-2.9792,-2.9792,-2.9792,0.0,0.0,0.0,0.0,0.0,0.0,0.0,-0.5733,-0.5939,-0.6348,-0.6394,-0.6256,-0.588,-0.5486,-0.5215,0.0,0.0,0.0,0.0,0.0,0.0,0.0,0.0,0.0,0.0,0.0,0.0,0.0,0.0,0.0,0.0,0.0,0.0,0.0,0.0,0.0,0.0,0.0,0.0,0.0,0.0,0.0,0.0,0.0,0.0,0.0,0.0,0.0,0.0,0.0,-1.39,-1.5186,-1.7776,-1.9032,-1.9685,-2.0305,-1.9734,-1.9036,-1.9607,-1.9196,-1.8598,-1.8598,-1.7412,-1.6075,-1.542,-1.3965,0.0,0.0,-1.1369,-1.1145,-1.0547,0.0,0.0,0.0,0.0,0.0,0.0,0.0,0.0,0.0,0.0,0.0,0.0,0.0,0.0,0.0,0.0,0.0,-2.9663,-2.9339,-2.9209,-2.9443,-2.8359,-2.8199,-2.9079,-2.8438,-2.8557,-2.9443,-2.9663,-2.9792,-2.9792,-2.9792,-2.9792,-2.9792,-2.9792,0.0,0.0,-2.9792,-2.9792,-2.9792,-2.9792,-2.9792,-2.9792,-2.9792,-2.9792,-2.9792,0.0,0.0,0.0,0.0,0.0,0.0,0.0,-0.5527,-0.5939,-0.6348,-0.6394,-0.629,-0.6012,-0.5831,-0.5557,0.0,0.0,0.0,0.0,0.0,0.0,0.0,0.0,0.0,0.0,0.0,0.0,0.0,0.0,0.0,0.0,0.0,0.0,0.0,0.0,0.0,0.0,0.0,0.0,0.0,0.0,0.0,0.0,0.0,0.0,0.0,0.0,0.0,0.0,0.0,0.0,-1.4239,-1.4592,-1.5712,-1.712,-1.8424,0.0,0.0,-1.9015,-1.9008,-1.8598,-1.8598,-1.7613,-1.6317,-1.5127,0.0,0.0,-1.1131,-1.0664,-1.0518,-1.0791,-1.1018,0.0,0.0,0.0,-1.6558,0.0,0.0,0.0,0.0,0.0,0.0,0.0,0.0,0.0,0.0,0.0,0.0,-2.9663,-2.7879,-2.725,-2.8215,-2.7209,-2.6689,-2.6812,-2.7654,-2.8136,-2.8255,-2.9326,-2.9792,-2.9792,-2.9792,-2.9792,-2.9792,-2.9792,0.0,0.0,-2.9792,-2.9792,-2.9792,-2.9792,-2.9792,-2.9792,-2.9792,-2.9792,-2.9792,0.0,0.0,0.0,0.0,0.0,0.0,-0.5479,-0.5675,-0.5939,-0.6348,-0.6442,-0.6397,-0.6265,-0.5832,-0.5306,-0.4669,0.0,0.0,0.0,0.0,0.0,0.0,0.0,0.0,0.0,0.0,0.0,0.0,0.0,0.0,0.0,0.0,0.0,0.0,0.0,0.0,0.0,0.0,0.0,0.0,0.0,0.0,0.0,0.0,0.0,0.0,0.0,0.0,0.0,0.0,0.0,0.0,-1.2298,-1.3001,0.0,0.0,-1.6622,-1.6489,-1.781,-1.8012,-1.7881,-1.7881,-1.6904,-1.5634,-1.4601,0.0,-1.165,-1.1035,-1.0576,-1.0352,-1.0518,-1.0742,-1.1443,-1.3155,-1.3614,-1.4766,0.0,0.0,0.0,0.0,0.0,0.0,0.0,0.0,0.0,0.0,0.0,0.0,-2.7678,-2.6976,-2.6678,-2.7116,-2.6047,-2.5808,-2.6472,-2.6243,-2.6767,-2.8096,-2.8557,-2.9157,-2.9792,-2.9106,-2.9157,-2.9753,-2.9067,0.0,0.0,-2.9792,-2.9792,-2.9792,-2.9792,-2.9792,-2.9792,-2.9792,-2.9792,-2.9792,0.0,0.0,0.0,0.0,0.0,-0.5185,-0.5432,-0.5596,-0.5756,-0.5949,-0.6129,-0.6171,-0.5996,-0.5563,-0.502,-0.4391,-0.4483,0.0,0.0,0.0,0.0,0.0,0.0,0.0,0.0,0.0,0.0,0.0,0.0,0.0,0.0,0.0,0.0,0.0,0.0,0.0,0.0,0.0,0.0,0.0,0.0,0.0,0.0,0.0,0.0,0.0,0.0,0.0,0.0,0.0,0.0,0.0,0.0,0.0,0.0,0.0,-1.5019,-1.5293,-1.6475,-1.6926,-1.7021,-1.7158,-1.6201,-1.5,0.0,0.0,-1.1418,-1.084,-1.0508,-1.0303,-1.0303,-1.0518,-1.1104,-1.2299,-1.258,-1.3463,-1.5759,0.0,0.0,0.0,0.0,0.0,0.0,0.0,0.0,0.0,0.0,0.0,0.0,-2.5473,-2.5641,-2.5975,-2.4882,-2.467,-2.5484,-2.5041,-2.5566,-2.7145,-2.7481,-2.8187,-2.9275,-2.8148,-2.8398,-2.9753,0.0,0.0,0.0,-2.9792,-2.9792,-2.9792,-2.9792,-2.9792,-2.9792,-2.9792,-2.9792,-2.9792,0.0,0.0,0.0,0.0,0.0,0.0,-0.4755,-0.5109,-0.5308,-0.5049,-0.5361,-0.5457,-0.5058,-0.5009,-0.4841,-0.4436,-0.4337,0.0,0.0,0.0,0.0,0.0,0.0,0.0,0.0,0.0,-0.7301,-0.7695,-0.8164,0.0,0.0,0.0,0.0,0.0,0.0,0.0,0.0,0.0,0.0,0.0,0.0,0.0,0.0,0.0,0.0,0.0,0.0,0.0,0.0,0.0,0.0,0.0,0.0,0.0,0.0,0.0,-1.3496,-1.4309,-1.5167,-1.5752,-1.6212,-1.6599,-1.5762,-1.457,0.0,-1.2524,-1.1361,-1.0488,-1.0303,-1.0303,-1.0303,-1.0303,-1.0785,-1.2257,-1.2008,-1.2881,-1.6491,0.0,0.0,0.0,0.0,0.0,0.0,0.0,0.0,0.0,0.0,0.0,0.0,-2.3144,-2.3627,-2.4787,-2.3714,-2.3135,-2.3144,-2.4253,-2.483,-2.483,-2.5975,-2.7087,-2.8096,-2.7005,-2.7718,0.0,0.0,0.0,0.0,-2.9792,-2.9792,-2.9792,-2.9792,-2.9792,-2.9792,-2.9792,-2.9792,-2.9792,0.0,0.0,0.0,0.0,0.0,0.0,0.0,-0.4548,-0.4614,-0.4538,-0.4673,-0.4838,-0.4984,-0.4591,-0.4529,-0.5037,-0.4603,0.0,0.0,0.0,0.0,0.0,0.0,0.0,0.0,0.0,-0.7451,-0.8174,-0.8326,-0.8473,0.0,0.0,0.0,0.0,0.0,0.0,0.0,0.0,0.0,0.0,0.0,0.0,0.0,0.0,0.0,0.0,0.0,0.0,0.0,0.0,0.0,0.0,0.0,0.0,0.0,-1.0792,-1.2139,0.0,-1.3955,-1.4424,-1.4707,-1.4561,-1.4219,-1.3613,-1.2465,-1.1878,-1.1361,-1.0479,-1.0303,-1.0303,-1.0303,-1.0303,-1.0875,-1.2623,-1.2755,-1.3338,0.0,0.0,0.0,0.0,0.0,0.0,0.0,0.0,0.0,0.0,0.0,0.0,0.0,-2.3091,-2.3256,-2.3637,-2.3309,-2.3091,-2.3091,-2.3474,-2.4049,-2.4787,-2.5168,-2.5911,-2.6964,-2.5839,0.0,0.0,0.0,0.0,0.0,-2.7545,-2.7999,-2.8636,-2.8636,-2.8636,-2.8636,-2.8636,-2.8159,-2.7545,0.0,0.0,0.0,0.0,0.0,0.0,0.0,-0.415,-0.4109,-0.4007,-0.4035,-0.42,-0.4583,-0.4137,-0.4139,-0.4953,-0.4582,0.0,0.0,0.0,0.0,0.0,0.0,0.0,-0.6396,-0.6865,-0.7534,-0.8395,-0.8551,-0.875,-0.9004,-0.8896,-0.8698,0.0,0.0,0.0,0.0,0.0,0.0,0.0,0.0,0.0,0.0,0.0,0.0,0.0,0.0,0.0,0.0,0.0,0.0,0.0,0.0,0.0,0.0,0.0,-1.0577,-1.1855,0.0,-1.3198,-1.3363,-1.3291,-1.3145,-1.2764,-1.1832,-1.1447,-1.1144,-1.0449,-1.0303,-1.0303,-1.0303,-1.0448,-1.1064,-1.2624,-1.2835,0.0,0.0,0.0,0.0,0.0,0.0,0.0,0.0,0.0,0.0,0.0,0.0,0.0,0.0,-2.3091,-2.3091,-2.3091,-2.3091,-2.3091,-2.3091,-2.3091,-2.3474,-2.4168,-2.4168,-2.4755,-2.5797,-2.467,0.0,0.0,0.0,0.0,0.0,-2.6524,-2.6883,-2.7481,-2.7481,-2.7481,-2.7481,-2.7481,-2.6961,-2.6233,0.0,0.0,0.0,0.0,0.0,0.0,0.0,-0.3869,-0.3776,-0.3538,-0.3495,-0.3623,-0.3931,-0.3683,-0.3732,-0.4319,0.0,0.0,0.0,0.0,0.0,0.0,0.0,0.0,-0.6345,-0.6816,-0.749,-0.8395,-0.8799,-0.9053,-0.915,-0.9464,-0.9201,-0.8483,0.0,0.0,0.0,0.0,0.0,0.0,0.0,0.0,0.0,0.0,0.0,0.0,0.0,0.0,0.0,0.0,0.0,0.0,0.0,0.0,0.0,0.0,0.0,0.0,0.0,-1.2028,0.0,0.0,-1.2369,-1.1999,-1.1594,-1.1193,0.0,-1.0391,-1.0303,-1.0312,-1.0342,-1.069,-1.1328,-1.2362,0.0,0.0,0.0,0.0,0.0,0.0,0.0,0.0,0.0,0.0,0.0,0.0,0.0,0.0,0.0,-2.3091,-2.3091,-2.3091,-2.3091,-2.3091,-2.3091,-2.3091,-2.3091,-2.3091,-2.3091,-2.3627,-2.4617,-2.3594,0.0,0.0,0.0,0.0,0.0,-2.6265,-2.6307,-2.6389,-2.6389,-2.6378,-2.6345,-2.6345,-2.5991,-2.5516,0.0,0.0,0.0,0.0,0.0,0.0,0.0,0.0,0.0,0.0,-0.3495,-0.3532,-0.361,-0.3546,-0.3639,0.0,0.0,0.0,0.0,0.0,0.0,0.0,0.0,0.0,-0.5929,-0.6348,-0.7168,-0.8395,-0.8799,-0.9502,-1.0449,-0.9874,-0.9495,-0.9289,-0.8678,-0.8135,0.0,0.0,0.0,0.0,0.0,0.0,0.0,0.0,0.0,0.0,0.0,0.0,0.0,0.0,0.0,0.0,0.0,0.0,0.0,0.0,-0.8532,-0.8845,-0.9561,0.0,-1.0684,-1.0429,-1.079,-1.1103,0.0,-1.0752,-1.0791,-1.0391,-1.0303,-1.04,-1.0703,-1.0863,-1.1341,0.0,0.0,0.0,0.0,0.0,0.0,0.0,0.0,0.0,0.0,0.0,0.0,0.0,0.0,0.0,0.0,-2.3091,-2.3091,-2.3091,-2.3091,-2.3091,-2.3091,-2.3091,-2.3091,-2.3091,-2.3091,-2.3266,-2.3507,-2.3222,0.0,0.0,0.0,0.0,-2.3887,-2.3887,-2.4425,-2.521,-2.521,-2.4997,-2.4728,-2.4728,-2.3918,-2.2828,0.0,0.0,0.0,0.0,0.0,0.0,0.0,0.0,0.0,0.0,0.0,-0.3495,-0.3495,-0.3495,0.0,0.0,0.0,0.0,0.0,0.0,0.0,0.0,0.0,-0.5322,-0.5793,-0.6191,-0.7061,-0.8395,-0.8799,-0.9561,-1.0615,-1.0146,-0.9698,-0.9289,-0.8457,-0.7934,0.0,0.0,0.0,0.0,0.0,0.0,0.0,0.0,0.0,0.0,0.0,-0.7295,0.0,-0.7831,-0.7761,-0.7485,0.0,0.0,0.0,0.0,-0.8086,-0.8125,-0.8344,-0.9326,-1.0244,-0.999,-1.04,-1.0829,-1.0625,-1.0596,-1.0557,0.0,0.0,0.0,0.0,0.0,0.0,0.0,0.0,0.0,0.0,0.0,0.0,0.0,0.0,0.0,0.0,0.0,0.0,0.0,0.0,0.0,0.0,-2.2568,-2.2568,-2.2568,-2.2568,-2.2711,-2.3091,-2.3091,-2.3091,-2.3091,-2.3091,-2.3091,-2.3091,-2.3091,-2.3091,0.0,0.0,0.0,-2.3091,-2.3091,-2.3355,-2.3744,-2.3744,-2.3479,-2.3134,-2.3134,-2.246,-2.1592,0.0,0.0,0.0,0.0,0.0,0.0,0.0,0.0,0.0,0.0,0.0,0.0,0.0,0.0,0.0,0.0,0.0,0.0,0.0,0.0,0.0,0.0,0.0,-0.5282,-0.5793,-0.6191,-0.7021,-0.8297,-0.8828,-0.9512,-1.0303,-1.0371,-0.9883,-0.8975,-0.8168,-0.7763,0.0,0.0,0.0,0.0,0.0,0.0,0.0,0.0,0.0,0.0,0.0,0.0,0.0,-0.7755,-0.7662,-0.7226,-0.7975,0.0,0.0,0.0,0.0,0.0,-0.7851,-0.9072,-1.0273,-1.0136,-1.0547,-1.0996,-1.0928,0.0,0.0,0.0,0.0,0.0,0.0,0.0,0.0,0.0,0.0,0.0,0.0,0.0,0.0,0.0,0.0,0.0,0.0,0.0,0.0,0.0,0.0,0.0,0.0,-2.1885,-2.1885,-2.1885,-2.1885,-2.2227,-2.2896,-2.2906,-2.2935,-2.3003,-2.3003,-2.3003,-2.3003,-2.3062,-2.3023,0.0,0.0,0.0,-2.2906,-2.2906,-2.2744,-2.2412,-2.2412,-2.2158,-2.1787,-2.1787,-2.1514,-2.1093,0.0,0.0,0.0,0.0,0.0,0.0,0.0,0.0,0.0,0.0,0.0,0.0,0.0,0.0,0.0,0.0,0.0,0.0,0.0,0.0,0.0,-0.4354,-0.4616,-0.5079,-0.5782,-0.6191,-0.6862,-0.7817,-0.8941,-0.9776,-1.0312,-1.0645,-1.0166,-0.8984,-0.8512,-0.8076,-0.7695,0.0,0.0,0.0,0.0,0.0,0.0,0.0,0.0,0.0,0.0,0.0,0.0,-0.6725,-0.6921,-0.7127,-0.7251,0.0,0.0,0.0,0.0,0.0,-0.8597,-0.9531,-1.0126,-0.9385,-1.0361,-1.1389,-1.0996,-1.1164,0.0,0.0,0.0,0.0,0.0,0.0,0.0,0.0,0.0,0.0,0.0,0.0,0.0,0.0,0.0,0.0,0.0,0.0,0.0,0.0,0.0,0.0,0.0,-2.1885,-2.1885,-2.1885,-2.1885,-2.1953,-2.208,-2.208,-2.2256,-2.2607,-2.2607,-2.2607,-2.2617,-2.2935,-2.2711,0.0,0.0,-2.2402,-2.208,-2.208,-2.2041,-2.1982,-2.1982,-2.1719,-2.1298,-2.1298,-2.1055,-2.0703,0.0,0.0,0.0,0.0,0.0,0.0,0.0,0.0,0.0,0.0,0.0,0.0,0.0,0.0,0.0,0.0,0.0,0.0,0.0,0.0,-0.4048,-0.4861,-0.487,-0.5162,-0.5782,-0.666,-0.7427,-0.8076,-0.9104,-0.9704,-0.9854,-0.9581,-0.9133,-0.8555,-0.8194,-0.7778,-0.7379,-0.7379,0.0,0.0,0.0,0.0,0.0,0.0,0.0,0.0,0.0,0.0,0.0,0.0,-0.6475,-0.6815,-0.7032,0.0,0.0,0.0,0.0,0.0,-0.8197,-0.9084,-0.9834,-0.9425,-1.0624,-1.1875,-1.1648,-1.1592,0.0,0.0,0.0,0.0,0.0,0.0,0.0,0.0,0.0,0.0,0.0,0.0,0.0,0.0,0.0,0.0,0.0,0.0,0.0,0.0,0.0,0.0,0.0,0.0,-2.1212,-2.1212,-2.1212,-2.1212,-2.1212,-2.1212,-2.1514,-2.2178,-2.2178,-2.2178,-2.2178,-2.2373,-2.2246,-2.1894,0.0,-2.206,-2.1885,-2.1885,-2.1748,-2.1533,-2.1533,-2.126,-2.0869,-2.0869,-2.0742,-2.0605,0.0,0.0,0.0,0.0,0.0,0.0,0.0,0.0,0.0,0.0,0.0,0.0,0.0,0.0,0.0,0.0,0.0,0.0,0.0,0.0,-0.4054,-0.5101,-0.5197,-0.5555,-0.623,-0.7203,-0.7913,-0.8354,-0.917,-0.9544,-0.948,-0.8711,-0.8253,-0.8066,-0.782,-0.7418,-0.6943,-0.6943,-0.6943,0.0,0.0,0.0,0.0,0.0,0.0,0.0,0.0,0.0,0.0,0.0,0.0,0.0,0.0,0.0,0.0,-0.7695,-0.7695,-0.7744,-0.7954,-0.8775,-0.9641,-0.9864,-1.0985,-1.2106,-1.2311,-1.2187,-1.2093,0.0,0.0,0.0,0.0,0.0,0.0,0.0,0.0,0.0,0.0,0.0,0.0,0.0,0.0,0.0,0.0,0.0,0.0,0.0,0.0,0.0,0.0,0.0,-2.0605,-2.0605,-2.0605,-2.0605,-2.0605,-2.0605,-2.0997,-2.1738,-2.1738,-2.1738,-2.1738,-2.1836,-2.1768,-2.1582,-2.1689,-2.168,-2.1623,-2.1623,-2.1377,-2.1074,-2.1074,-2.0869,-2.0605,-2.0605,-2.0605,-2.0605,0.0,0.0,0.0,0.0,0.0,0.0,0.0,0.0,0.0,0.0,0.0,0.0,0.0,0.0,0.0,0.0,0.0,0.0,0.0,0.0,-0.4022,-0.4366,-0.5371,-0.6443,-0.754,-0.7656,-0.7863,-0.8209,-0.9093,-0.9511,-0.9489,-0.898,-0.8399,-0.7739,-0.771,-0.7228,-0.6443,-0.6443,-0.6443,-0.6455,0.0,0.0,0.0,0.0,0.0,0.0,0.0,0.0,0.0,0.0,0.0,0.0,0.0,0.0,-0.7695,-0.7695,-0.7695,-0.787,-0.8685,-0.925,-0.9787,-1.0595,-1.1242,-1.1871,-1.267,-1.3115,0.0,-1.4412,0.0,0.0,0.0,0.0,0.0,0.0,0.0,0.0,0.0,0.0,0.0,0.0,0.0,0.0,0.0,0.0,0.0,0.0,0.0,0.0,0.0,0.0,0.0,-2.0605,-2.0605,-2.0605,-2.0605,-2.0605,-2.081,-2.1239,-2.1239,-2.1239,-2.1259,-2.1699,-2.1476,-2.0723,-2.1103,-2.1045,-2.0703,-2.0703,-2.0674,-2.0654,-2.0654,-2.0635,-2.0605,-2.0605,-2.0605,-2.0605,0.0,0.0,0.0,0.0,0.0,0.0,0.0,0.0,0.0,0.0,0.0,0.0,0.0,0.0,0.0,0.0,0.0,0.0,0.0,-0.3751,-0.4053,-0.4937,-0.5246,-0.5913,-0.705,-0.7695,-0.8185,-0.8567,-0.8322,-0.832,-0.8553,-0.7916,-0.7609,-0.7586,-0.7663,-0.7379,-0.6816,-0.6533,-0.6394,-0.6345,-0.5819,0.0,0.0,0.0,0.0,0.0,0.0,0.0,0.0,0.0,-0.5636,-0.6327,-0.658,-0.7151,-0.7652,-0.7403,-0.75,-0.7719,-0.7803,-0.8684,-0.9757,-1.0371,-1.1066,0.0,0.0,-1.3408,-1.4036,-1.4658,-1.499,0.0,0.0,0.0,0.0,0.0,0.0,0.0,0.0,0.0,0.0,0.0,0.0,0.0,0.0,0.0,0.0,0.0,0.0,0.0,0.0,0.0,0.0,-2.0605,-2.0605,-2.0605,-2.0605,-2.0605,-2.0693,-2.082,-2.082,-2.082,-2.082,-2.1026,-2.0918,-2.0615,-2.0742,-2.0723,-2.0605,-2.0605,-2.0605,-2.0605,-2.0605,-2.0605,-2.0605,-2.0605,-2.0605,-2.0605,0.0,0.0,0.0,0.0,0.0,0.0,0.0,0.0,0.0,0.0,0.0,0.0,0.0,0.0,0.0,0.0,0.0,0.0,-0.388,-0.3731,-0.4007,-0.4885,-0.4969,-0.5423,-0.633,-0.7089,-0.768,-0.8083,-0.7371,-0.7239,-0.764,-0.7136,-0.7129,-0.7566,-0.7525,-0.7359,-0.7061,-0.6465,-0.6211,-0.6143,-0.5399,-0.5283,0.0,0.0,0.0,0.0,0.0,0.0,0.0,0.0,-0.5507,-0.6143,-0.6508,-0.6938,-0.7286,-0.7135,-0.7401,-0.7693,-0.7549,-0.8639,-0.9923,-1.0371,0.0,0.0,-1.2607,-1.3548,-1.4541,-1.5254,-1.5625,0.0,0.0,0.0,0.0,0.0,0.0,0.0,0.0,0.0,0.0,0.0,0.0,0.0,0.0,0.0,0.0,0.0,0.0,0.0,0.0,0.0,0.0,0.0,-2.0605,-2.0605,-2.0605,-2.0605,-2.0605,-2.0605,-2.0605,-2.0605,-2.0605,-2.0605,-2.0605,-2.0605,-2.0605,-2.0605,-2.0605,-2.0605,-2.0605,-2.0605,-2.0605,-2.0605,-2.0605,-2.0605,-2.0605,-2.0605,0.0,0.0,0.0,0.0,0.0,0.0,0.0,0.0,0.0,0.0,0.0,0.0,0.0,0.0,0.0,0.0,0.0,0.0,-0.388,-0.39,-0.39,-0.39,-0.4603,-0.5176,-0.557,-0.5778,-0.6079,-0.6494,-0.6296,-0.6442,-0.6893,-0.6893,-0.7184,-0.7676,-0.7281,-0.7109,-0.7041,-0.6174,-0.5803,-0.5774,-0.5292,-0.5108,0.0,0.0,0.0,0.0,0.0,0.0,0.0,0.0,-0.5618,-0.56,-0.6739,-0.6815,-0.6579,-0.6978,-0.7429,-0.7875,-0.8274,-0.9327,-1.0381,0.0,0.0,0.0,-1.2408,-1.3604,-1.5166,-1.6443,0.0,-1.6707,0.0,0.0,0.0,0.0,0.0,0.0,0.0,0.0,0.0,0.0,0.0,0.0,0.0,0.0,0.0,0.0,0.0,0.0,0.0,0.0,0.0,0.0,-2.0595,-2.0595,-2.0595,-2.0595,-2.0595,-2.0595,-2.0605,-2.0605,-2.0605,-2.0605,-2.0605,-2.0605,-2.0605,-2.0605,-2.0605,-2.0605,-2.0605,-2.0605,-2.0605,-2.0605,-2.0605,-2.0605,-2.0605,-2.0605,0.0,0.0,0.0,0.0,0.0,0.0,0.0,0.0,0.0,0.0,0.0,0.0,0.0,0.0,0.0,0.0,0.0,0.0,-0.3615,-0.3615,-0.371,-0.389,-0.4106,-0.428,-0.4403,-0.4507,-0.5011,-0.5943,-0.5868,-0.6105,-0.6621,-0.6618,-0.7011,-0.7671,-0.7281,-0.7102,-0.7047,-0.6169,-0.5963,-0.6182,-0.5762,-0.5586,0.0,0.0,0.0,0.0,0.0,0.0,0.0,0.0,0.0,0.0,-0.6071,-0.6462,-0.6716,-0.6357,-0.6689,-0.7222,-0.7423,-0.8649,0.0,-1.1139,0.0,0.0,0.0,-1.4654,0.0,0.0,0.0,0.0,0.0,0.0,0.0,0.0,0.0,0.0,0.0,0.0,0.0,0.0,0.0,0.0,0.0,0.0,0.0,0.0,0.0,0.0,0.0,0.0,0.0,0.0,-1.9705,-1.9705,-1.9705,-1.9961,-2.0107,-2.0107,-2.0458,-2.0605,-2.0605,-2.0605,-2.0605,-2.0605,-2.0605,-2.0605,-2.0605,-2.0605,-2.0605,-2.0605,-2.0605,-2.0605,-2.0605,-2.0605,-2.0605,-2.0605,0.0,0.0,0.0,0.0,0.0,0.0,0.0,0.0,0.0,0.0,0.0,0.0,0.0,0.0,0.0,0.0,0.0,0.0,0.0,-0.3495,-0.358,-0.3741,-0.3741,-0.3808,-0.3937,-0.3979,-0.4341,-0.5017,-0.5245,-0.5692,-0.6347,-0.6444,-0.7031,-0.7948,-0.7364,-0.7189,-0.7263,-0.6228,-0.6031,-0.6355,-0.5958,-0.5803,-0.5803,0.0,0.0,0.0,0.0,0.0,0.0,0.0,0.0,0.0,-0.559,-0.5757,-0.5907,-0.5907,-0.6299,-0.688,-0.7498,0.0,0.0,-1.119,-1.1811,-1.2465,-1.3761,0.0,0.0,0.0,0.0,0.0,0.0,0.0,0.0,0.0,0.0,0.0,0.0,0.0,0.0,0.0,0.0,0.0,0.0,0.0,0.0,0.0,0.0,0.0,0.0,0.0,0.0,0.0,-1.9287,-1.9287,-1.9287,-1.9541,-1.9668,-1.9668,-1.9969,-2.0096,-2.0106,-2.0449,-2.0605,-2.0605,-2.0605,-2.0605,-2.0605,-2.0605,-2.0605,-2.0605,-2.0605,-2.0605,-2.0586,-2.041,-2.0303,-2.0283,0.0,0.0,0.0,0.0,0.0,0.0,0.0,0.0,0.0,0.0,-0.3495,0.0,0.0,0.0,0.0,0.0,0.0,0.0,0.0,0.0,-0.3464,-0.3464,-0.3464,-0.3621,-0.3945,-0.3951,-0.3951,-0.3951,-0.4522,-0.5215,-0.5998,-0.6299,-0.7077,-0.8181,-0.732,-0.7158,-0.7449,-0.6226,-0.5951,-0.6318,-0.5949,-0.5803,-0.5803,-0.5803,0.0,0.0,0.0,0.0,0.0,0.0,0.0,0.0,-0.5171,-0.4906,-0.462,-0.5532,-0.6092,-0.6707,-0.804,0.0,0.0,-1.1008,0.0,0.0,0.0,0.0,0.0,0.0,0.0,0.0,0.0,0.0,0.0,0.0,0.0,0.0,0.0,0.0,0.0,0.0,0.0,0.0,0.0,0.0,0.0,0.0,0.0,0.0,0.0,0.0,0.0,-1.917,-1.917,-1.917,-1.917,-1.9209,-1.9228,0.0,-1.9268,-1.9287,-1.9316,-2.0136,-2.0488,-2.0488,-2.0488,-2.0488,-2.0488,-2.0488,-2.0488,-2.0488,-2.0488,-2.0488,-2.0439,-2.0,-1.9853,-1.9805,0.0,0.0,0.0,0.0,0.0,0.0,0.0,0.0,0.0,0.0,0.0,0.0,0.0,0.0,0.0,0.0,0.0,0.0,0.0,0.0,-0.3191,-0.3191,-0.3191,-0.3312,-0.3599,-0.361,-0.361,-0.361,-0.4411,-0.4944,-0.5244,-0.5728,-0.6294,-0.6872,-0.6107,-0.5929,-0.6154,-0.5356,-0.5376,-0.5919,-0.5832,-0.5803,-0.5803,-0.5803,-0.5508,0.0,0.0,0.0,0.0,0.0,0.0,0.0,-0.4561,-0.4657,-0.4761,-0.4975,-0.544,-0.6138,-0.732,-0.8187,0.0,0.0,0.0,0.0,0.0,0.0,0.0,0.0,0.0,0.0,0.0,0.0,0.0,0.0,0.0,0.0,0.0,0.0,0.0,0.0,0.0,0.0,0.0,0.0,0.0,0.0,0.0,0.0,0.0,0.0,0.0,-1.8281,-1.8281,-1.8281,-1.8281,-1.8578,-1.8744,0.0,-1.9121,-1.9287,-1.9297,-1.9482,-1.9597,-1.9597,-1.9597,-1.9597,-1.9597,-1.9597,-1.9597,-1.9597,-1.9597,-1.9597,-1.9588,-1.9463,-1.9424,-1.9404,0.0,0.0,0.0,0.0,0.0,0.0,0.0,0.0,0.0,0.0,0.0,0.0,0.0,0.0,0.0,0.0,0.0,0.0,0.0,-0.3181,-0.3046,-0.2918,-0.2907,-0.3036,-0.3298,-0.3309,-0.3372,-0.3495,-0.4082,-0.4584,-0.5014,-0.5707,-0.6274,-0.6664,-0.5944,-0.5727,-0.58,-0.5089,-0.5117,-0.5618,-0.5748,-0.5803,-0.5803,-0.5803,-0.5508,-0.5098,-0.5098,0.0,0.0,0.0,0.0,0.0,0.0,0.0,-0.4231,-0.4529,-0.4928,-0.5561,0.0,0.0,0.0,0.0,0.0,0.0,0.0,0.0,0.0,0.0,0.0,0.0,0.0,0.0,0.0,0.0,0.0,0.0,0.0,0.0,0.0,0.0,0.0,0.0,0.0,0.0,0.0,0.0,0.0,0.0,0.0,-1.8008,-1.8008,-1.8008,-1.8008,-1.8008,-1.8008,-1.8223,-1.8295,-1.8305,-1.8564,-1.8682,-1.8691,-1.9102,-1.9287,-1.9287,-1.9287,-1.9287,-1.9287,-1.9287,-1.9287,-1.9287,-1.9287,-1.9287,-1.9268,-1.9053,-1.8975,-1.8945,0.0,0.0,0.0,0.0,0.0,0.0,0.0,0.0,0.0,0.0,0.0,0.0,0.0,0.0,0.0,0.0,0.0,0.0,0.0,-0.2982,-0.2848,-0.2621,-0.2611,-0.2762,-0.3089,-0.31,-0.3234,-0.3495,-0.378,-0.427,-0.4981,-0.5756,-0.6324,-0.6662,-0.6063,-0.5762,-0.5669,-0.5014,-0.4939,-0.5298,-0.5524,-0.5632,-0.5675,-0.5675,-0.5429,-0.5088,-0.5049,-0.5001,-0.4922,-0.4646,0.0,0.0,0.0,0.0,-0.3612,-0.4168,-0.4555,-0.508,-0.636,0.0,0.0,0.0,0.0,0.0,0.0,0.0,0.0,0.0,0.0,0.0,0.0,0.0,0.0,0.0,0.0,0.0,0.0,0.0,0.0,0.0,0.0,0.0,0.0,0.0,0.0,0.0,0.0,0.0,-1.8008,-1.8008,-1.8008,-1.8008,-1.8008,-1.8008,-1.8008,-1.8008,-1.8008,-1.8008,-1.8008,-1.8008,-1.8037,-1.874,-1.9072,-1.9072,-1.9072,-1.9072,-1.9072,-1.9072,-1.9072,-1.9072,-1.9072,-1.9072,-1.9023,-1.8627,-1.849,-1.8442,0.0,0.0,0.0,0.0,0.0,0.0,0.0,0.0,0.0,0.0,0.0,-0.3464,-0.3495,-0.3495,0.0,0.0,0.0,0.0,-0.2773,0.0,0.0,-0.227,-0.227,-0.2535,-0.3089,-0.31,-0.3234,-0.3495,-0.3826,-0.4271,-0.4833,-0.519,-0.5532,-0.5845,-0.5517,-0.5215,-0.4922,-0.4594,-0.4587,-0.4797,-0.4827,-0.4987,-0.5195,-0.5195,-0.5146,-0.5069,-0.4844,-0.4596,-0.4366,-0.4099,-0.3828,0.0,0.0,0.0,0.0,0.0,-0.4409,-0.4907,0.0,0.0,0.0,0.0,0.0,0.0,0.0,0.0,0.0,0.0,0.0,0.0,0.0,0.0,0.0,0.0,0.0,0.0,0.0,0.0,0.0,0.0,0.0,0.0,0.0,0.0,0.0,0.0,0.0,0.0,-1.8008,-1.8008,-1.8008,-1.8008,-1.8008,-1.8008,-1.8008,-1.8008,-1.8008,-1.8008,-1.8008,-1.8008,-1.8018,-1.8125,-1.8174,-1.8174,-1.8174,-1.8174,-1.8174,-1.8174,-1.8174,-1.8174,-1.8174,-1.8174,-1.8174,-1.8115,-1.8096,-1.8086,0.0,0.0,0.0,0.0,0.0,0.0,0.0,0.0,0.0,0.0,0.0,-0.333,-0.3485,-0.3495,0.0,0.0,0.0,0.0,-0.2448,-0.2143,0.0,-0.1978,-0.1978,-0.2172,-0.2589,-0.2783,-0.3004,-0.3277,-0.3577,-0.4188,-0.509,-0.5354,-0.5739,-0.6192,-0.5916,-0.5614,-0.5259,-0.4659,-0.454,-0.4754,-0.4715,-0.5312,-0.6141,-0.539,-0.547,-0.5881,-0.5011,-0.4527,-0.4262,0.0,0.0,0.0,0.0,0.0,0.0,0.0,0.0,0.0,-0.5729,0.0,0.0,0.0,0.0,0.0,0.0,0.0,0.0,0.0,0.0,0.0,0.0,0.0,0.0,0.0,0.0,0.0,0.0,0.0,0.0,0.0,0.0,0.0,0.0,0.0,0.0,0.0,0.0,-1.7759,-1.7242,-1.7716,-1.8008,-1.8008,-1.8008,-1.8008,-1.8008,-1.8008,-1.8008,-1.8008,-1.8008,-1.8008,-1.8008,-1.8008,-1.8008,-1.8008,-1.8008,-1.8008,-1.8008,-1.8008,-1.8008,-1.8008,-1.8008,-1.8008,-1.8008,-1.8008,-1.8008,-1.8008,0.0,0.0,0.0,0.0,0.0,0.0,0.0,0.0,0.0,0.0,0.0,0.0,-0.3474,0.0,0.0,0.0,0.0,0.0,-0.2143,0.0,0.0,0.0,0.0,-0.1924,-0.2193,-0.2524,-0.2832,-0.31,-0.3362,-0.4116,-0.5306,-0.5578,-0.6065,-0.6693,-0.6492,-0.6064,-0.5431,-0.478,-0.4663,-0.49,-0.4846,-0.5634,-0.6759,-0.5911,-0.6074,-0.6608,-0.5392,-0.4821,0.0,0.0,0.0,0.0,0.0,0.0,0.0,0.0,0.0,0.0,0.0,0.0,0.0,0.0,0.0,0.0,0.0,0.0,0.0,0.0,0.0,0.0,0.0,0.0,0.0,0.0,0.0,0.0,0.0,0.0,0.0,0.0,0.0,0.0,0.0,0.0,0.0,0.0,0.0,-1.684,-1.6362,-1.6975,-1.7475,-1.7652,-1.7686,-1.7686,-1.7686,-1.7475,-1.7365,-1.7365,-1.747,-1.7518,-1.7528,-1.7847,-1.8008,-1.8008,-1.8008,-1.8008,-1.8008,-1.8008,-1.8008,-1.8008,-1.8008,-1.8008,-1.8008,-1.8008,-1.8008,-1.8008,0.0,0.0,0.0,0.0,0.0,0.0,0.0,0.0,0.0,0.0,0.0,0.0,-0.3495,-0.3495,-0.3393,-0.3143,0.0,0.0,0.0,0.0,0.0,0.0,0.0,0.0,-0.2193,-0.2524,-0.2832,-0.31,-0.3362,-0.4116,-0.5306,-0.5578,-0.6154,-0.698,-0.696,-0.6174,-0.4847,-0.4802,0.0,0.0,-0.5181,-0.5568,-0.62,-0.6702,-0.6929,-0.6873,-0.5961,0.0,0.0,0.0,0.0,0.0,0.0,0.0,0.0,0.0,0.0,0.0,0.0,0.0,0.0,0.0,0.0,0.0,0.0,0.0,0.0,0.0,0.0,0.0,0.0,0.0,0.0,0.0,0.0,0.0,0.0,0.0,0.0,0.0,0.0,0.0,0.0,0.0,0.0,0.0,0.0,-1.4798,-1.5513,-1.561,-1.5983,-1.6733,-1.6765,-1.6765,-1.6765,-1.6015,-1.5643,-1.5619,-1.6026,-1.62,-1.6251,-1.7465,-1.8008,-1.8008,-1.8008,-1.8008,-1.8008,-1.8008,-1.8008,-1.8008,-1.8008,-1.8008,-1.8008,-1.8008,-1.8008,-1.8008,0.0,0.0,0.0,0.0,0.0,0.0,0.0,0.0,0.0,0.0,0.0,0.0,0.0,-0.3143,-0.3132,-0.2864,-0.2557,0.0,0.0,0.0,0.0,0.0,0.0,0.0,0.0,-0.2226,-0.2535,-0.2843,-0.3111,-0.3751,-0.4729,-0.521,-0.5504,-0.5617,-0.6387,-0.6453,-0.5912,-0.5126,0.0,0.0,0.0,-0.6252,-0.7294,-0.7077,-0.741,-0.7828,0.0,0.0,0.0,0.0,0.0,0.0,0.0,-0.3733,-0.3609,-0.3525,-0.3772,0.0,0.0,0.0,0.0,0.0,0.0,0.0,0.0,0.0,0.0,0.0,0.0,0.0,0.0,0.0,0.0,0.0,0.0,0.0,0.0,0.0,0.0,0.0,0.0,0.0,0.0,0.0,0.0,0.0,0.0,0.0,-1.4607,-1.5661,-1.6392,-1.6697,-1.6697,-1.6456,-1.5918,-1.5652,-1.5224,-1.4737,-1.4867,-1.4936,-1.4969,-1.5424,-1.5728,-1.5882,-1.5882,-1.6692,-1.8008,-1.8008,-1.8008,-1.8008,-1.8008,-1.8008,-1.8008,-1.8008,-1.8008,-1.8008,0.0,0.0,0.0,0.0,0.0,0.0,0.0,0.0,0.0,-0.2971,0.0,0.0,0.0,0.0,-0.295,-0.2567,-0.2324,-0.2088,-0.1814,-0.1803,0.0,0.0,0.0,0.0,0.0,-0.2062,-0.2357,-0.2697,-0.2971,-0.3545,-0.4409,-0.4817,-0.4983,-0.5002,-0.5681,-0.6059,0.0,0.0,0.0,-0.5859,0.0,0.0,-0.7779,-0.765,-0.8012,0.0,0.0,0.0,0.0,0.0,0.0,0.0,0.0,-0.3791,-0.3615,-0.3531,-0.3863,0.0,-0.4482,0.0,0.0,0.0,0.0,0.0,0.0,0.0,0.0,0.0,0.0,0.0,0.0,0.0,0.0,0.0,0.0,0.0,0.0,0.0,0.0,0.0,0.0,0.0,0.0,0.0,0.0,0.0,0.0,0.0,-1.3759,-1.507,-1.5971,-1.6258,-1.6258,-1.5868,-1.5052,-1.48,-1.4253,-1.3461,-1.3583,-1.3672,-1.368,-1.4098,-1.4413,-1.4572,-1.4572,-1.5504,-1.7079,-1.7398,-1.7535,-1.7579,-1.7862,-1.8008,-1.8008,-1.8008,-1.8008,-1.8008,0.0,0.0,0.0,0.0,0.0,0.0,0.0,0.0,-0.2697,-0.2686,0.0,0.0,0.0,0.0,0.0,-0.2245,-0.2191,-0.2081,-0.1814,-0.1803,0.0,0.0,0.0,0.0,-0.1803,-0.2055,-0.2346,-0.2686,-0.2961,-0.3521,-0.4362,-0.4382,-0.4696,-0.5246,-0.4942,-0.4975,-0.5306,0.0,-0.6137,-0.6162,0.0,-0.7161,-0.7525,0.0,0.0,0.0,-0.8114,-0.7422,0.0,0.0,0.0,0.0,0.0,-0.3682,-0.3518,-0.3522,-0.3756,-0.402,0.0,0.0,0.0,0.0,0.0,0.0,0.0,0.0,0.0,0.0,0.0,0.0,0.0,0.0,0.0,0.0,0.0,0.0,0.0,0.0,0.0,0.0,0.0,0.0,0.0,0.0,0.0,0.0,0.0,-1.2174,-1.2948,-1.3795,-1.4599,-1.5381,-1.5381,-1.4991,-1.4174,-1.3364,-1.2573,-1.1772,-1.2172,-1.2362,-1.2402,-1.3631,-1.4188,-1.4197,-1.4197,-1.4537,-1.5165,-1.6158,-1.6549,-1.6653,-1.7569,-1.794,-1.7974,-1.7974,-1.7974,-1.7974,0.0,0.0,0.0,0.0,0.0,-0.228,-0.2524,-0.2643,-0.2611,0.0,0.0,0.0,-0.211,-0.2203,-0.2231,-0.2067,-0.2051,-0.1981,-0.1809,-0.1803,-0.1803,-0.1803,-0.1803,-0.1803,-0.1803,-0.1869,-0.2055,-0.2335,-0.2654,-0.3028,-0.3473,-0.3904,-0.42,-0.4375,-0.4669,-0.4749,-0.4656,-0.4823,0.0,0.0,-0.6437,-0.6955,0.0,0.0,0.0,0.0,0.0,-0.7491,-0.7011,0.0,-0.5206,-0.4496,0.0,0.0,-0.4021,-0.412,-0.4285,-0.441,-0.4316,0.0,0.0,0.0,0.0,0.0,0.0,0.0,0.0,0.0,0.0,0.0,0.0,0.0,0.0,0.0,0.0,0.0,0.0,0.0,0.0,0.0,0.0,0.0,0.0,0.0,0.0,0.0,-1.1872,-1.2765,-1.2978,-1.4293,-1.5167,-1.5381,-1.4844,-1.4154,-1.3342,-1.2535,-1.1748,-1.0926,-1.1048,-1.109,-1.1121,-1.1454,-1.174,-1.1923,-1.1923,-1.2119,-1.2602,-1.4445,-1.5625,-1.6229,-1.6035,-1.6402,-1.6991,-1.6991,-1.6991,-1.707,0.0,0.0,0.0,-0.2011,-0.217,-0.2311,-0.2395,-0.251,-0.2479,0.0,0.0,0.0,-0.2199,-0.2194,-0.2157,-0.2009,-0.1999,-0.1943,-0.1813,-0.1803,-0.1803,-0.1803,-0.1803,-0.1803,-0.1803,-0.1803,-0.1935,-0.2204,-0.2394,-0.2697,-0.3106,-0.3461,-0.3679,-0.3801,-0.4117,-0.4249,-0.4228,0.0,0.0,0.0,-0.6593,0.0,0.0,-0.8397,-0.8469,0.0,0.0,0.0,-0.6472,-0.5873,-0.5144,0.0,0.0,-0.4015,-0.4101,-0.4035,-0.4225,0.0,-0.4098,-0.4682,0.0,0.0,0.0,0.0,0.0,0.0,0.0,0.0,0.0,0.0,0.0,0.0,0.0,0.0,0.0,0.0,0.0,0.0,0.0,0.0,0.0,0.0,0.0,0.0,0.0,-1.0593,-1.1787,-1.2787,-1.3455,-1.4392,-1.505,-1.5381,-1.4628,-1.3816,-1.3009,-1.2205,-1.1406,-1.0593,-1.0593,-1.0593,-1.0593,-1.0593,-1.0687,-1.0847,-1.0847,-1.0909,-1.1182,-1.2572,-1.3787,-1.4799,-1.493,-1.5315,-1.5817,-1.5939,-1.6245,-1.6671,0.0,0.0,-0.1809,-0.186,-0.2141,-0.2297,-0.2107,-0.2245,-0.2336,0.0,-0.2327,-0.2495,-0.2701,-0.2598,-0.24,-0.2106,-0.2043,-0.197,-0.1829,-0.1813,-0.1803,-0.1803,-0.1803,-0.1803,-0.1803,-0.1803,-0.1913,-0.215,-0.2182,-0.2487,-0.3057,-0.3089,-0.3245,-0.3495,-0.3495,-0.3663,-0.3938,0.0,0.0,-0.5788,-0.6874,-0.7555,0.0,0.0,-0.8323,0.0,-0.7616,-0.6686,-0.5483,-0.5406,-0.4896,0.0,0.0,-0.3988,-0.4026,-0.3734,-0.3935,0.0,-0.376,-0.4339,0.0,0.0,0.0,0.0,-0.7326,-0.7094,0.0,0.0,0.0,0.0,0.0,0.0,0.0,0.0,0.0,0.0,0.0,0.0,0.0,0.0,0.0,0.0,0.0,-1.0338,-1.0492,-1.0492,-1.1243,-1.2354,-1.3901,-1.4093,-1.4446,-1.5071,-1.4423,-1.3666,-1.2879,-1.2081,-1.132,-1.0593,-1.0593,-1.0593,-1.0593,-1.0593,-1.0593,-1.0593,-1.0593,-1.0593,-1.0613,-1.0868,-1.1706,-1.2952,-1.3946,-1.4416,-1.4525,-1.4819,-1.546,-1.619,0.0,-0.1803,-0.1897,-0.2227,-0.2172,-0.2188,-0.2509,-0.238,-0.2232,-0.2207,-0.237,-0.2576,-0.2829,-0.2743,-0.2628,-0.257,-0.2319,-0.2104,-0.1974,-0.186,-0.1803,-0.1803,-0.1803,-0.1803,-0.1803,-0.1803,-0.1825,-0.188,-0.2099,-0.24,-0.2783,-0.3004,-0.3245,-0.3495,-0.3495,-0.3539,-0.3632,0.0,0.0,-0.5714,-0.5959,0.0,-0.8328,-0.8442,-0.8151,-0.7616,-0.702,-0.6253,-0.5406,0.0,-0.4797,-0.4871,0.0,0.0,0.0,0.0,0.0,-0.4595,-0.4619,-0.535,-0.6017,-0.5632,0.0,0.0,0.0,-0.6218,0.0,0.0,0.0,0.0,0.0,0.0,0.0,0.0,0.0,0.0,0.0,0.0,0.0,0.0,0.0,0.0,0.0,-0.9849,-0.9883,-0.9883,-1.0617,-1.1498,-1.2445,-1.3364,-1.3658,-1.3165,-1.3212,-1.2848,-1.205,-1.1233,-1.0776,-1.0593,-1.0593,-1.0593,-1.0593,-1.0593,-1.0593,-1.0593,-1.0593,-1.0593,-1.0593,-1.0653,-1.1389,-1.248,-1.2164,-1.2558,-1.325,-1.3312,-1.3471,-1.3733,-0.1803,-0.1803,-0.1885,-0.2152,-0.2149,-0.2214,-0.2553,-0.2459,-0.2425,-0.2616,-0.2876,-0.3034,-0.2996,-0.2947,-0.2842,-0.271,-0.2491,-0.2249,-0.2012,-0.1937,-0.1873,-0.1806,-0.1803,-0.1803,-0.1803,-0.1803,-0.1803,-0.1803,-0.1935,-0.2241,-0.2697,-0.2843,-0.3269,-0.3936,-0.3639,-0.3734,-0.4163,0.0,-0.4895,-0.5748,-0.6353,0.0,-0.8415,-0.8537,-0.7986,-0.7101,-0.6723,-0.5905,-0.4937,-0.4483,-0.4536,0.0,0.0,-0.4465,-0.4584,0.0,-0.445,-0.4449,-0.4443,-0.5044,-0.5584,-0.5282,0.0,0.0,0.0,0.0,0.0,0.0,0.0,0.0,0.0,0.0,0.0,0.0,0.0,0.0,0.0,0.0,0.0,0.0,0.0,0.0,0.0,-0.9593,-0.9715,-0.9715,-1.007,-1.08,-1.1939,-1.2225,-1.2504,-1.2824,-1.2278,-1.1808,-1.1548,-1.0753,-1.0445,-1.0593,-1.0593,-1.0593,-1.0593,-1.0593,-1.0593,-1.0593,-1.0593,-1.0593,-1.0593,-1.0593,-1.096,-1.1472,-1.1295,-1.1511,-1.1959,-1.2109,-1.247,-1.2983,-0.1792,-0.1803,-0.1839,-0.1972,-0.211,-0.2272,-0.2477,-0.2522,-0.2688,-0.3087,-0.3405,-0.3507,-0.3293,-0.3246,-0.3154,-0.2935,-0.2737,-0.2484,-0.2188,-0.209,-0.1985,-0.1887,-0.1826,-0.1805,-0.1836,-0.1809,-0.1803,-0.1803,-0.1803,-0.211,-0.2697,-0.2697,-0.3278,-0.4302,-0.3869,-0.4097,0.0,0.0,0.0,-0.5846,0.0,-0.7593,-0.8063,-0.8274,-0.7514,-0.634,-0.6222,-0.5473,-0.447,-0.4301,0.0,-0.4447,-0.4182,-0.427,0.0,0.0,0.0,0.0,0.0,0.0,0.0,0.0,0.0,-0.5353,0.0,0.0,0.0,-0.5157,0.0,0.0,0.0,0.0,0.0,0.0,0.0,0.0,0.0,0.0,0.0,0.0,0.0,0.0,0.0,-0.9239,-0.9392,-0.9506,-0.9412,-0.9932,-1.1241,-1.0994,-1.1284,-1.2307,-1.1403,-1.092,-1.0975,-1.0405,-1.0241,-1.0506,-1.0566,-1.0593,-1.0593,-1.0593,-1.0593,-1.0593,-1.0593,-1.0593,-1.0593,-1.0593,-1.0593,-1.0613,-1.0854,-1.0909,-1.0942,-1.1176,-1.176,-1.2461,-0.1736,-0.1803,-0.1839,-0.1972,-0.211,-0.2272,-0.2477,-0.2599,-0.2815,-0.3222,-0.3473,-0.3666,-0.3869,-0.3795,0.0,0.0,0.0,0.0,-0.2801,0.0,-0.2164,-0.216,-0.1926,-0.1856,-0.1968,-0.1863,-0.1803,-0.1803,-0.1803,-0.211,-0.2697,-0.2697,-0.3175,-0.4052,-0.4222,0.0,0.0,0.0,-0.5687,0.0,-0.6385,-0.6635,0.0,-0.6709,-0.6163,-0.5383,-0.4899,-0.4625,-0.4487,0.0,-0.4474,-0.4484,0.0,-0.4464,0.0,0.0,0.0,0.0,0.0,0.0,0.0,0.0,-0.5589,0.0,0.0,0.0,-0.5003,-0.4165,0.0,0.0,0.0,0.0,0.0,0.0,0.0,0.0,0.0,0.0,0.0,0.0,0.0,0.0,0.0,0.0,-0.8318,-0.8871,-0.8398,-0.8407,-0.911,-1.0048,-1.0285,-0.9667,-1.0447,-1.0558,-0.9901,-1.0017,-1.0134,-1.0167,-1.0466,-1.0593,-1.0593,-1.0593,-1.0593,-1.0593,-1.0593,-1.0593,-1.0593,-1.0593,-1.0593,-1.0593,-1.0626,-1.064,-1.0646,-1.068,-1.075,-1.0846,-0.1736,-0.1637,-0.1616,-0.1947,-0.2049,-0.2184,-0.2463,-0.2915,-0.329,-0.3456,-0.3741,-0.3957,0.0,0.0,0.0,0.0,0.0,-0.3286,0.0,0.0,-0.2656,-0.2503,-0.23,-0.2177,-0.2117,-0.1979,-0.1884,-0.1803,-0.1803,-0.2011,-0.2415,-0.2611,-0.3242,-0.4241,-0.4513,0.0,-0.5858,0.0,0.0,0.0,0.0,0.0,0.0,-0.6683,-0.6686,-0.5926,-0.4875,-0.4491,-0.4477,0.0,-0.4392,0.0,0.0,0.0,0.0,0.0,0.0,0.0,0.0,0.0,0.0,0.0,0.0,0.0,0.0,0.0,-0.4216,0.0,0.0,0.0,0.0,0.0,0.0,0.0,0.0,0.0,0.0,0.0,0.0,0.0,0.0,0.0,0.0,0.0,0.0,0.0,0.0,-0.8273,-0.9094,-0.9389,-0.9534,-0.9553,-0.9634,-0.9598,-0.9426,-0.9719,-0.9953,-1.009,-1.0452,-1.0593,-1.0593,-1.0593,-1.0593,-1.0593,-1.0593,-1.0593,-1.0593,-1.0593,-1.0593,-1.0593,-1.0593,-1.0593,-1.0593,-1.0593,-1.0593,-1.0593,-0.1491,0.0,0.0,-0.175,-0.1943,-0.2188,-0.2594,-0.3157,-0.3561,-0.3683,-0.3994,0.0,-0.4148,-0.4043,0.0,0.0,0.0,-0.3649,0.0,0.0,-0.3087,-0.2952,-0.2695,0.0,0.0,-0.2167,-0.1985,-0.1856,-0.1812,-0.1957,-0.2257,-0.246,-0.3147,-0.4232,-0.4725,-0.5507,-0.6473,0.0,0.0,-0.5928,-0.5249,-0.4879,-0.486,-0.6221,-0.6453,-0.5882,-0.4873,-0.4491,-0.4474,-0.4341,-0.4375,0.0,-0.4338,0.0,0.0,0.0,0.0,0.0,-0.4491,0.0,0.0,0.0,0.0,0.0,0.0,0.0,0.0,0.0,0.0,0.0,0.0,0.0,0.0,0.0,0.0,0.0,0.0,0.0,0.0,0.0,0.0,0.0,0.0,0.0,0.0,0.0,0.0,0.0,-0.906,-0.8846,-0.8952,-0.951,-0.9061,-0.8884,-0.9091,-0.9412,-0.9666,-0.985,-1.018,-1.0392,-1.0472,-1.0472,-1.0512,-1.0593,-1.0593,-1.0593,-1.0593,-1.0593,-1.0593,-1.0593,-1.0593,-1.0593,-1.0593,-1.0593,-1.0593,-1.0593,-0.0864,-0.1133,0.0,0.0,0.0,-0.2398,-0.299,-0.3206,-0.347,-0.3923,0.0,0.0,0.0,0.0,0.0,0.0,0.0,-0.411,-0.3977,0.0,-0.3384,0.0,0.0,-0.2757,0.0,-0.2425,-0.213,-0.1992,-0.1867,-0.2004,-0.2388,-0.227,-0.275,-0.377,-0.4818,-0.563,-0.6226,-0.6346,-0.6323,-0.6106,-0.5118,-0.5012,-0.5383,0.0,-0.4422,-0.4574,-0.4519,0.0,0.0,-0.4484,-0.4487,0.0,0.0,0.0,0.0,0.0,0.0,0.0,0.0,0.0,0.0,-0.41,0.0,0.0,0.0,0.0,-0.3785,0.0,0.0,0.0,0.0,0.0,-0.3877,-0.4024,-0.4543,0.0,0.0,0.0,0.0,0.0,0.0,0.0,0.0,0.0,0.0,0.0,0.0,0.0,-0.836,-0.8409,-0.8543,-0.8824,-0.8804,-0.8811,-0.8824,-0.9084,-0.9231,-0.9244,-0.9566,-0.986,-1.0134,-1.0134,-1.0287,-1.0593,-1.0593,-1.0593,-1.0593,-1.0593,-1.0593,-1.0593,-1.0593,-1.0593,-1.0593,-1.0593,-1.0593,-1.0593,0.0,0.0,0.0,0.0,0.0,-0.2305,-0.2996,-0.3394,-0.3802,0.0,0.0,0.0,0.0,0.0,-0.4765,0.0,0.0,-0.4473,-0.4348,-0.4055,0.0,0.0,0.0,-0.3368,0.0,0.0,-0.2557,-0.2331,-0.2157,-0.2136,-0.2264,-0.231,-0.2681,-0.3365,-0.4707,-0.5676,0.0,0.0,0.0,0.0,0.0,-0.4477,-0.4807,0.0,0.0,-0.5109,-0.4653,-0.4491,0.0,-0.4491,-0.4491,-0.4491,-0.4491,-0.4491,-0.4491,-0.4491,-0.4491,0.0,0.0,0.0,-0.4541,-0.422,0.0,0.0,0.0,0.0,0.0,0.0,0.0,0.0,0.0,0.0,-0.3862,-0.4085,-0.4163,-0.4309,0.0,0.0,0.0,0.0,0.0,0.0,0.0,0.0,0.0,0.0,0.0,0.0,0.0,-0.845,-0.8704,-0.8804,-0.8804,-0.8804,-0.8804,-0.9071,-0.9211,-0.9217,-0.9546,-0.9733,-0.9833,-0.9833,-0.9987,-1.0267,-1.0267,-1.0381,-1.0593,-1.0593,-1.0593,-1.0593,-1.0593,-1.0593,-1.0593,-1.0593,-1.0593,-1.0593,-0.0764,0.0,0.0,0.0,0.0,0.0,0.0,0.0,0.0,0.0,-0.4677,0.0,-0.4877,0.0,-0.4887,0.0,-0.483,-0.4707,-0.4583,-0.4457,0.0,-0.4185,-0.4033,0.0,0.0,0.0,-0.2993,-0.2647,-0.2466,-0.2353,-0.2313,-0.2317,-0.2574,-0.3093,0.0,-0.5587,0.0,0.0,-0.65,0.0,0.0,-0.432,0.0,0.0,-0.4759,-0.5081,0.0,-0.4491,-0.4491,-0.4491,-0.4491,-0.4491,-0.4491,-0.4491,-0.4501,-0.4556,-0.4573,-0.4583,-0.4638,-0.4697,0.0,-0.4439,-0.4378,0.0,-0.3998,0.0,0.0,0.0,0.0,0.0,0.0,0.0,-0.3942,-0.3991,-0.3921,-0.4029,0.0,0.0,0.0,0.0,0.0,0.0,0.0,0.0,-0.6373,-0.6953,0.0,0.0,0.0,0.0,-0.8565,-0.8798,-0.8804,-0.8804,-0.8804,-0.8964,-0.9058,-0.9058,-0.9279,-0.9426,-0.9526,-0.9526,-0.9686,-0.996,-0.996,-1.0127,-1.0432,-1.0432,-1.0492,-1.0593,-1.0593,-1.0593,-1.0593,-1.0593,-1.0593,-1.0593,0.0,0.0,0.0,0.0,-0.2449,0.0,0.0,0.0,-0.4331,0.0,-0.4833,-0.4904,-0.4911,-0.4942,-0.4942,-0.4942,-0.4904,0.0,-0.4721,-0.4707,0.0,0.0,-0.4318,-0.4173,-0.4018,0.0,0.0,0.0,-0.2791,-0.2647,-0.2508,-0.2302,-0.2463,-0.2971,-0.4403,0.0,-0.5928,-0.6078,-0.6289,-0.6372,-0.5034,-0.4491,-0.4491,-0.4491,-0.4491,-0.4491,-0.4491,-0.4491,-0.4491,-0.4491,-0.4491,-0.4491,-0.4491,-0.4494,-0.4532,-0.4679,-0.4697,-0.4735,-0.4877,-0.4894,-0.4894,-0.4741,0.0,0.0,0.0,0.0,-0.4464,0.0,0.0,0.0,0.0,0.0,0.0,-0.3696,-0.3836,-0.3993,0.0,0.0,0.0,0.0,0.0,0.0,0.0,0.0,-0.5765,-0.6853,-0.6194,0.0,0.0,0.0,-0.8172,-0.8764,-0.8798,-0.8804,-0.8804,-0.8804,-0.8804,-0.8804,-0.8804,-0.8924,-0.9191,-0.9191,-0.9351,-0.9659,-0.9659,-0.9833,-1.0083,-1.0083,-1.0294,-1.0593,-1.0593,-1.0593,-1.0593,-1.0593,-1.0593,-1.0593,-0.0837,-0.1506,-0.2072,0.0,-0.2866,-0.336,0.0,0.0,0.0,0.0,-0.4955,-0.5121,-0.5269,-0.5279,-0.5279,-0.5279,-0.5142,0.0,0.0,0.0,0.0,-0.4802,-0.4657,-0.4504,-0.4378,-0.3972,0.0,-0.343,0.0,0.0,-0.2651,-0.25,-0.2642,-0.3077,0.0,0.0,-0.622,-0.5534,-0.5155,-0.5007,-0.4656,-0.4491,0.0,0.0,-0.4491,-0.4491,-0.4491,-0.4491,-0.4491,-0.4491,-0.4491,-0.4491,-0.4491,-0.4566,-0.4668,-0.4677,-0.4772,-0.487,-0.4877,-0.4965,-0.5009,-0.4897,-0.486,-0.4809,0.0,0.0,0.0,0.0,0.0,0.0,0.0,0.0,0.0,-0.3961,-0.3961,-0.3967,0.0,0.0,0.0,0.0,0.0,0.0,0.0,0.0,-0.5725,-0.6007,-0.6246,0.0,0.0,0.0,0.0,-0.8502,-0.8697,-0.8804,-0.8804,-0.8804,-0.8804,-0.8804,-0.8804,-0.8844,-0.8891,-0.8891,-0.9051,-0.9324,-0.9324,-0.961,-1.0083,-1.0083,-1.0294,-1.0593,-1.0593,-1.0593,-1.0593,-1.0593,-1.0593,-1.0593,-0.064,0.0,0.0,-0.2453,0.0,0.0,-0.4165,0.0,0.0,-0.4847,-0.5012,0.0,-0.525,-0.5354,-0.5395,-0.5395,-0.5281,0.0,0.0,0.0,0.0,-0.4894,-0.4897,-0.4782,-0.4593,-0.4341,0.0,-0.3696,0.0,0.0,-0.2778,-0.2658,-0.2712,-0.2948,0.0,-0.4538,0.0,-0.5305,-0.4915,-0.4491,-0.4491,0.0,0.0,-0.4563,-0.459,-0.46,-0.4665,-0.4648,-0.46,-0.4668,-0.4663,-0.4663,-0.4663,-0.4721,-0.4802,-0.4863,-0.4914,-0.4995,-0.5094,-0.5169,-0.5213,-0.5131,-0.5111,-0.507,-0.4918,-0.4884,-0.4863,0.0,0.0,0.0,0.0,0.0,0.0,0.0,0.0,0.0,0.0,0.0,0.0,0.0,0.0,0.0,0.0,0.0,0.0,0.0,0.0,0.0,0.0,0.0,0.0,-0.8389,-0.8657,-0.8804,-0.8804,-0.8804,-0.8804,-0.8804,-0.8804,-0.8804,-0.8804,-0.8804,-0.8871,-0.9024,-0.9024,-0.9284,-0.9717,-0.9873,-1.01,-1.0412,-1.0539,-1.0593,-1.0593,-1.0593,-1.0593,-1.0593,0.0,0.0,0.0,0.0,0.0,0.0,0.0,-0.4662,0.0,-0.4894,0.0,-0.513,-0.513,-0.5281,-0.5395,-0.5395,0.0,-0.5337,-0.5137,-0.5287,-0.5279,-0.4989,-0.5046,-0.4972,-0.4724,-0.468,0.0,0.0,0.0,0.0,-0.2849,-0.2751,-0.2708,0.0,0.0,0.0,0.0,-0.525,-0.5124,0.0,-0.4518,-0.4532,-0.4563,-0.467,-0.4721,-0.4741,-0.4894,-0.485,-0.4741,-0.4874,-0.4887,-0.4887,-0.4887,-0.4901,-0.4938,-0.5063,-0.5113,-0.5189,-0.5358,-0.5395,-0.5395,-0.5395,-0.5395,-0.5358,-0.5189,-0.513,-0.5093,-0.5003,-0.484,-0.4721,0.0,0.0,0.0,0.0,0.0,0.0,0.0,0.0,0.0,0.0,0.0,0.0,0.0,0.0,0.0,0.0,0.0,0.0,0.0,0.0,0.0,-0.8328,-0.8637,-0.8804,-0.8804,0.0,-0.8804,-0.8804,-0.8804,-0.8804,-0.8804,-0.8804,-0.8804,-0.8804,-0.8804,-0.8944,-0.9231,-0.9519,-0.982,-1.0117,-1.0479,-1.0593,-1.0593,-1.0593,-1.0593,-1.0593,0.0,0.0,0.0,0.0,0.0,-0.4663,-0.4816,-0.486,-0.4901,-0.5042,-0.5226,-0.5354,-0.5354,-0.5378,-0.5395,-0.5395,-0.5395,0.0,0.0,0.0,0.0,-0.5317,-0.5186,-0.5019,-0.488,-0.4658,-0.4293,0.0,0.0,-0.3135,-0.2565,-0.2664,-0.2767,0.0,0.0,0.0,-0.4182,-0.5096,0.0,-0.4679,-0.4679,-0.4724,-0.4843,-0.4867,-0.4877,-0.4897,-0.5012,-0.4972,-0.4884,-0.4881,-0.4887,-0.4887,-0.4887,-0.4968,-0.5066,-0.5093,-0.522,-0.5361,-0.5388,-0.5395,-0.5395,-0.5395,-0.5395,-0.5388,-0.5361,-0.5354,-0.5347,-0.532,-0.5067,-0.4877,-0.4877,0.0,0.0,0.0,0.0,0.0,0.0,0.0,0.0,0.0,0.0,0.0,0.0,0.0,0.0,0.0,0.0,0.0,0.0,0.0,0.0,0.0,-0.8524,0.0,0.0,0.0,-0.8804,-0.8804,-0.8804,-0.8804,-0.8804,-0.8804,-0.8804,-0.8804,-0.8804,-0.8944,-0.9217,-0.9264,-0.9604,-1.0117,-1.0479,-1.0593,-1.0593,-1.0593,-1.0593,-1.0593,0.0,0.0,0.0,0.0,0.0,0.0,0.0,-0.5332,0.0,-0.526,-0.5382,-0.5484,-0.5402,-0.5532,-0.5562,-0.5409,-0.5467,-0.5481,-0.5399,-0.5395,-0.5395,-0.5395,-0.5324,0.0,-0.5002,-0.4813,-0.4542,-0.4163,0.0,-0.332,-0.2971,-0.2788,-0.2776,-0.291,0.0,-0.3694,0.0,0.0,0.0,-0.4697,-0.4775,-0.4853,-0.4897,-0.4968,-0.4999,-0.5015,-0.5196,-0.5206,-0.5148,-0.5148,-0.5148,-0.5148,-0.5148,-0.5196,-0.525,-0.525,-0.5337,-0.5395,-0.5395,-0.5395,-0.5395,-0.5395,-0.5395,-0.5395,-0.5395,-0.5395,-0.5371,-0.5257,-0.507,-0.487,-0.4711,-0.4504,0.0,0.0,0.0,0.0,0.0,0.0,0.0,0.0,0.0,0.0,0.0,0.0,0.0,0.0,0.0,0.0,0.0,0.0,0.0,0.0,0.0,0.0,0.0,0.0,0.0,-0.8804,-0.8804,-0.8804,-0.8804,-0.8804,-0.8804,-0.8804,-0.8804,-0.8858,-0.9011,-0.9317,-0.9726,-1.0117,-1.0479,-1.0593,-1.0593,-1.0593,-1.0593,-1.0593,0.0,-0.078,0.0,0.0,-0.3609,0.0,-0.5483,-0.5739,-0.5755,-0.5525,-0.5559,-0.5589,-0.5501,-0.5664,-0.5708,-0.5511,-0.5566,-0.5583,-0.5498,-0.546,-0.5443,-0.5443,-0.5412,-0.532,-0.5103,-0.4988,-0.4782,0.0,0.0,0.0,-0.3337,-0.3027,-0.2969,0.0,0.0,0.0,0.0,0.0,-0.4755,-0.4796,-0.4884,-0.4955,-0.5026,-0.5138,-0.5179,-0.5196,-0.5351,-0.5395,-0.5395,-0.5395,-0.5395,-0.5395,-0.5395,-0.5395,-0.5395,-0.5395,-0.5395,-0.5395,-0.5395,-0.5395,-0.5395,-0.5395,-0.5395,-0.5395,-0.5395,-0.5368,-0.5277,-0.5123,-0.4961,-0.4785,-0.4542,-0.4491,0.0,0.0,0.0,0.0,0.0,0.0,0.0,0.0,0.0,0.0,0.0,0.0,0.0,0.0,0.0,0.0,-0.5772,-0.6265,0.0,0.0,0.0,-0.8433,-0.8521,0.0,-0.8804,-0.8804,-0.8804,-0.8804,-0.8804,-0.8804,-0.8804,-0.8804,-0.8804,-0.8804,-0.8844,-0.9372,-0.9726,-0.9937,-1.0358,-1.0492,-1.0506,-1.0566,-1.0593,-1.0593,0.0,0.0,0.0,0.0,0.0,0.0,0.0,-0.5827,-0.5912,-0.5783,-0.5772,-0.5776,-0.5762,-0.5786,-0.5789,-0.5762,-0.5772,-0.5776,-0.5762,-0.564,-0.5569,-0.5569,-0.547,-0.532,-0.5103,-0.5086,-0.4803,0.0,0.0,-0.3802,-0.3128,-0.3385,-0.3593,0.0,0.0,0.0,0.0,-0.4769,-0.4941,-0.5059,-0.5073,-0.5196,-0.5354,-0.5368,-0.5375,-0.5375,-0.5388,-0.5395,-0.5395,-0.5395,-0.5395,-0.5395,-0.5395,-0.5395,-0.5395,-0.5395,-0.5395,-0.5395,-0.5395,-0.5395,-0.5395,-0.5395,-0.5395,-0.5395,-0.5395,-0.5254,-0.5117,-0.5103,-0.4908,-0.466,-0.4522,-0.4491,-0.4443,0.0,0.0,0.0,0.0,0.0,0.0,0.0,0.0,0.0,0.0,0.0,0.0,0.0,0.0,0.0,-0.609,-0.6203,-0.6518,-0.7164,0.0,-0.815,-0.7625,-0.8404,-0.8804,-0.8804,-0.8804,-0.8804,-0.8804,-0.8804,-0.8804,-0.8804,-0.8804,-0.8804,-0.8831,-0.9124,-0.9271,-0.9351,-0.991,-1.016,-1.0187,-1.0492,-1.0593,-1.0593,0.0,0.0,0.0,0.0,0.0,0.0,0.0,-0.5136,-0.5448,-0.6009,-0.6115,-0.604,-0.5949,-0.6023,-0.6003,-0.5817,-0.5884,-0.5898,-0.5806,-0.5749,-0.5718,-0.5718,-0.5576,-0.5471,-0.5406,-0.5194,-0.4982,0.0,0.0,-0.4043,-0.3745,-0.3649,0.0,0.0,0.0,-0.4596,-0.4752,-0.4928,-0.5049,-0.5106,-0.5233,-0.5341,-0.5395,-0.5395,-0.5395,-0.5395,-0.5395,-0.5395,-0.5395,-0.5395,-0.5395,-0.5395,-0.5395,-0.5395,-0.5395,-0.5395,-0.5395,-0.5395,-0.5395,-0.5395,-0.5395,-0.5395,-0.5395,-0.5395,-0.5395,-0.5243,-0.5073,-0.4988,-0.4762,-0.4563,-0.4501,-0.4491,-0.447,0.0,0.0,0.0,0.0,0.0,0.0,0.0,0.0,0.0,0.0,0.0,0.0,0.0,0.0,0.0,0.0,0.0,0.0,-0.655,0.0,-0.7443,-0.6841,-0.7272,-0.7696,-0.8129,-0.8129,-0.8374,-0.8804,-0.8804,-0.8804,-0.8804,-0.8804,-0.8804,-0.8831,-0.9091,-0.9211,-0.9271,-0.9857,-1.0083,-1.0154,-1.0479,-1.0593,-1.0593,0.0,0.0,-0.0727,0.0,-0.1843,-0.263,-0.4431,-0.4688,-0.5079,-0.6141,-0.63,-0.6259,-0.6108,-0.6235,-0.6093,-0.5544,-0.5579,-0.5595,-0.5494,-0.5447,-0.5534,-0.5831,-0.5445,0.0,-0.5192,-0.4651,-0.4389,-0.432,-0.4171,0.0,-0.3932,-0.3927,0.0,0.0,-0.4707,-0.488,-0.4961,-0.5135,-0.5199,-0.5209,-0.5351,-0.5395,-0.5395,-0.5395,-0.5395,-0.5362,-0.509,-0.499,-0.4954,-0.4686,-0.4619,-0.4686,-0.5226,-0.5395,-0.5395,-0.5395,-0.5395,-0.5395,-0.5395,-0.5395,-0.5395,-0.5395,-0.5395,-0.5395,-0.5395,-0.5209,-0.4982,-0.4823,-0.4641,-0.4491,-0.4491,-0.4491,-0.4474,-0.4433,0.0,0.0,0.0,0.0,0.0,0.0,0.0,-0.3598,0.0,0.0,0.0,0.0,0.0,0.0,0.0,0.0,0.0,0.0,0.0,0.0,0.0,-0.642,-0.6966,-0.7696,-0.7477,-0.7777,-0.848,-0.8262,-0.8156,-0.8156,-0.8374,-0.848,-0.85,-0.8916,-0.9084,-0.9144,-0.976,-0.9987,-1.0033,-1.0452,-1.0593,-1.0593,0.0,-0.0869,-0.1598,-0.1599,-0.2423,-0.3433,-0.453,-0.4688,-0.5079,-0.6141,-0.63,-0.63,-0.6296,-0.6296,-0.5864,-0.48,-0.4724,-0.4724,-0.4722,-0.4576,-0.4966,0.0,0.0,-0.4207,-0.4207,-0.325,-0.2651,-0.2515,0.0,0.0,-0.3333,0.0,-0.4762,-0.4887,-0.5029,-0.5096,-0.5106,-0.5324,-0.5392,-0.5392,-0.5395,-0.5395,-0.5395,-0.5395,-0.5395,-0.5292,-0.435,-0.4015,-0.3882,-0.3011,-0.2744,-0.3045,-0.4821,-0.5395,-0.5395,-0.5395,-0.5395,-0.5395,-0.5395,-0.5395,-0.5395,-0.5395,-0.5395,-0.5395,-0.5395,-0.5135,-0.4833,-0.4559,-0.4491,-0.4491,-0.4491,-0.4491,-0.4443,-0.4247,0.0,0.0,0.0,0.0,0.0,0.0,-0.3581,-0.3391,-0.3583,0.0,0.0,0.0,0.0,0.0,0.0,0.0,0.0,-0.5293,-0.5908,0.0,-0.5328,-0.6158,-0.6966,-0.7696,-0.6966,-0.6993,-0.7696,-0.6966,-0.6615,-0.6669,-0.7396,-0.7723,-0.7777,-0.8513,-0.8811,-0.8871,-0.9459,-0.9715,-0.9789,-1.0378,-1.0593,-1.0593,0.0,-0.0272,-0.0505,-0.0509,-0.1371,-0.2425,-0.3437,-0.4217,-0.5079,-0.6141,-0.63,-0.63,-0.63,-0.63,-0.618,0.0,-0.5786,-0.5473,0.0,-0.4653,-0.444,-0.4051,-0.3584,-0.3317,-0.3317,-0.2906,-0.2678,-0.2621,0.0,0.0,0.0,-0.4652,-0.5118,-0.5042,-0.5332,-0.5443,-0.5454,-0.5599,-0.5661,-0.5661,-0.5661,-0.5237,-0.4672,-0.538,-0.481,-0.36,-0.3986,-0.3685,-0.3063,-0.2789,-0.2686,-0.2787,-0.3387,-0.3975,-0.4586,-0.5226,-0.5395,-0.5395,-0.5395,-0.5395,-0.5395,-0.5395,-0.5395,-0.5395,-0.5395,-0.5131,-0.486,-0.466,-0.4563,-0.4491,-0.4491,-0.4042,-0.3834,-0.4321,-0.3987,0.0,0.0,0.0,0.0,0.0,0.0,-0.3762,0.0,-0.3529,0.0,0.0,0.0,0.0,0.0,0.0,0.0,0.0,-0.5362,0.0,-0.4557,-0.4954,-0.5523,-0.6195,-0.595,-0.6226,-0.6939,-0.6696,-0.6588,-0.6615,-0.6858,-0.6939,-0.6966,-0.7208,-0.7589,-0.8086,-0.8524,-0.9099,-0.9733,-1.0114,-1.0388,-1.0593,0.0,0.0,0.0,0.0,-0.0549,-0.1488,-0.289,-0.3669,-0.4491,-0.555,-0.6064,-0.6141,-0.5747,-0.6064,0.0,-0.5747,-0.5315,-0.4805,-0.4139,-0.375,-0.34,-0.3124,-0.266,-0.2411,-0.2411,-0.1942,0.0,-0.1696,-0.1939,-0.2472,-0.3301,-0.4421,-0.4894,-0.4785,-0.541,-0.5671,-0.5639,-0.5331,-0.5186,-0.515,-0.4784,-0.4241,-0.3738,-0.4787,-0.4388,-0.3296,-0.3599,-0.3293,-0.2656,-0.1949,-0.1683,-0.1733,-0.2079,-0.2556,-0.3162,-0.4108,-0.4386,-0.4386,-0.4386,-0.4386,-0.4453,-0.4788,-0.4888,-0.4942,-0.5222,-0.5091,-0.4874,-0.4721,-0.4597,-0.4491,-0.4491,-0.4098,-0.3901,-0.4405,-0.407,-0.3929,-0.4436,0.0,0.0,0.0,0.0,0.0,0.0,-0.3795,0.0,0.0,0.0,0.0,0.0,0.0,0.0,-0.4439,-0.4896,0.0,-0.4328,-0.4447,-0.4842,-0.5515,-0.5515,-0.5601,-0.58,-0.58,-0.58,-0.5823,-0.6068,-0.6177,-0.6199,-0.6475,-0.6858,-0.7322,-0.7711,-0.8253,-0.8887,-0.9542,-0.9926,-1.0174,0.0,0.0,0.0,0.0,-0.0079,0.0,-0.2708,-0.3061,-0.3454,-0.4474,-0.5539,-0.5817,-0.4828,-0.5697,-0.5895,-0.4789,0.0,0.0,0.0,-0.2152,-0.1996,-0.2851,-0.1996,-0.1489,-0.1489,-0.0499,0.0,0.0,-0.0888,-0.1751,-0.262,-0.364,-0.4109,-0.4138,-0.5159,-0.5597,-0.5525,-0.4556,-0.4123,-0.4051,-0.3101,-0.2701,-0.2737,-0.383,-0.4087,-0.383,-0.3169,-0.2804,-0.2439,-0.062,0.0,-0.0146,-0.0948,-0.1201,-0.1403,-0.2422,-0.2684,-0.2684,-0.2713,-0.2744,-0.2978,-0.3782,-0.4015,-0.4188,-0.4855,-0.4877,-0.4709,-0.465,-0.4525,-0.4446,-0.4491,-0.446,-0.4436,-0.4491,-0.446,-0.4436,-0.4491,0.0,0.0,0.0,0.0,0.0,0.0,-0.4018,-0.4072,0.0,0.0,0.0,0.0,0.0,-0.4044,-0.4477,-0.4491,-0.4491,-0.4491,-0.4491,-0.4814,-0.5433,-0.5433,-0.5109,-0.4491,-0.4491,-0.4491,-0.4546,-0.5164,-0.5433,-0.5487,-0.6177,-0.648,-0.6569,-0.6996,-0.7229,-0.7459,-0.8683,-0.9175,-0.9332,0.0,0.0,0.0,0.0,-0.0662,-0.1404,-0.1897,-0.2597,-0.3172,-0.346,-0.4492,-0.5153,-0.4864,-0.5896,-0.6141,-0.4946,-0.4507,-0.3984,-0.3163,-0.2152,-0.1333,-0.0745,-0.051,-0.0392,-0.0392,-0.0117,0.0,0.0,-0.1043,-0.1564,-0.1646,-0.273,-0.3145,-0.3087,-0.3444,-0.3587,-0.3591,-0.3429,-0.3377,-0.3341,-0.3109,-0.2536,-0.2078,-0.388,-0.3074,-0.1191,-0.2561,-0.202,-0.06,-0.015,0.0,-0.0037,-0.0261,-0.0296,-0.0615,-0.2233,-0.2694,-0.2717,-0.2693,-0.3178,-0.3747,-0.3949,-0.4015,-0.4041,-0.4213,-0.3632,-0.3216,-0.376,-0.3762,-0.382,-0.4397,-0.3984,-0.379,-0.4405,-0.3984,-0.379,-0.4405,-0.446,0.0,0.0,-0.4406,-0.4314,-0.418,-0.4294,-0.4255,0.0,0.0,0.0,0.0,-0.4109,-0.4239,-0.4484,-0.4491,-0.4491,-0.4491,-0.4491,-0.457,-0.4732,-0.4732,-0.4653,-0.4491,-0.4491,-0.4491,-0.4519,-0.468,-0.4732,-0.4759,-0.4924,-0.5304,-0.5769,-0.5884,-0.6473,-0.7329,-0.7652,-0.8011,-0.842,0.0,0.0,0.0,0.0,-0.0462,-0.1049,-0.1509,-0.2052,-0.2429,-0.2429,-0.3853,-0.4522,-0.3517,-0.4897,-0.5402,-0.4189,-0.4093,-0.3616,-0.2507,-0.1448,-0.0605,-0.004,0.0,0.0,0.0,0.0,0.0,0.0,-0.0588,-0.0818,-0.0731,-0.1805,-0.2248,-0.222,-0.2743,-0.2989,-0.2954,-0.2565,-0.2425,-0.2384,-0.1878,-0.1644,-0.1724,-0.2856,-0.2503,-0.1524,-0.2159,-0.169,-0.0654,-0.0154,0.0,0.0,0.0,0.0,-0.0188,-0.1168,-0.1461,-0.1464,-0.1476,-0.1794,-0.228,-0.2678,-0.3078,-0.3413,-0.3413,-0.295,-0.272,-0.352,-0.3505,-0.3611,-0.4437,-0.4197,-0.3984,-0.4436,-0.4125,-0.4012,-0.4436,-0.4491,0.0,-0.4491,-0.4491,-0.446,-0.4355,-0.4443,-0.4389,-0.4143,-0.4253,0.0,-0.4226,-0.43,-0.4382,-0.4487,-0.4491,-0.4491,-0.4491,-0.4491,-0.4491,-0.4491,-0.4491,-0.4491,-0.4491,-0.4491,-0.4491,-0.4491,-0.4491,-0.4491,-0.4491,-0.4491,-0.4708,-0.5046,-0.5174,-0.5639,-0.6276,-0.6811,-0.7119,-0.741,0.0,0.0,0.0,0.0,0.0,-0.0297,-0.1229,-0.1356,-0.1356,-0.1356,-0.3175,-0.3723,-0.1821,-0.3468,-0.4229,-0.3003,-0.3046,-0.2722,-0.1676,-0.0583,0.0,0.0,0.0,0.0,0.0,0.0,0.0,0.0,0.0,0.0,-0.0039,-0.0941,-0.1372,-0.1411,-0.2268,-0.2617,-0.2578,-0.1723,-0.1372,-0.1293,-0.0353,-0.0549,-0.1372,-0.1528,-0.2035,-0.254,-0.184,-0.1489,-0.1215,-0.0314,0.0,0.0,0.0,0.0,0.0,0.0,0.0,0.0,0.0,-0.0104,-0.0406,-0.1276,-0.2009,-0.2477,-0.2477,-0.2303,-0.2391,-0.34,-0.3388,-0.3495,-0.452,-0.4614,-0.4515,-0.4494,-0.4491,-0.4491,-0.4491,0.0,-0.4491,-0.4491,-0.4491,-0.4491,-0.4491,-0.4491,-0.4491,-0.4491,-0.4491,-0.4491,-0.4491,-0.4491,-0.4491,-0.4491,-0.4491,-0.4491,-0.4491,-0.4491,-0.4491,-0.4491,-0.4491,-0.4491,-0.4491,-0.4491,-0.4491,-0.4491,-0.4491,-0.4491,-0.4491,-0.4491,-0.4505,-0.4549,-0.4782,-0.4881,-0.5037,-0.6057,-0.6354,-0.6383,0.0,0.0,0.0,0.0,0.0,-0.0044,-0.0222,-0.0267,-0.0267,-0.0267,-0.142,-0.217,-0.1816,-0.2964,-0.3317,-0.2126,-0.2038,-0.1917,-0.1631,-0.0587,0.0,0.0,0.0,0.0,0.0,0.0,0.0,0.0,0.0,0.0,0.0,-0.0157,-0.0235,-0.0235,-0.0392,-0.0471,-0.0471,-0.0314,-0.0235,-0.0236,-0.0079,-0.0118,-0.0353,-0.1254,-0.1137,-0.0588,-0.1333,-0.102,-0.0236,-0.0039,0.0,0.0,0.0,0.0,0.0,0.0,0.0,0.0,0.0,-0.0532,-0.1312,-0.2256,-0.2009,-0.1507,-0.1507,-0.0938,-0.083,-0.2391,-0.2647,-0.3057,-0.4438,-0.467,-0.4641,-0.4511,-0.4491,-0.4491,-0.4491,0.0,-0.4491,-0.4491,-0.4491,-0.4491,-0.4491,-0.4491,-0.4491,-0.4491,-0.4491,-0.4491,-0.4491,-0.4491,-0.4491,-0.4491,-0.4491,-0.4491,-0.4491,-0.4491,-0.4491,-0.4491,-0.4491,-0.4491,-0.4491,-0.4491,-0.4491,-0.4491,-0.4491,-0.4491,-0.4491,-0.4491,-0.4566,-0.466,-0.4707,-0.4877,-0.5087,-0.5168,-0.535,-0.5669,0.0,0.0,0.0,0.0,0.0,0.0,0.0,0.0,0.0,0.0,-0.1031,-0.1567,-0.0897,-0.1924,-0.2147,-0.0942,-0.0852,-0.0801,-0.0741,-0.0262,0.0,0.0,0.0,0.0,0.0,0.0,0.0,0.0,0.0,0.0,0.0,0.0,0.0,0.0,0.0,0.0,0.0,0.0,0.0,0.0,0.0,-0.0353,-0.0863,-0.0784,-0.0784,-0.0863,-0.0784,-0.0432,0.0,0.0,0.0,0.0,0.0,0.0,0.0,0.0,0.0,0.0,0.0,-0.0286,-0.0698,-0.1137,-0.0917,-0.0605,-0.0605,-0.0303,-0.0503,-0.2241,-0.2565,-0.2995,-0.4614,-0.4799,-0.4545,-0.4086,-0.4282,0.0,0.0,-0.4259,-0.4491,-0.4491,-0.4491,-0.4491,-0.4491,-0.4491,-0.4491,-0.4491,-0.4491,-0.4491,-0.4491,-0.4491,-0.4491,-0.4491,-0.4491,-0.4491,-0.4491,-0.4491,-0.4491,-0.4491,-0.4491,-0.4491,-0.4491,-0.4491,-0.4491,-0.4491,-0.4491,-0.4491,-0.4491,-0.4491,-0.4532,-0.461,-0.4748,-0.4897,-0.4999,-0.5121,-0.5192,-0.5305,0.0,0.0,0.0,0.0,0.0,0.0,0.0,0.0,0.0,0.0,-0.0807,-0.1031,-0.009,-0.0807,-0.1031,-0.009,0.0,0.0,0.0,0.0,0.0,0.0,0.0,0.0,0.0,0.0,0.0,0.0,0.0,0.0,0.0,0.0,0.0,0.0,0.0,0.0,0.0,0.0,0.0,0.0,0.0,-0.0479,-0.1156,-0.0319,-0.0517,-0.1107,-0.0277,0.0,0.0,0.0,0.0,0.0,0.0,0.0,0.0,0.0,0.0,0.0,0.0,0.0,0.0,0.0,0.0,0.0,0.0,0.0,-0.0505,-0.231,-0.2633,-0.3011,-0.4524,-0.4636,-0.4294,-0.3668,0.0,0.0,0.0,-0.4185,-0.4542,-0.4542,-0.4542,-0.4528,-0.4494,-0.4491,-0.4491,-0.4491,-0.4491,-0.4491,-0.4491,-0.4491,-0.4491,-0.4491,-0.4491,-0.4491,-0.4491,-0.4491,-0.4491,-0.4491,-0.4491,-0.4491,-0.4491,-0.4491,-0.4491,-0.4491,-0.4491,-0.4491,-0.4491,-0.4491,-0.4511,-0.4573,-0.4813,-0.4908,-0.4965,-0.5223,-0.5254,-0.5196,0.0,0.0,0.0,0.0,0.0,0.0,0.0,0.0,0.0,0.0,-0.009,-0.009,0.0,-0.009,-0.009,0.0,0.0,0.0,0.0,0.0,0.0,0.0,0.0,0.0,0.0,0.0,0.0,0.0,0.0,0.0,0.0,0.0,0.0,0.0,0.0,0.0,0.0,0.0,0.0,0.0,0.0,-0.0042,-0.0126,-0.0042,-0.0041,-0.0122,-0.0041,0.0,0.0,0.0,0.0,0.0,0.0,0.0,0.0,0.0,0.0,0.0,0.0,0.0,0.0,0.0,0.0,0.0,0.0,0.0,-0.0505,-0.231,-0.2706,-0.2946,-0.3734,-0.3895,-0.3755,-0.347,0.0,0.0,-0.4513,-0.4651,-0.4674,-0.4674,-0.4674,-0.4648,-0.4505,-0.4491,-0.4491,-0.4491,-0.4491,-0.4491,-0.4491,-0.4491,-0.4491,-0.4491,-0.4491,-0.4491,-0.4491,-0.4491,-0.4491,-0.4491,-0.4491,-0.4491,-0.4491,-0.4491,-0.4491,-0.4491,-0.4491,-0.4491,-0.4491,-0.4491,-0.4576,-0.4691,-0.4853,-0.4968,-0.5086,-0.5106,-0.5233,-0.5358,0.0,0.0,0.0,0.0,0.0,0.0,0.0,0.0,0.0,0.0,0.0,0.0,0.0,0.0,0.0,0.0,0.0,0.0,0.0,0.0,0.0,0.0,0.0,0.0,0.0,0.0,0.0,0.0,0.0,0.0,0.0,0.0,0.0,0.0,0.0,0.0,0.0,0.0,0.0,0.0,0.0,0.0,0.0,0.0,0.0,0.0,0.0,0.0,0.0,0.0,0.0,0.0,0.0,0.0,0.0,0.0,0.0,0.0,0.0,0.0,0.0,0.0,0.0,0.0,0.0,0.0,-0.0337,-0.1574,-0.1842,-0.2102,-0.2969,-0.3053,-0.2981,-0.2967,0.0,-0.3673,-0.4081,-0.4551,-0.4833,-0.4833,-0.4833,-0.4809,-0.4752,-0.466,-0.4634,-0.4634,-0.4545,-0.4491,-0.4491,-0.4491,-0.4491,-0.4491,-0.4491,-0.4491,-0.4491,-0.4491,-0.4491,-0.4491,-0.4491,-0.4491,-0.4491,-0.4491,-0.4491,-0.4491,-0.4491,-0.4491,-0.4491,-0.4491,-0.4525,-0.4593,-0.4718,-0.4867,-0.4978,-0.5066,-0.5226,-0.5385,0.0,0.0,0.0,0.0,0.0,0.0,0.0,0.0,0.0,0.0,0.0,0.0,0.0,0.0,0.0,0.0,0.0,0.0,0.0,0.0,0.0,0.0,0.0,0.0,0.0,0.0,0.0,0.0,0.0,0.0,0.0,0.0,0.0,0.0,0.0,0.0,0.0,0.0,0.0,0.0,0.0,0.0,0.0,0.0,0.0,0.0,0.0,0.0,0.0,0.0,0.0,0.0,0.0,0.0,0.0,0.0,0.0,0.0,0.0,0.0,0.0,0.0,0.0,0.0,0.0,0.0,-0.0238,-0.1109,-0.1307,-0.1507,-0.2143,-0.2176,-0.2222,-0.2574,-0.2975,-0.3482,-0.4123,-0.4634,-0.4955,-0.4955,-0.4955,-0.4938,-0.4891,-0.4823,-0.4762,-0.4762,-0.4663,-0.4614,-0.4563,-0.4515,-0.4491,-0.4491,-0.4491,-0.4491,-0.4491,-0.4491,-0.4491,-0.4491,-0.4491,-0.4491,-0.4491,-0.4491,-0.4491,-0.4491,-0.4491,-0.4491,-0.4491,-0.4491,-0.4491,-0.4508,-0.4684,-0.4826,-0.4911,-0.5131,-0.527,-0.5395,0.0,0.0,0.0,0.0,0.0,0.0,0.0,0.0,0.0,0.0,0.0,0.0,0.0,0.0,0.0,0.0,0.0,0.0,0.0,0.0,0.0,0.0,0.0,0.0,0.0,0.0,0.0,0.0,0.0,0.0,0.0,0.0,0.0,0.0,0.0,0.0,0.0,0.0,0.0,0.0,0.0,0.0,0.0,0.0,0.0,0.0,0.0,0.0,0.0,0.0,0.0,0.0,0.0,0.0,0.0,0.0,0.0,0.0,0.0,0.0,0.0,0.0,0.0,0.0,0.0,0.0,-0.0244,-0.1113,-0.1274,-0.1274,-0.1273,-0.1273,-0.1561,-0.2358,-0.2508,-0.3117,-0.4842,-0.51,-0.51,-0.5068,-0.51,-0.5046,-0.4904,-0.4891,-0.4891,-0.4891,-0.4887,-0.4853,-0.4701,-0.4576,-0.4494,-0.4494,-0.4491,-0.4491,-0.4491,-0.4491,-0.4491,-0.4491,-0.4491,-0.4491,-0.4491,-0.4491,-0.4491,-0.4491,-0.4491,-0.4491,-0.4491,-0.4491,-0.4491,-0.4525,-0.4799,-0.4887,-0.4955,-0.5283,-0.5392,-0.5395,0.0,0.0,0.0,0.0,0.0,0.0,0.0,0.0,0.0,0.0,0.0,0.0,0.0,0.0,0.0,0.0,0.0,0.0,0.0,0.0,0.0,0.0,0.0,0.0,0.0,0.0,0.0,0.0,0.0,0.0,0.0,0.0,0.0,0.0,0.0,0.0,0.0,0.0,0.0,0.0,0.0,0.0,0.0,0.0,0.0,0.0,0.0,0.0,0.0,0.0,0.0,0.0,0.0,0.0,0.0,0.0,0.0,0.0,0.0,0.0,0.0,0.0,0.0,0.0,0.0,0.0,-0.0072,-0.0348,-0.0381,-0.0379,-0.0371,-0.0404,-0.067,-0.1525,-0.2216,-0.281,-0.3337,-0.3931,-0.4096,-0.3502,-0.3964,-0.4314,-0.4281,-0.4744,-0.5036,-0.5036,-0.4945,-0.487,-0.4853,-0.4809,-0.4782,-0.4782,-0.4677,-0.4651,-0.4651,-0.4545,-0.4491,-0.4491,-0.4491,-0.4491,-0.4491,-0.4491,-0.4491,-0.4494,-0.4604,-0.4651,-0.4651,-0.4651,-0.4684,-0.4782,-0.4765,-0.4887,-0.5046,-0.5165,-0.5267,-0.5395,0.0,0.0,0.0,0.0,0.0,0.0,0.0,0.0,0.0,0.0,0.0,0.0,0.0,0.0,0.0,0.0,0.0,0.0,0.0,0.0,0.0,0.0,0.0,0.0,0.0,0.0,0.0,0.0,0.0,0.0,0.0,0.0,0.0,0.0,0.0,0.0,0.0,0.0,0.0,0.0,0.0,0.0,0.0,0.0,0.0,0.0,0.0,0.0,0.0,0.0,0.0,0.0,0.0,0.0,0.0,0.0,0.0,0.0,0.0,0.0,0.0,0.0,0.0,0.0,0.0,0.0,0.0,0.0,0.0,0.0,0.0,0.0,-0.0269,-0.1173,-0.1775,-0.2277,-0.2644,-0.3145,-0.3278,-0.2778,-0.348,-0.4015,-0.4015,-0.4415,-0.4664,-0.4664,-0.486,-0.4972,-0.4972,-0.4918,-0.4887,-0.4887,-0.483,-0.4779,-0.4779,-0.4691,-0.4641,-0.458,-0.458,-0.461,-0.4672,-0.4672,-0.4672,-0.4679,-0.4741,-0.4779,-0.4779,-0.4779,-0.4833,-0.4884,-0.4877,-0.4941,-0.5106,-0.5199,-0.5281,-0.5395,0.0,0.0,0.0,0.0,0.0,0.0,0.0,0.0,0.0,0.0,0.0,0.0,0.0,0.0,0.0,0.0,0.0,0.0,0.0,0.0,0.0,0.0,0.0,0.0,0.0,0.0,0.0,0.0,0.0,0.0,0.0,0.0,0.0,0.0,0.0,0.0,0.0,0.0,0.0,0.0,0.0,0.0,0.0,0.0,0.0,0.0,0.0,0.0,0.0,0.0,0.0,0.0,0.0,0.0,0.0,0.0,0.0,0.0,0.0,0.0,0.0,0.0,0.0,0.0,0.0,0.0,0.0,0.0,0.0,0.0,0.0,0.0,-0.027,-0.104,-0.124,-0.1574,-0.2344,-0.2511,-0.2544,-0.2477,-0.3211,-0.3747,-0.3747,-0.3846,-0.3882,-0.3882,-0.4508,-0.489,-0.489,-0.4777,-0.474,-0.4802,-0.4822,-0.4843,-0.4908,-0.4894,-0.485,-0.4711,-0.4711,-0.4782,-0.4887,-0.4887,-0.4887,-0.4887,-0.4901,-0.4908,-0.4908,-0.4908,-0.4914,-0.4969,-0.5052,-0.5106,-0.5137,-0.5344,-0.5395,-0.5395,0.0,0.0,0.0,0.0,0.0,0.0,0.0,0.0,0.0,0.0,0.0,0.0,0.0,0.0,0.0,0.0,0.0,0.0,0.0,0.0,0.0,0.0,0.0,0.0,0.0,0.0,0.0,0.0,0.0,0.0,0.0,0.0,0.0,0.0,0.0,0.0,0.0,0.0,0.0,0.0,0.0,0.0,0.0,0.0,0.0,0.0,0.0,0.0,0.0,0.0,0.0,0.0,0.0,0.0,0.0,0.0,0.0,0.0,0.0,0.0,0.0,0.0,0.0,0.0,0.0,0.0,0.0,0.0,0.0,0.0,0.0,0.0,-0.0069,-0.0237,-0.0839,-0.114,-0.0639,-0.1174,-0.1341,-0.0672,-0.1342,-0.1876,-0.1876,-0.2544,-0.2978,-0.2978,-0.3127,-0.3216,-0.3216,-0.3197,-0.3484,-0.4175,-0.4081,-0.4382,-0.5052,-0.4941,-0.4874,-0.487,-0.487,-0.4857,-0.4887,-0.4887,-0.4887,-0.4894,-0.5005,-0.5052,-0.5052,-0.5052,-0.5155,-0.5289,-0.5165,-0.5206,-0.5347,-0.5382,-0.5395,-0.5395,0.0135,0.0449,0.0673,0.009,0.0,0.0,0.0,0.0,0.0,0.0,0.0,0.0,0.0,0.0,0.0277,0.0878,0.037,0.0277,0.0924,0.037,0.0,0.0,0.0601,0.097,0.097,0.1569,0.128,0.0,0.0,0.0,0.0,0.0,0.0,0.0,0.0,0.0,0.0,0.0,0.0,0.0,0.0,0.0,0.0,0.0,0.0,0.0,0.0,0.0,0.0,0.0,0.0,0.0,0.0,0.0,0.0,0.0,0.0,0.0,0.0,0.0,0.0,0.0,0.0,0.0,0.0,0.0,0.0,0.0,0.0,0.0,0.0,0.0,0.0,0.0,-0.0373,-0.0504,-0.0067,-0.0404,-0.0504,-0.0067,-0.0772,-0.1307,-0.1307,-0.2143,-0.2511,-0.2076,-0.2444,-0.2711,-0.2711,-0.2711,-0.2911,-0.338,-0.3298,-0.3696,-0.4582,-0.4516,-0.4709,-0.5128,-0.5053,-0.5057,-0.5128,-0.5128,-0.5128,-0.5135,-0.5209,-0.524,-0.524,-0.524,-0.532,-0.5385,-0.5274,-0.5243,-0.526,-0.5368,-0.5395,-0.5395,0.0807,0.1258,0.1486,0.0496,0.0136,0.0091,0.0318,0.0136,0.0091,0.0325,0.0139,0.0,0.0,0.0191,0.081,0.1903,0.1,0.081,0.1903,0.0952,0.0238,0.0,0.1523,0.2236,0.1999,0.3325,0.2806,0.0363,0.0363,0.0227,0.0,0.0,0.0,0.0,0.0,0.0,0.0,0.0,0.0,0.0,0.0,0.0,0.0,0.0,0.0,0.0,0.0,0.0,0.0,0.0,0.0,0.0,0.0,0.0,0.0,0.0,0.0,0.0,0.0,0.0,0.0,0.0,0.0,0.0,0.0,0.0,0.0,0.0,0.0,0.0,0.0,0.0,0.0,0.0,0.0,0.0,0.0,0.0,0.0,0.0,-0.0638,-0.1073,-0.1073,-0.1775,-0.1909,-0.114,-0.181,-0.2243,-0.2243,-0.2243,-0.231,-0.2444,-0.2477,-0.2878,-0.378,-0.3915,-0.4384,-0.5156,-0.5,-0.5071,-0.5395,-0.5395,-0.5395,-0.5395,-0.5395,-0.5395,-0.5392,-0.5365,-0.5354,-0.5351,-0.533,-0.5223,-0.5113,-0.5274,-0.5354,-0.5351,0.3126,0.2404,0.1747,0.1564,0.0701,0.0378,0.1558,0.0756,0.0426,0.1564,0.0712,0.0,0.0,0.1048,0.1809,0.1999,0.1857,0.1809,0.1999,0.1809,0.119,0.0048,0.2376,0.3183,0.2047,0.3325,0.3269,0.1748,0.1748,0.1134,0.0,0.0,0.0,0.0,0.0,0.0,0.0,0.0,0.0,0.0,0.0,0.0,0.0,0.0,0.0,0.0,0.0,0.0,0.0,0.0,0.0,0.0,0.0,0.0,0.0,0.0,0.0,0.0,0.0,0.0,0.0,0.0,0.0,0.0,0.0,0.0,0.0,0.0,0.0,0.0,0.0,0.0,0.0,0.0,0.0,0.0,0.0,0.0,0.0,0.0,-0.0101,-0.0168,-0.0168,-0.0303,-0.0303,-0.0202,-0.0303,-0.037,-0.037,-0.037,-0.0706,-0.1474,-0.1474,-0.1941,-0.2878,-0.3613,-0.4048,-0.4184,-0.4166,-0.4602,-0.5395,-0.5395,-0.5395,-0.5395,-0.5395,-0.5395,-0.5385,-0.5216,-0.513,-0.5117,-0.5026,-0.5009,-0.51,-0.512,-0.513,-0.5113,0.3974,0.3957,0.3608,0.2159,0.1467,0.1333,0.1903,0.1476,0.1338,0.193,0.1498,0.1117,0.1129,0.2306,0.3433,0.4168,0.3531,0.3433,0.4168,0.3531,0.2845,0.2256,0.4069,0.4854,0.4268,0.5538,0.5586,0.4219,0.3505,0.2425,0.1095,0.1095,0.0711,0.0,0.0,0.0,0.0,0.0,0.0,0.0,0.0,0.0,0.0,0.0,0.0,0.0,0.0,0.0,0.0,0.0,0.0,0.0,0.0,0.0,0.0,0.0,0.0,0.0,0.0,0.0,0.0,0.0,0.0,0.0,0.0,0.0,0.0,0.0,0.0,0.0,0.0,0.0,0.0,0.0,0.0,0.0,0.0,0.0,0.0,0.0,0.0,0.0,0.0,0.0,0.0,0.0,0.0,0.0,0.0,0.0,-0.0168,-0.0572,-0.0572,-0.1007,-0.1909,-0.231,-0.2744,-0.328,-0.328,-0.4015,-0.5395,-0.4855,-0.4891,-0.5395,-0.5395,-0.5344,-0.5226,-0.5127,-0.5052,-0.4975,-0.4914,-0.4928,-0.4972,-0.4914,-0.4938,-0.4972]}]]